[[{"header":{"parameterUnit":"m.s-1","parameterCategory":1,"la1":30.6,"la2":28.766,"lo1":-90.7593,"lo2":-88.6598,"dy":0.0162,"dx":0.0183,"nx":116,"ny":114,"refTime":"2023-06-06T12:00:00:Z","depth":0,"parameterNumber":2,"parameterNumberName":"U-component_of_WINDS"},"data":[0.0,0.0,0.0,0.0,0.0,0.0,0.0,0.0,0.0,0.0,0.0,0.0,0.0,0.0,0.0,0.0,0.0,0.0,0.0,0.0,0.0,0.0,0.0,0.0,0.0,0.0,0.0,0.0,0.0,0.0,0.0,0.0,0.0,0.0,0.0,0.0,0.0,0.0,0.0,0.0,0.0,0.0,0.0,0.0,0.0,0.0,0.0,0.0,0.0,0.0,0.0,0.0,0.0,0.0,0.0,0.0,0.0,0.0,0.0,0.0,0.0,0.0,0.0,0.0,0.0,0.0,0.0,0.0,0.0,0.0,0.0,0.0,0.0,0.0,0.0,0.0,0.0,0.0,0.0,0.0,0.0,0.0,0.0,0.0,0.0,0.0,0.0,0.0,0.0,0.0,0.0,0.0,0.0,0.0,0.0,0.0,0.0,0.0,0.0,0.0,0.0,0.0,0.0,0.0,0.0,0.0,0.0,0.0,0.0,0.0,0.0,0.0,0.0,0.0,0.0,0.0,0.0,0.0,0.0,0.0,0.0,0.0,0.0,0.0,0.0,0.0,0.0,0.0,0.0,0.0,0.0,0.0,0.0,0.0,0.0,0.0,0.0,0.0,0.0,0.0,0.0,0.0,0.0,0.0,0.0,0.0,0.0,0.0,0.0,0.0,0.0,0.0,0.0,0.0,0.0,0.0,0.0,0.0,0.0,0.0,0.0,0.0,0.0,0.0,0.0,0.0,0.0,0.0,0.0,0.0,0.0,0.0,0.0,0.0,0.0,0.0,0.0,0.0,0.0,0.0,0.0,0.0,0.0,0.0,0.0,0.0,0.0,0.0,0.0,0.0,0.0,0.0,0.0,0.0,0.0,0.0,0.0,0.0,0.0,0.0,0.0,0.0,0.0,0.0,0.0,0.0,0.0,0.0,0.0,0.0,0.0,0.0,0.0,0.0,0.0,0.0,0.0,0.0,0.0,0.0,0.0,0.0,0.0,0.0,0.0,0.0,0.0,0.0,0.0,0.0,0.0,0.0,0.0,0.0,0.0,0.0,0.0,0.0,0.0,0.0,0.0,0.0,0.0,0.0,0.0,0.0,0.0,0.0,0.0,0.0,0.0,0.0,0.0,0.0,0.0,0.0,0.0,0.0,0.0,0.0,0.0,0.0,0.0,0.0,0.0,0.0,0.0,0.0,0.0,0.0,0.0,0.0,0.0,0.0,0.0,0.0,0.0,0.0,0.0,0.0,0.0,0.0,0.0,0.0,0.0,0.0,0.0,0.0,0.0,0.0,0.0,0.0,0.0,0.0,0.0,0.0,0.0,0.0,0.0,0.0,0.0,0.0,0.0,0.0,0.0,0.0,0.0,0.0,0.0,0.0,0.0,0.0,0.0,0.0,0.0,0.0,0.0,0.0,0.0,0.0,0.0,0.0,0.0,0.0,0.0,0.0,0.0,0.0,0.0,0.0,0.0,0.0,0.0,0.0,0.0,0.0,0.0,0.0,0.0,0.0,0.0,0.0,0.0,0.0,0.0,0.0,0.0,0.0,0.0,0.0,0.0,0.0,0.0,0.0,0.0,0.0,0.0,0.0,0.0,0.0,0.0,0.0,0.0,0.0,0.0,0.0,0.0,0.0,0.0,0.0,0.0,0.0,0.0,0.0,0.0,0.0,0.0,0.0,0.0,0.0,0.0,0.0,0.0,0.0,0.0,0.0,0.0,0.0,0.0,0.0,0.0,0.0,0.0,0.0,0.0,0.0,0.0,0.0,0.0,0.0,0.0,0.0,0.0,0.0,0.0,0.0,0.0,0.0,0.0,0.0,0.0,0.0,0.0,0.0,0.0,0.0,0.0,0.0,0.0,0.0,0.0,0.0,0.0,0.0,0.0,0.0,0.0,0.0,0.0,0.0,0.0,0.0,0.0,0.0,0.0,0.0,0.0,0.0,0.0,0.0,0.0,0.0,0.0,0.0,0.0,0.0,0.0,0.0,0.0,0.0,0.0,0.0,0.0,0.0,0.0,0.0,0.0,0.0,0.0,0.0,0.0,0.0,0.0,0.0,0.0,0.0,0.0,0.0,0.0,0.0,0.0,0.0,0.0,0.0,0.0,0.0,0.0,0.0,0.0,0.0,0.0,0.0,0.0,0.0,0.0,0.0,0.0,0.0,0.0,0.0,0.0,0.0,0.0,0.0,0.0,0.0,0.0,0.0,0.0,0.0,0.0,0.0,0.0,0.0,0.0,0.0,0.0,0.0,0.0,0.0,0.0,0.0,0.0,0.0,0.0,0.0,0.0,0.0,0.0,0.0,0.0,0.0,0.0,0.0,0.0,0.0,0.0,0.0,0.0,0.0,0.0,0.0,0.0,0.0,0.0,0.0,0.0,0.0,0.0,0.0,0.0,0.0,0.0,0.0,0.0,0.0,0.0,0.0,0.0,0.0,0.0,0.0,0.0,0.0,0.0,0.0,0.0,0.0,0.0,0.0,0.0,0.0,0.0,0.0,0.0,0.0,0.0,0.0,0.0,0.0,0.0,0.0,0.0,0.0,0.0,0.0,0.0,0.0,0.0,0.0,0.0,0.0,0.0,0.0,0.0,0.0,0.0,0.0,0.0,0.0,0.0,0.0,0.0,0.0,0.0,0.0,0.0,0.0,0.0,0.0,0.0,0.0,0.0,0.0,0.0,0.0,0.0,0.0,0.0,0.0,0.0,0.0,0.0,0.0,0.0,0.0,0.0,0.0,0.0,0.0,0.0,0.0,0.0,0.0,0.0,0.0,0.0,0.0,0.0,0.0,0.0,0.0,0.0,0.0,0.0,0.0,0.0,0.0,0.0,0.0,0.0,0.0,0.0,0.0,0.0,0.0,0.0,0.0,0.0,0.0,0.0,0.0,0.0,0.0,0.0,0.0,0.0,0.0,0.0,0.0,0.0,0.0,0.0,0.0,0.0,0.0,0.0,0.0,0.0,0.0,0.0,0.0,0.0,0.0,0.0,0.0,0.0,0.0,0.0,0.0,0.0,0.0,0.0,0.0,0.0,0.0,0.0,0.0,0.0,0.0,0.0,0.0,0.0,0.0,0.0,0.0,0.0,0.0,0.0,0.0,0.0,0.0,0.0,0.0,0.0,0.0,0.0,0.0,0.0,0.0,0.0,0.0,0.0,0.0,0.0,0.0,0.0,0.0,0.0,0.0,0.0,0.0,0.0,0.0,0.0,0.0,0.0,0.0,0.0,0.0,0.0,0.0,0.0,0.0,0.0,0.0,0.0,0.0,0.0,0.0,0.0,0.0,0.0,0.0,0.0,0.0,0.0,0.0,0.0,0.0,0.0,0.0,0.0,0.0,0.0,0.0,0.0,0.0,0.0,0.0,0.0,0.0,0.0,0.0,0.0,0.0,0.0,0.0,0.0,0.0,0.0,0.0,0.0,0.0,0.0,0.0,0.0,0.0,0.0,0.0,0.0,0.0,0.0,0.0,0.0,0.0,0.0,0.0,0.0,0.0,0.0,0.0,0.0,0.0,0.0,0.0,0.0,0.0,0.0,0.0,0.0,0.0,0.0,0.0,0.0,0.0,0.0,0.0,0.0,0.0,0.0,0.0,0.0,0.0,0.0,0.0,0.0,0.0,0.0,0.0,0.0,0.0,0.0,0.0,0.0,0.0,0.0,0.0,0.0,0.0,0.0,0.0,0.0,0.0,0.0,0.0,0.0,0.0,0.0,0.0,0.0,0.0,0.0,0.0,0.0,0.0,0.0,0.0,0.0,0.0,0.0,0.0,0.0,0.0,0.0,0.0,0.0,0.0,0.0,0.0,0.0,0.0,0.0,0.0,0.0,0.0,0.0,0.0,0.0,0.0,0.0,0.0,0.0,0.0,0.0,0.0,0.0,0.0,0.0,0.0,0.0,0.0,0.0,0.0,0.0,0.0,0.0,0.0,0.0,0.0,0.0,0.0,0.0,0.0,0.0,0.0,0.0,0.0,0.0,0.0,0.0,0.0,0.0,0.0,0.0,0.0,0.0,0.0,0.0,0.0,0.0,0.0,0.0,0.0,0.0,0.0,0.0,0.0,0.0,0.0,0.0,0.0,0.0,0.0,0.0,0.0,0.0,0.0,0.0,0.0,0.0,0.0,0.0,0.0,0.0,0.0,0.0,0.0,0.0,0.0,0.0,0.0,0.0,0.0,0.0,0.0,0.0,0.0,0.0,0.0,0.0,0.0,0.0,0.0,0.0,0.0,0.0,0.0,0.0,0.0,0.0,0.0,0.0,0.0,0.0,0.0,0.0,0.0,0.0,0.0,0.0,0.0,0.0,0.0,0.0,0.0,0.0,0.0,0.0,0.0,0.0,0.0,0.0,0.0,0.0,0.0,0.0,0.0,0.0,0.0,0.0,0.0,0.0,0.0,0.0,0.0,0.0,0.0,0.0,0.0,0.0,0.0,0.0,0.0,0.0,0.0,0.0,0.0,0.0,0.0,0.0,0.0,0.0,0.0,0.0,0.0,0.0,0.0,0.0,0.0,0.0,0.0,0.0,0.0,0.0,0.0,0.0,0.0,0.0,0.0,0.0,0.0,0.0,0.0,0.0,0.0,0.0,0.0,0.0,0.0,0.0,0.0,0.0,0.0,0.0,0.0,0.0,0.0,0.0,0.0,0.0,0.0,0.0,0.0,0.0,0.0,0.0,0.0,0.0,0.0,0.0,0.0,0.0,0.0,0.0,0.0,0.0,0.0,0.0,0.0,0.0,0.0,0.0,0.0,0.0,0.0,0.0,0.0,0.0,0.0,0.0,0.0,0.0,0.0,0.0,0.0,0.0,0.0,0.0,0.0,0.0,0.0,0.0,0.0,0.0,0.0,0.0,0.0,0.0,0.0,0.0,0.0,0.0,0.0,0.0,0.0,0.0,0.0,0.0,0.0,0.0,0.0,0.0,0.0,0.0,0.0,0.0,0.0,0.0,0.0,0.0,0.0,0.0,0.0,0.0,0.0,0.0,0.0,0.0,0.0,0.0,0.0,0.0,0.0,0.0,0.0,0.0,0.0,0.0,0.0,0.0,0.0,0.0,0.0,0.0,0.0,0.0,0.0,0.0,0.0,0.0,0.0,0.0,0.0,0.0,0.0,0.0,0.0,0.0,0.0,0.0,0.0,0.0,0.0,0.0,0.0,0.0,0.0,0.0,0.0,0.0,0.0,0.0,0.0,0.0,0.0,0.0,0.0,0.0,0.0,0.0,0.0,0.0,0.0,0.0,0.0,0.0,0.0,0.0,0.0,0.0,0.0,0.0,0.0,0.0,0.0,0.0,0.0,0.0,0.0,0.0,0.0,0.0,0.0,0.0,0.0,0.0,0.0,0.0,0.0,0.0,0.0,0.0,0.0,0.0,0.0,0.0,0.0,0.0,0.0,0.0,0.0,0.0,0.0,0.0,0.0,0.0,0.0,0.0,0.0,0.0,0.0,0.0,0.0,0.0,0.0,0.0,0.0,0.0,0.0,0.0,0.0,0.0,0.0,0.0,0.0,0.0,0.0,0.0,0.0,0.0,0.0,0.0,0.0,0.0,0.0,0.0,0.0,0.0,0.0,0.0,0.0,0.0,0.0,0.0,0.0,0.0,0.0,0.0,0.0,0.0,0.0,0.0,0.0,0.0,0.0,0.0,0.0,0.0,0.0,0.0,0.0,0.0,0.0,0.0,0.0,0.0,0.0,0.0,0.0,0.0,0.0,0.0,0.0,0.0,0.0,0.0,0.0,0.0,0.0,0.0,0.0,0.0,0.0,0.0,0.0,0.0,0.0,0.0,0.0,0.0,0.0,0.0,0.0,0.0,0.0,0.0,0.0,0.0,0.0,0.0,0.0,0.0,0.0,0.0,0.0,0.0,0.0,0.0,0.0,0.0,0.0,0.0,0.0,0.0,0.0,0.0,0.0,0.0,0.0,0.0,0.0,0.0,0.0,0.0,0.0,0.0,0.0,0.0,0.0,0.0,0.0,0.0,0.0,0.0,0.0,0.0,0.0,0.0,0.0,0.0,0.0,0.0,0.0,0.0,0.0,0.0,0.0,0.0,0.0,0.0,0.0,0.0,0.0,0.0,0.0,0.0,0.0,0.0,0.0,0.2773,0.3581,0.0,0.0,0.0,0.0,0.0,0.0,0.0,0.0,0.0,0.0,0.0,0.0,0.0,0.0,0.0,0.0,0.0,0.0,0.0,0.0,0.0,0.0,0.0,0.0,0.0,0.0,0.0,0.0,0.0,0.0,0.0,0.0,0.0,0.0,0.0,0.0,0.0,0.2791,0.2717,0.2709,0.2709,0.3027,0.3297,0.3484,0.0,0.0,0.0,0.0,0.0,0.0,0.0,0.0,0.0,0.0,0.0,0.0,0.0,0.0,0.0,0.0,0.0,0.0,0.0,0.0,0.0,0.0,0.0,0.0,0.0,0.0,0.0,0.0,0.0,0.0,0.0,0.0,0.0,0.0,0.0,0.0,0.0,0.0,0.0,0.0,0.0,0.0,0.0,0.0,0.0,0.0,0.0,0.0,0.0,0.0,0.0,0.0,0.0,0.0,0.0,0.0,0.0,0.0,0.0,0.0,0.0,0.0,0.0,0.0,0.0,0.0,0.0,0.0,0.0,0.0,0.0692,0.2549,0.0,0.0,0.0,0.0,0.0,0.0,0.0,0.0,0.0,0.0,0.0,0.0,0.0,0.0,0.0,0.0,0.0,0.0,0.0,0.0,0.0,0.0,0.0,0.2712,0.2712,0.2712,0.2712,0.2712,0.0,0.0,0.0,0.0,0.0,0.0,0.0,0.2636,0.2699,0.2869,0.2744,0.2761,0.291,0.3029,0.2886,0.2575,0.2798,0.0,0.0,0.0,0.0,0.0,0.0,0.0,0.0,0.0,0.0,0.0,0.0,0.0,0.0,0.0,0.0,0.0,0.0,0.0,0.0,0.0,0.0,0.0,0.0,0.0,0.0,0.0,0.0,0.0,0.0,0.0,0.0,0.0,0.0,0.0,0.0,0.0,0.0,0.0,0.0,0.0,0.0,0.0,0.0,0.0,0.0,0.0,0.0,0.0,0.0,0.0,0.0,0.0,0.0,0.0,0.0,0.0,0.0,0.0,0.0,0.0,0.0,0.0,-0.0755,-0.2476,-0.4928,-0.4928,-0.4874,-0.4686,-0.2183,0.0795,0.3873,0.3666,0.0,0.0,0.0,0.0,0.0,0.0,0.0,0.0,0.0,0.0,0.0,0.0,0.0,0.0,0.0,0.0,0.0,0.0,0.0,0.0,0.0,0.2712,0.2712,0.2712,0.2712,0.2712,0.2712,0.0,0.0,0.0,0.0,0.0,0.2679,0.2416,0.2428,0.271,0.2726,0.2761,0.291,0.2927,0.2907,0.2852,0.2893,0.2978,0.3076,0.0,0.0,0.0,0.0,0.0,0.0,0.0,0.0,0.0,0.0,0.0,0.0,0.0,0.0,0.0,0.0,0.0,0.0,0.0,0.0,0.0,0.0,0.0,0.0,0.0,0.0,0.0,0.0,0.0,0.0,0.0,0.0,0.0,0.0,0.0,0.0,0.0,0.0,0.0,0.0,0.0,0.0762,0.2862,0.0,0.0,0.0,0.0,0.0,0.0,0.0,0.0,0.0,0.0,0.0,0.0,0.0,0.0,0.0,0.0,0.0,-0.0077,-0.3709,-0.5895,-0.6787,-0.6787,-0.6508,-0.602,-0.5641,0.0,0.5109,0.4055,0.0,0.0,0.0,0.0,0.0,0.0,0.0,0.0,0.0,0.0,0.0,0.0,0.0,0.0,0.0,0.0,0.0,0.0,0.0,0.0,0.0,0.2808,0.2842,0.292,0.293,0.2893,0.2815,0.2808,0.0,0.0,0.0,0.2518,0.2808,0.2656,0.2947,0.3651,0.3775,0.391,0.4027,0.3662,0.3534,0.3531,0.3442,0.3256,0.2995,0.2862,0.0,0.0,0.0,0.0,0.0,0.0,0.0,0.0,0.0,0.0,0.0,0.0,0.0,0.0,0.0,0.0,0.0,0.0,0.0,0.0,0.0,0.0,0.0,0.0,0.0,0.0,0.0,0.0,0.0,0.0,0.0,0.0,0.0,0.0,0.0,0.0,0.0,0.0,0.0,0.1164,0.2544,0.3936,0.3782,0.3581,0.0,0.0,0.0,0.0,0.0,0.0,0.0,0.0,0.0,-0.0057,0.0,0.0,0.0,0.0,0.0,-0.0085,-0.4559,-0.6892,-0.7139,-0.7139,-0.7,-0.6756,-0.6756,-0.329,0.2511,0.3995,0.4237,0.3612,0.0,0.0,0.0,0.0,0.4292,0.4481,0.0,0.0,0.0,0.0,0.0,0.0,0.0,0.0,0.0,0.0,0.0,0.0,0.2896,0.294,0.3005,0.3072,0.3086,0.3039,0.2968,0.2893,0.2818,0.2744,0.2635,0.2684,0.2907,0.2985,0.3473,0.4473,0.4496,0.4554,0.4648,0.4249,0.4056,0.4016,0.39,0.3581,0.313,0.3052,0.2934,0.2812,0.0,0.0,0.0,0.0,0.0,0.0,0.0,0.0,0.0,0.0,0.0,0.0,0.0,0.0,0.0,0.0,0.0,0.0,0.0,0.0,0.0,0.0,0.0,0.0,0.0,0.0,0.0,0.0,0.0,0.0,0.0,0.0,0.0,0.0,0.0,0.0,0.0,0.246,0.3962,0.4876,0.4179,0.3581,0.0,0.0,0.0,0.0,0.0,0.0,-0.1591,-0.2724,-0.2345,-0.0073,0.0,0.0,0.0,0.0,0.0,0.0,-0.3575,-0.5265,-0.5265,-0.5265,-0.5265,-0.5265,-0.5265,-0.3307,0.0266,0.4063,0.513,0.4311,0.481,0.4982,0.4982,0.4982,0.4982,0.4982,0.0,0.0,0.0,0.0,0.0,0.0,0.0,0.0,0.0,0.0,0.0,0.29,0.291,0.3029,0.3075,0.3082,0.2998,0.2974,0.31,0.2849,0.2754,0.2893,0.2457,0.2424,0.2874,0.3145,0.3727,0.4692,0.4267,0.4058,0.4062,0.4165,0.4107,0.4019,0.4012,0.391,0.3727,0.3403,0.3199,0.31,0.3075,0.0,0.0,0.0,0.0,0.0,0.0,0.0,0.0,0.0,0.0,0.0,0.0,0.0,0.0,0.0,0.0,0.0,0.0,0.0,0.0,0.0,0.0,0.0,0.0,0.0,0.0,0.0,0.0,0.0,0.0,0.0,0.0,0.0,0.0,0.0,0.0,0.0,0.0,0.604,0.4636,0.0,0.0,0.0,0.0,0.0,-0.3215,-0.5395,-0.5983,-0.2351,-0.0177,0.0,0.0,0.0,0.0,0.0,0.0,0.0,-0.0269,-0.0359,-0.0359,-0.0359,-0.0359,-0.0359,-0.0359,-0.018,0.0357,0.453,0.6256,0.6204,0.6235,0.6169,0.6169,0.6169,0.6169,0.6169,0.0,0.0,0.0,0.0,0.0,0.0,0.0,0.0,0.2712,0.2712,0.2815,0.2981,0.3132,0.3327,0.3453,0.3544,0.3422,0.332,0.3229,0.2991,0.2893,0.3039,0.2771,0.2851,0.3334,0.4377,0.5018,0.5194,0.5073,0.5108,0.5268,0.4822,0.465,0.4599,0.4599,0.479,0.5132,0.4077,0.3706,0.3786,0.3706,0.3978,0.0,0.0,0.0,0.0,0.0,0.0,0.0,0.0,0.0,0.0,0.0,0.0,0.0,0.0,0.0,0.0,0.0,0.0,0.0,0.0,0.0,0.0,0.0,0.0,0.0,0.0,0.0,0.0,0.0,0.0,0.0,0.0,0.0,0.0,0.0,0.0,0.0,0.5865,0.4674,0.0,0.5192,0.2121,0.0,0.0,-0.4071,-0.5279,-0.2391,-0.0836,0.0,0.0,0.0,0.0,0.0,0.0,0.0,0.0,0.0,0.1613,0.4552,0.4552,0.4552,0.4727,0.7763,0.733,0.4721,0.6221,0.6827,0.6827,0.6827,0.6827,0.6827,0.6827,0.6827,0.6827,0.0,0.0,0.0,0.0,0.0,0.0,0.0,0.0,0.27,0.2751,0.2934,0.3154,0.336,0.3609,0.3744,0.3788,0.3659,0.3534,0.3393,0.3147,0.3046,0.3191,0.3158,0.3402,0.4039,0.4894,0.5436,0.5528,0.5494,0.552,0.5638,0.5149,0.4965,0.4918,0.5218,0.5663,0.6167,0.5491,0.5105,0.4927,0.4792,0.5048,0.5455,0.0,0.0,0.0,0.0,0.0,0.0,0.0,0.0,0.0,0.0,0.0,0.0,0.0,0.0,0.0,0.0,0.0,0.0,0.0,0.0,0.0,0.0,0.0,0.0,0.0,0.0,0.0,0.0,0.0,0.0,0.0,0.0,0.0,0.0,0.0,0.1633,0.6035,0.5508,0.4593,0.4188,0.1604,0.0,0.0,-0.2888,-0.3351,-0.0187,0.0,0.0,0.0,0.0,0.0,0.0,0.0,0.0,0.0,0.1613,0.4018,0.7139,0.7139,0.7921,0.9657,1.2778,1.2345,0.9309,0.7749,0.6157,0.4821,0.6514,0.7139,0.7139,0.7139,0.7139,0.7139,0.0,0.0,0.0,0.0,0.0,0.0,0.0,0.2712,0.2734,0.289,0.3207,0.3454,0.3568,0.3849,0.3965,0.3812,0.3663,0.3581,0.3581,0.3286,0.3185,0.3392,0.3557,0.4061,0.4874,0.4656,0.4904,0.5587,0.5253,0.5081,0.4945,0.5081,0.5074,0.4938,0.5836,0.6415,0.6845,0.7663,0.7442,0.6542,0.6352,0.6336,0.6422,0.0,0.0,0.0,0.0,0.0,0.0,0.0,0.0,0.0,0.0,0.0,0.0,0.0,0.0,0.0,0.0,0.0,0.0,0.0,0.0,0.0,0.0,0.0,0.0,0.0,0.0,0.0,0.0,0.0,0.0,0.0,0.0,0.0,0.0,0.0139,0.195,0.654,0.7156,0.5285,0.0451,0.0,0.0,0.0,0.0,0.0,0.0,0.0,0.0,0.0,0.0,0.0,0.0,0.0,0.0097,0.0269,0.491,0.7139,0.7139,0.7228,0.9831,1.4088,1.4088,1.3997,1.3561,0.8965,0.4285,0.0449,0.5087,0.6962,0.7139,0.7139,0.7139,0.7139,0.0,0.0,0.0,0.0,0.0,0.0,0.2712,0.2712,0.2734,0.289,0.3168,0.3446,0.3704,0.4005,0.4073,0.3972,0.3727,0.3581,0.3581,0.3195,0.313,0.3543,0.4285,0.471,0.4775,0.5385,0.5698,0.5606,0.5597,0.5545,0.5406,0.5443,0.5443,0.5406,0.5666,0.6617,0.8079,0.8351,0.8935,0.9643,0.8199,0.7727,0.7821,0.0,0.0,0.0,0.0,0.0,0.0,0.0,0.0,0.0,0.0,0.0,0.0,0.0,0.0,0.0,0.0,0.0,0.0,0.0,0.0,0.0,0.0,0.0,0.0,0.0,0.0,0.0,0.0,0.0,0.0,0.0,0.5061,0.3957,0.0485,0.3013,0.5648,0.6943,0.7526,0.5744,0.0489,0.0,0.0,0.0,0.0,0.0,0.0,0.0,0.0,0.0,0.0,0.0,0.0,0.0,0.1745,0.5176,0.6514,0.7139,0.7228,1.0611,1.2863,1.4088,1.4088,1.2174,0.8965,0.7661,0.4285,0.009,0.1434,0.4018,0.7139,0.7139,0.7139,0.7139,0.0,0.0,0.0,0.0,0.0,0.0,0.2702,0.2712,0.2757,0.2968,0.3205,0.3463,0.3758,0.4009,0.404,0.3938,0.3768,0.3643,0.3585,0.3392,0.3425,0.3751,0.4496,0.49,0.4867,0.5578,0.5866,0.5677,0.5762,0.5759,0.5677,0.5677,0.5677,0.5748,0.6511,0.7583,0.8837,0.9619,1.0526,1.1296,1.0162,0.9627,0.9399,0.8724,0.833,0.8103,0.7856,0.7448,0.7248,0.8731,0.0,0.0,0.0,0.0,0.0,0.0,0.0,0.0,0.0,0.0,0.0,0.0,0.0,0.0,0.0,0.0,0.0,0.0,0.0,0.0,0.0,0.0,0.0,0.0,0.6898,0.6558,0.4128,0.5852,0.7516,0.7516,0.7824,0.5896,0.0526,0.0,0.0,0.0,0.2063,0.2383,0.0097,0.0,0.0,0.0,0.0,0.0,0.0,0.0,0.2343,0.7139,0.7139,0.7139,0.7228,0.9918,1.1128,1.1128,1.1128,0.9657,0.6962,0.491,0.2505,0.0,0.0,0.0,0.0,0.0,0.5354,0.6782,0.0,0.0,0.0,0.0,0.0,0.0,0.2668,0.2702,0.2788,0.3083,0.3256,0.3506,0.3761,0.3927,0.3909,0.3711,0.3728,0.3714,0.3588,0.3731,0.39,0.4087,0.4528,0.4904,0.5199,0.5508,0.5728,0.5854,0.5867,0.5861,0.5827,0.5861,0.5861,0.5899,0.7718,0.8774,0.9254,1.1118,1.1945,1.2024,1.2024,1.163,1.0895,0.9559,0.9312,0.9613,0.9092,0.8263,0.7903,1.1049,0.0,0.0,0.0,0.0,0.0,0.0,0.0,0.0,0.0,0.0,0.0,0.0,0.0,0.0,0.0,0.0,0.0,0.0,0.0,0.0,0.0,0.0,0.0,0.0,0.7925,0.8225,0.8764,0.8377,0.8038,0.8038,0.7491,0.5214,0.0446,0.0,0.0216,0.0811,0.5282,0.5777,0.108,0.0269,0.0,0.0,0.0,0.0,0.0,0.0,0.2148,0.6337,0.6337,0.6602,0.7139,0.7139,0.7102,0.7044,0.7112,0.6782,0.598,0.1702,-0.0359,-0.0807,-0.071,-0.0445,0.0,0.0,0.2684,0.562,0.0,0.0,0.0,0.0,0.0,0.0,0.2524,0.2634,0.2788,0.3083,0.3256,0.3506,0.3761,0.3927,0.3759,0.3139,0.3409,0.3609,0.3581,0.3829,0.4151,0.4545,0.4992,0.5369,0.5664,0.5973,0.6146,0.6173,0.6288,0.622,0.5989,0.623,0.6213,0.5993,0.7609,0.8763,0.9663,1.1109,1.2232,1.2953,1.2953,1.2305,1.1283,1.0768,1.02,0.9666,0.9552,0.9673,0.998,1.0732,0.9813,0.8464,0.8464,0.7796,0.0,0.0,0.0,0.0,0.0,0.0,0.0,0.0,0.0,0.0,0.0,0.0,0.0,0.0,0.0,0.0,0.0,0.0,0.0,1.2681,1.0063,0.8079,0.8197,0.8113,0.8038,0.8038,0.4232,0.1104,0.0112,0.0,0.1841,0.6132,0.6923,0.6809,0.5805,0.2058,0.0,0.0,0.0,0.0,0.0,0.0,0.0449,0.1344,0.1344,0.0,0.7139,0.7139,0.6878,0.6458,0.6936,0.491,0.1345,0.0359,-0.2237,-0.5673,-0.5292,-0.303,0.0,0.0,0.0539,0.0716,0.0,0.0,0.0,0.0,0.0,0.0,0.2585,0.2664,0.2761,0.2985,0.3083,0.3162,0.314,0.3214,0.299,0.2408,0.2849,0.3309,0.3676,0.4036,0.4409,0.4789,0.5304,0.5688,0.5911,0.6213,0.6366,0.6366,0.6515,0.6512,0.6369,0.6519,0.6505,0.6448,0.8263,0.9303,0.9951,1.1682,1.2724,1.3213,1.3213,1.2939,1.2485,1.2037,1.1637,1.1236,1.0735,1.0935,1.143,1.143,1.1042,1.0555,1.0555,0.9746,0.8557,0.0,0.0,0.0,0.0,0.0,0.0,0.0,0.0,0.0,0.0,0.0,0.0,0.0,0.0,0.4745,0.5637,0.0,1.33,1.0956,0.8923,0.7695,0.7997,0.8038,0.8038,0.8038,0.3214,0.0,0.0,0.0,0.1092,0.381,0.3751,0.3573,0.3573,0.1255,-0.1076,-0.3486,-0.3532,-0.3539,-0.3575,-0.3573,-0.2326,0.0,0.0,0.1255,0.3568,0.3587,0.343,0.3056,0.1222,-0.1109,-0.3573,-0.3573,-0.4999,-0.7281,-0.9386,-0.7509,-0.3573,-0.3573,-0.5058,-0.74,0.0,0.0,0.0,0.0,0.0,0.0,0.0,0.2695,0.2734,0.289,0.2835,0.2707,0.2501,0.2439,0.2267,0.1999,0.2389,0.3023,0.3808,0.4273,0.467,0.5033,0.5562,0.5928,0.6112,0.6322,0.6444,0.6471,0.6597,0.6644,0.6617,0.6705,0.6795,0.7065,0.9114,1.0126,1.0497,1.2525,1.338,1.338,1.338,1.352,1.3681,1.3193,1.3066,1.3026,1.2104,1.2004,1.2305,1.2305,1.2305,1.2305,1.2305,1.1657,1.0481,0.8337,0.5757,0.0,0.0,0.0,0.0,0.0,0.0,0.0,0.0,1.0094,1.1228,0.7261,0.6044,0.6,0.6963,1.0178,1.1477,0.7749,0.7139,0.735,0.7953,0.7132,0.6429,0.6429,0.268,0.0,0.0,0.0,0.0,0.0,0.0,-0.0359,-0.1345,-0.1344,-0.3153,-0.7128,-0.8078,-0.8009,-0.7139,-0.7139,-0.5176,-0.1344,-0.1344,-0.1344,-0.1341,-0.1309,-0.1254,-0.1488,-0.5681,-0.7717,-0.8162,-0.8388,-0.8444,-0.8877,-1.2607,-1.1821,-0.8444,-0.8444,-1.0869,-1.4088,0.0,0.0,0.0,0.0,0.0,0.0,0.0,0.0,0.2734,0.289,0.254,0.2333,0.2467,0.2114,0.2067,0.2548,0.2558,0.301,0.4107,0.449,0.4921,0.5491,0.583,0.6135,0.6417,0.6332,0.6346,0.6471,0.6488,0.6434,0.6318,0.6719,0.7253,0.8108,0.9769,1.1022,1.1934,1.3361,1.3988,1.3988,1.3988,1.4008,1.4035,1.3961,1.3948,1.3874,1.324,1.2705,1.2305,1.2305,1.2305,1.2305,1.2305,1.2211,1.185,1.0548,0.7083,0.3931,0.5528,0.5638,0.5416,0.6478,0.7701,0.8883,0.0,1.1276,1.1276,0.7773,0.699,0.6983,0.7115,0.7489,0.7749,0.7228,0.7139,0.735,0.7953,0.392,0.0908,0.0908,0.0323,0.0,0.0,0.0,0.0,0.0,0.0,-0.188,-0.6068,-0.6337,-0.6832,-0.7825,-1.1384,-1.1305,-0.7139,-0.7139,-0.6871,-0.6337,-0.6337,-0.6337,-0.6316,-0.5791,-0.5631,-0.5783,-0.9879,-1.1689,-1.1803,-1.289,-1.33,-1.3392,-1.3913,-1.3737,-1.33,-1.33,-1.3652,-1.4088,0.0,0.0,0.0,0.0,0.0,0.0,0.0,0.0,0.0,0.1966,0.1814,0.1605,0.1451,0.1275,0.1452,0.2123,0.2374,0.2953,0.4023,0.4558,0.5013,0.544,0.5911,0.6261,0.6468,0.6413,0.6458,0.6607,0.6607,0.662,0.6654,0.6841,0.7495,0.8636,0.9976,1.1161,1.2265,1.3594,1.4088,1.4088,1.4088,1.4088,1.4068,1.3895,1.3935,1.4055,1.3808,1.3561,0.0,1.0962,1.1176,1.2305,1.2305,1.2305,1.2204,1.1717,0.8017,0.4388,0.5504,0.5363,0.5106,0.5895,0.8473,1.1149,1.2338,1.2993,1.3086,1.2287,0.9707,0.7556,0.7204,0.7139,0.7139,0.7139,0.7434,0.7753,0.8004,0.3419,0.0,0.0,-0.2791,-0.3472,-0.0317,-0.2868,-0.4538,-0.4146,-0.4097,-0.4999,-0.6962,-0.7139,-0.8492,-1.1429,-1.3194,-1.313,-1.1219,-0.8444,-0.7139,-0.7139,-0.7139,-0.7139,-0.7119,-0.8974,-1.0191,-1.0969,-1.2605,-1.334,-1.338,-1.3881,-1.4088,-1.4088,-1.4088,-1.4088,-1.4088,-1.4088,-1.5711,-1.7891,0.0,0.0,0.0,0.0,0.0,0.0,0.0,0.0,0.0,0.0,0.1195,0.1022,0.0742,0.0784,0.1162,0.1865,0.2361,0.304,0.3932,0.4766,0.537,0.5734,0.6542,0.7026,0.7186,0.7001,0.6947,0.7109,0.6864,0.6756,0.6865,0.7243,0.8088,0.9325,1.058,1.1729,1.2851,1.373,1.4088,1.4088,1.4088,1.4041,1.3921,1.354,1.3581,1.3848,1.3848,1.3948,1.3594,1.0374,1.0421,1.1824,1.1824,1.1824,1.155,1.0292,0.7432,0.4828,0.5102,0.4975,0.4917,0.5525,0.9285,1.3106,1.4295,1.4569,1.481,1.5651,1.2506,0.952,0.9151,0.8009,0.7139,0.7139,0.7645,0.7434,0.6024,0.2415,0.0,0.0,-0.4576,-0.623,-0.2341,-0.5451,-0.7611,-0.7173,-0.7139,-0.7139,-0.7139,-0.8356,-1.0611,-1.3997,-1.4088,-1.4088,-1.4088,-1.0697,-0.9052,-0.9052,-0.9052,-0.9052,-0.9118,-1.1638,-1.3267,-1.4088,-1.4088,-1.4088,-1.4088,-1.4088,-1.4088,-1.4088,-1.4088,-1.4088,-1.4088,-1.4088,-1.6116,-1.8789,0.0,0.0,0.0,0.0,0.0,0.0,0.0,0.0,0.0,0.0,0.0,0.0,0.0,0.1041,0.1509,0.2131,0.2731,0.3333,0.3982,0.5249,0.6194,0.6628,0.7962,0.8837,0.8988,0.8342,0.8058,0.8164,0.7188,0.6702,0.6709,0.8022,0.9279,1.0376,1.1702,1.2942,1.4082,1.4088,1.4088,1.4088,1.4088,1.3915,1.3594,1.2999,1.2966,1.324,1.324,1.3607,1.3721,1.1316,1.0618,1.0678,1.0678,1.0678,0.9788,0.5216,0.4563,0.5274,0.47,0.4965,0.5549,0.6156,1.0165,1.4335,1.5511,1.5772,1.5785,1.5818,1.4834,1.3867,1.3919,1.0178,0.7139,0.7139,0.7645,0.6226,0.1008,0.0101,0.0,0.0,-0.4212,-0.7078,-0.6897,-0.6989,-0.716,-0.7143,-0.7139,-0.7139,-0.7139,-1.1391,-1.3913,-1.4088,-1.4088,-1.4088,-1.4088,-1.3997,-1.3913,-1.3913,-1.3913,-1.3913,-1.3913,-1.3964,-1.4055,-1.4088,-1.4088,-1.4088,-1.4088,-1.4088,-1.4088,-1.4088,-1.4088,-1.4088,-1.4088,-1.4088,-1.4166,-1.4334,0.0,0.0,0.0,0.0,0.0,0.0,0.0,0.0,0.0,0.0,0.0,0.0,0.0,0.0,0.0,0.0,0.2652,0.3191,0.3697,0.4397,0.5214,0.6087,0.7021,0.784,0.8481,0.8541,0.8599,0.8815,0.8585,0.8564,0.881,0.9066,0.9994,1.1443,1.1867,1.2671,1.3808,1.4001,1.4088,1.4055,1.3661,1.3447,1.3287,1.2679,1.2271,1.2078,0.0,1.1737,1.0461,0.9666,0.8871,0.835,0.9145,0.8851,0.7747,0.5494,0.4824,0.4869,0.5068,0.5783,0.659,0.6793,0.8185,0.9691,1.0491,1.3295,1.5611,1.4836,1.4362,1.4088,1.4088,1.0265,0.7139,0.7139,0.7645,0.6126,0.0706,0.0,0.0,0.0,-0.4198,-0.7139,-0.7139,-0.7139,-0.7139,-0.7139,-0.7139,-0.7139,-0.7139,-1.1563,-1.4088,-1.4088,-1.4088,-1.4088,-1.4088,-1.4088,-1.4088,-1.4088,-1.4088,-1.4088,-1.4088,-1.4088,-1.4088,-1.4088,-1.4088,-1.4088,-1.4088,-1.4088,-1.3621,-1.2986,-1.3781,-1.4088,-1.4088,-1.4088,-1.4088,-1.4088,0.0,0.0,0.0,0.0,0.0,0.0,0.0,0.0,0.0,0.0,0.0,0.0,0.0,0.0,0.0,0.0,0.0,0.3052,0.3392,0.4306,0.5165,0.5892,0.7079,0.8009,0.8549,0.8591,0.8687,0.8836,0.8712,0.8822,0.9242,0.9561,1.0346,1.1461,1.1956,1.2523,1.3186,1.348,1.3346,1.2792,1.242,1.1845,1.1143,1.1051,1.0914,0.0,1.0989,0.9813,0.817,0.817,0.7662,0.7111,0.7923,0.7642,0.6765,0.5444,0.4979,0.5023,0.5776,0.6556,0.7139,0.7139,0.7139,0.7299,0.7902,1.0574,1.3208,1.3972,1.4088,1.3483,1.1382,0.8564,0.6062,0.4773,0.4853,0.3898,0.0503,0.0,-0.0628,-0.2326,-0.5265,-0.7139,-0.7139,-0.7139,-0.7139,-0.7139,-0.7139,-0.7139,-0.7139,-1.0005,-1.1563,-1.1563,-1.1563,-1.1563,-1.1563,-1.1563,-1.2431,-1.4088,-1.4088,-1.4088,-1.4088,-1.4088,-1.4088,-1.4088,-1.4088,-1.4088,-1.4055,-1.3627,-1.2993,-1.2378,-1.3146,-1.3447,-1.35,-1.3928,-1.4088,-1.4088,0.0,0.0,0.0,0.0,0.0,0.0,0.0,0.0,0.0,0.0,0.0,0.0,0.0,0.0,0.0,0.0,0.0,0.0,0.3062,0.4852,0.5975,0.6144,0.8038,0.9097,0.9117,0.8676,0.846,0.8471,0.7892,0.7806,0.8168,0.9493,1.0231,1.0638,1.2022,1.2458,1.2211,1.2505,1.1853,1.0485,1.0461,0.9222,0.7491,0.8342,0.9008,0.9374,0.877,0.7791,0.6852,0.6979,0.6979,0.6992,0.7052,0.698,0.6576,0.5018,0.4996,0.5661,0.6824,0.7139,0.7139,0.7139,0.7139,0.7288,0.7862,0.8188,0.9452,1.3343,1.3904,1.1994,0.6451,0.5226,0.4011,0.0518,0.0,0.0,0.0,-0.0188,-0.2059,-0.6602,-0.7139,-0.7139,-0.7139,-0.7139,-0.7139,-0.7139,-0.7139,-0.7139,-0.7139,-0.7139,-0.7139,-0.7139,-0.7139,-0.7139,-0.7139,-0.7139,-0.9483,-1.4088,-1.4088,-1.4088,-1.4088,-1.4088,-1.4088,-1.4088,-1.4088,-1.4088,-1.3995,-1.2792,-1.2305,-1.2305,-1.2305,-1.2338,-1.2532,-1.3906,-1.4412,-1.4412,0.0,0.0,0.0,0.0,0.0,0.0,0.0,0.0,0.0,0.0,0.0,0.0,0.0,0.0,0.0,0.0,0.0,0.0,0.2954,0.3836,0.4678,0.5339,0.6493,0.7485,0.8207,0.8519,0.8794,0.8998,0.9104,0.9291,0.9554,0.9737,0.995,1.0219,1.0619,1.0742,1.0631,1.0507,1.0019,0.919,0.8305,0.7421,0.6501,0.6251,0.6281,0.6268,0.5291,0.4744,0.4748,0.6422,0.6979,0.7181,0.807,0.6855,0.5144,0.5135,0.5628,0.6193,0.6939,0.7139,0.7139,0.7139,0.7139,0.718,0.7333,1.0055,1.2844,1.3887,1.0655,0.7185,0.5681,0.3215,0.1096,0.0145,0.0,0.0,0.0,-0.3045,-0.5711,-0.6959,-0.7139,-0.7139,-0.7139,-0.7139,-0.7139,-0.7139,-0.7139,-0.7139,-0.7139,-0.7139,-0.7139,-0.7139,-0.7139,-0.7139,-0.7139,-0.7139,-0.9483,-1.4088,-1.4088,-1.4088,-1.4088,-1.4088,-1.4088,-1.4088,-1.4088,-1.4088,-1.3995,-1.2792,-1.2305,-1.2305,-1.2305,-1.2846,-1.4062,-1.7666,-1.8939,-1.8461,0.0,0.0,0.0,0.0,0.0,0.0,0.0,0.0,0.0,0.0,0.0,0.0,0.0,0.0,0.0,0.0,0.0,0.0,0.0,0.3409,0.3998,0.4387,0.5246,0.5993,0.6582,0.6994,0.7222,0.7313,0.7713,0.809,0.8304,0.833,0.8509,0.8774,0.8891,0.8878,0.8786,0.8747,0.7984,0.0,0.0,0.5147,0.399,0.3834,0.3424,0.2891,0.2257,0.2682,0.3839,0.5377,0.6742,0.7804,0.7701,0.6595,0.5384,0.5727,0.6179,0.6719,0.7051,0.5534,0.4465,0.6602,0.7139,0.7139,0.7139,0.8967,1.0573,1.0313,0.7668,0.4891,0.3349,0.0067,-0.2561,-0.303,-0.3149,-0.313,-0.3133,-0.5633,-0.7536,-0.7536,-0.7536,-0.7536,-0.7536,-0.7536,-0.8238,-1.0033,-0.8269,-0.7139,-0.7139,-0.7139,-0.7139,-0.7139,-0.7139,-0.7139,-0.7139,-0.9135,-1.1477,-1.4088,-1.4088,-1.4088,-1.4088,-1.4088,-1.4088,-1.4088,-1.4088,-1.4088,-1.4035,-1.336,-1.2779,-1.2305,-1.2305,-1.3744,-1.6228,-1.9406,-2.0566,-2.0245,0.0,0.0,0.0,0.0,0.0,0.0,0.0,0.0,0.0,0.0,0.0,0.0,0.0,0.0,0.0,0.0,0.0,0.0,0.0,0.0,0.353,0.3366,0.4202,0.4692,0.4755,0.4899,0.4964,0.492,0.5349,0.5689,0.5845,0.6187,0.6545,0.6832,0.709,0.7084,0.6886,0.7031,0.602,0.4263,0.4215,0.2976,0.1208,0.0,0.0895,0.0045,0.0359,0.1834,0.3683,0.4409,0.6327,0.8229,0.683,0.6376,0.6376,0.6376,0.6739,0.6962,0.6337,0.3129,0.1166,0.5891,0.7139,0.7119,0.7041,0.6505,0.5947,0.5415,0.4973,0.3701,0.0549,-0.2978,-0.5752,-0.6946,-0.7139,-0.7139,-0.7139,-0.759,-0.795,-0.8031,-0.8038,-0.8233,-0.9015,-0.9015,-1.0196,-1.3063,-0.9979,-0.8009,-0.8009,-0.7401,-0.7139,-0.7139,-0.7139,-0.7139,-0.7139,-1.1735,-1.4088,-1.4088,-1.4088,-1.4088,-1.4088,-1.4088,-1.4088,-1.4088,-1.4088,-1.4088,-1.4088,-1.4088,-1.338,-1.2378,-1.2879,-1.5199,-1.8525,-2.0019,-2.0566,-2.0566,0.0,0.0,0.0,0.0,0.0,0.0,0.0,0.0,0.0,0.0,0.21,0.2254,0.0,0.0,0.0,0.0,0.0,0.0,0.0,0.0,0.0,0.2591,0.3238,0.3677,0.3907,0.4326,0.4651,0.492,0.4999,0.5058,0.5102,0.5143,0.5296,0.5471,0.5508,0.5569,0.558,0.5116,0.4426,0.3619,0.3176,0.2258,0.1119,0.0538,0.0,0.0,0.2279,0.3265,0.3744,0.4896,0.5874,0.6734,0.6934,0.6987,0.6987,0.6987,0.7058,0.6245,0.2326,0.0628,0.1166,0.5891,0.7139,0.701,0.6525,0.5562,0.4803,0.4697,0.2695,0.0761,0.0151,-0.2988,-0.5752,-0.6946,-0.7139,-0.7139,-0.7139,-0.7231,-0.7482,-0.798,-0.8038,-0.9698,-1.4076,-1.4459,-1.2934,-0.9332,-1.1478,-1.2869,-1.2869,-0.9226,-0.7139,-0.7139,-0.7139,-0.7139,-0.7139,-1.1735,-1.4088,-1.4088,-1.4088,-1.4088,-1.4088,-1.4088,-1.4088,-1.4088,-1.4088,-1.4088,-1.4088,-1.4088,-1.338,-1.2586,-1.579,-1.8275,-2.0156,-2.0459,-2.0566,-2.0566,0.0,0.0,0.0,0.0,0.0,0.0,0.0,0.1964,0.2065,0.2249,0.2303,0.2403,0.2476,0.262,0.2651,0.0,0.0,0.0,0.0,0.0,0.0,0.0,0.2067,0.2314,0.2447,0.2772,0.31,0.3381,0.0,0.3725,0.386,0.3918,0.3889,0.3731,0.3731,0.3773,0.378,0.3489,0.3423,0.3517,0.3255,0.2499,0.1386,0.0,0.0,0.0,0.2726,0.3581,0.367,0.4295,0.5315,0.6366,0.6953,0.7139,0.7139,0.7139,0.7139,0.6068,0.1255,0.0,0.1166,0.5891,0.7139,0.6383,0.3674,0.2552,0.2176,0.2176,0.0991,0.0,0.0,-0.1391,-0.2775,-0.3291,-0.5468,-0.7139,-0.7139,-0.9226,-1.0051,-0.8259,-0.8038,-1.0087,-1.5248,-1.5832,-1.4752,-1.2226,-1.329,-1.4088,-1.4088,-1.1997,-0.9657,-0.7139,-0.9483,-1.0783,-1.0783,-1.2954,-1.4088,-1.4088,-1.4088,-1.4088,-1.4088,-1.4088,-1.4088,-1.4088,-1.4088,-1.4088,-1.4088,-1.4088,-1.338,-1.2506,-1.5025,-1.7888,-2.0566,-2.0566,-2.0566,-2.0566,0.0,0.0,0.0,0.0,0.0,0.0,0.0,0.2089,0.2299,0.255,0.2612,0.2645,0.2681,0.2705,0.264,0.0,0.0,0.0,0.0,0.0,0.0,0.0,0.0,0.0,0.1171,0.0,0.0,0.1843,0.2125,0.0,0.0,0.0,0.0,0.0,0.231,0.2327,0.2419,0.2419,0.2716,0.0,0.0,0.3037,0.2097,0.0,0.0,0.0,0.0,0.3581,0.3581,0.3581,0.4518,0.5789,0.638,0.6742,0.6953,0.6953,0.625,0.4732,0.0987,0.0,0.0897,0.4641,0.5545,0.4561,0.0819,-0.0482,-0.095,-0.095,-0.0425,0.0,0.0,0.0,0.0,0.0,-0.3766,-0.6715,-0.6586,-1.0918,-1.2913,-0.9685,-0.8419,-0.9429,-1.3759,-1.4929,-1.5458,-1.5458,-1.4609,-1.4088,-1.4088,-1.4088,-1.2431,-0.8703,-1.2169,-1.4088,-1.4088,-1.4088,-1.4088,-1.4088,-1.4088,-1.4088,-1.4088,-1.4088,-1.4088,-1.4088,-1.4088,-1.4088,-1.4088,-1.4088,-1.3534,-1.2849,-1.4748,-1.7568,-2.0566,-2.0566,-2.0566,-2.0566,0.0,0.0,0.0,0.0,0.0,0.0,0.0,0.2382,0.2819,0.2854,0.2984,0.3093,0.3216,0.2896,0.2567,0.0,0.0,0.0,0.0,0.0,0.0,0.0,0.0,0.0,0.0,0.0,0.0,0.137,0.1386,0.0,0.0,0.0,0.0,0.0,0.0,0.195,0.2419,0.2419,0.0,0.0,0.0,0.0,0.0,0.0,0.0,0.0,0.0,0.3581,0.3581,0.3581,0.369,0.3931,0.4577,0.546,0.6342,0.6342,0.3615,0.0539,0.009,0.0,0.009,0.0539,0.0677,0.0529,0.0121,-0.2138,-0.407,-0.407,-0.1916,0.0,0.0,0.0,0.0,0.0,-0.3135,-0.5332,-0.4845,-1.0121,-1.3952,-1.3617,-0.9768,-0.7618,-0.8568,-1.2122,-1.4249,-1.4249,-1.4148,-1.4088,-1.4088,-1.4088,-1.3913,-1.3476,-1.3913,-1.4088,-1.4088,-1.4088,-1.4088,-1.4088,-1.4088,-1.4088,-1.4088,-1.4088,-1.4088,-1.4088,-1.4088,-1.4088,-1.4088,-1.4088,-1.4021,-1.4338,-1.8399,-2.0245,-2.0566,-2.0566,-2.0566,-2.0566,0.0,0.0,0.0,0.0,0.0,0.0,0.2114,0.2416,0.2703,0.2973,0.3059,0.3051,0.2955,0.2786,0.2565,0.2221,0.0,0.0,0.0,0.0,0.0,0.0,0.0,0.0,0.0,0.0,0.0655,0.0946,0.0926,0.0,0.0,0.0,0.0,0.0,0.0,0.0813,0.0438,0.0803,0.0,0.0,0.0,0.0,0.0,0.0,0.0,0.0,0.0,0.0,0.3581,0.3581,0.3581,0.3622,0.3904,0.3298,0.249,0.2526,0.1288,0.0,0.0,0.0,0.0,0.0,-0.193,-0.3695,-0.3312,-0.3893,-0.4519,-0.4519,-0.3566,-0.2154,-0.036,0.0,0.0,0.0,-0.3011,-0.5343,-0.5099,-1.0254,-1.3194,-1.07,-1.1595,-1.1051,-0.7784,-1.2129,-1.4843,-1.4142,-1.4088,-1.4088,-1.4088,-1.4088,-1.4088,-1.4088,-1.4088,-1.4088,-1.4088,-1.4088,-1.4088,-1.4088,-1.4088,-1.4088,-1.4088,-1.4088,-1.4088,-1.4088,-1.4088,-1.4088,-1.4088,-1.4088,-1.4088,-1.4489,-1.8859,-2.0566,-2.0566,-2.0566,-2.0566,-2.0566,0.0,0.0,0.0,0.0,0.0,0.1927,0.2279,0.2485,0.274,0.3164,0.3215,0.313,0.2901,0.2769,0.2554,0.2238,0.233,0.0,0.0,0.0,0.0,0.0,0.0,0.0,0.0,0.0,0.0173,0.0477,0.0487,0.0656,0.0,0.0,0.0781,0.0484,0.0,0.0,0.0,0.0,0.0,0.0,0.0,0.0,0.0,0.0,0.0,0.0,0.0,0.0,0.0,0.0,0.0,0.2549,0.2549,0.1387,0.0,0.0,0.0,0.0,0.0,0.0,-0.0359,-0.1792,-0.4187,-0.6084,-0.5116,-0.47,-0.4519,-0.4519,-0.4519,-0.3846,-0.173,-0.0616,0.0,0.0,-0.304,-0.5428,-0.5428,-1.0093,-1.2499,-0.9631,-1.3128,-1.4037,-0.956,-1.2907,-1.497,-1.4148,-1.4088,-1.4088,-1.4088,-1.5304,-1.547,-1.4173,-1.4088,-1.4088,-1.4088,-1.4088,-1.4088,-1.4088,-1.4088,-1.4088,-1.4088,-1.4088,-1.4088,-1.4088,-1.4088,-1.4088,-1.4088,-1.4088,-1.4817,-1.6363,-1.9423,-2.0566,-2.0566,-2.0566,-2.0566,-2.0566,0.0,0.0,0.0,0.0,0.0,0.0,0.2154,0.2702,0.3176,0.3447,0.3495,0.3447,0.3296,0.2932,0.2554,0.2238,0.2211,0.0,0.0,0.0,0.0,0.0,0.0,0.0,0.0,0.0,0.0,0.0,0.0,0.0,0.0,0.0,0.0,0.0,0.0,0.0,0.0,0.0,0.0,0.0,0.0,0.0,0.0,0.0,0.0,0.0,0.0,0.0,0.0,0.0,0.0,0.0,0.0,0.0,0.0,0.0,0.0,0.0,0.0,0.0,-0.1166,-0.5888,-0.6695,-0.5793,-0.4005,-0.4096,-0.4519,-0.4519,-0.4519,-0.4519,-0.446,-0.2009,0.0,0.0,-0.304,-0.5428,-0.5428,-0.9368,-1.2325,-1.2264,-1.4316,-1.5371,-1.411,-1.4095,-1.4102,-1.4088,-1.4088,-1.4088,-1.4088,-1.8212,-1.8541,-1.425,-1.4088,-1.4088,-1.4088,-1.4088,-1.4088,-1.4088,-1.4088,-1.4088,-1.4088,-1.4088,-1.4088,-1.4088,-1.4088,-1.4088,-1.4088,-1.4088,-1.6601,-2.0566,-2.0566,-2.0566,-2.0566,-2.0566,-2.0566,-2.0566,0.0,0.0,0.0,0.0,0.0,0.0,0.0,0.2979,0.319,0.3463,0.3507,0.3338,0.2931,0.2856,0.2668,0.2228,0.2327,0.0,0.0,0.0,0.0,0.0,0.0,0.0,0.0,0.0,0.0,0.0,0.0,0.0,0.0,0.0,0.0,0.0,0.0,0.0,0.0,0.0,0.0,0.0,0.0,0.0,-0.3581,0.0,0.0,0.0,0.0,0.0,0.0,0.0,0.0,0.0,0.0,0.0,0.0,-0.246,-0.1296,0.0,0.0,-0.2416,-0.5176,-0.6694,-0.6698,-0.5967,-0.4556,-0.4381,-0.4519,-0.4519,-0.4519,-0.4519,-0.4519,-0.3735,-0.3067,-0.3067,-0.4041,-0.5783,-0.8579,-1.0925,-1.2305,-1.2305,-1.2966,-1.2451,-1.0126,-1.2491,-1.4088,-1.4088,-1.4088,-1.4088,-1.4088,-1.8212,-1.9991,-1.8621,-1.5628,-1.4088,-1.4088,-1.4088,-1.4088,-1.4088,-1.4088,-1.4088,-1.4088,-1.4088,-1.4088,-1.4088,-1.4088,-1.4088,-1.4088,-1.4088,-1.6683,-2.0566,-2.0566,-2.0566,-2.0566,-2.0566,-2.0566,-2.0566,0.0,0.0,0.0,0.0,0.0,0.0,0.0,0.2939,0.3046,0.3309,0.3351,0.3132,0.2567,0.2688,0.2651,0.2228,0.2422,0.0,0.0,0.0,0.0,0.0,0.0,0.0,0.0,0.0,0.0,0.0,0.0,0.0,0.0,0.0,0.0,0.0,0.0,0.0,0.0,0.0,0.0,0.0,0.0,0.0,-0.3581,0.0,0.0,0.0,0.0,0.0,0.0,0.0,0.0,0.0,0.0,0.0,0.0,0.0,-0.3199,-0.1368,-0.1353,-0.3551,-0.585,-0.6074,-0.5684,-0.5174,-0.4639,-0.4519,-0.4519,-0.4519,-0.4519,-0.4519,-0.4519,-0.4519,-0.4519,-0.4519,-0.4711,-0.6349,-1.0638,-1.1844,-1.2632,-1.3527,-1.3634,-1.2899,-1.1153,-1.144,-1.2409,-1.3946,-1.4088,-1.4088,-1.4088,-1.6683,-1.8859,-2.0557,-1.6363,-1.4088,-1.4088,-1.4088,-1.4088,-1.4088,-1.4088,-1.4088,-1.4088,-1.4088,-1.4088,-1.4088,-1.4088,-1.4088,0.0,-1.4088,-1.6683,-2.0566,-2.0566,-2.0566,-2.0566,-2.0566,-2.0566,-2.0566,0.0,0.0,0.0,0.0,0.0,0.0,0.0,0.2697,0.2789,0.3046,0.3068,0.2848,0.2259,0.2482,0.2543,0.2235,0.0,0.0,0.0,0.0,0.0,0.0,0.0,0.0,0.0,0.0,0.0,0.0,0.0,0.0,0.0,0.0,0.0,0.0,0.0,0.0,0.0,0.0,0.0,0.0,0.0,0.0,0.0,0.0,0.0,0.0,0.0,0.0,0.0,0.0,0.0,0.0,0.0,0.0,0.0,0.0,0.0,0.0,0.0,-0.3742,-0.3822,-0.4378,-0.41,-0.3832,-0.4391,-0.4519,0.0,-0.4519,-0.4519,-0.4519,-0.4519,-0.4519,-0.4691,-0.5167,-0.554,-0.7328,-1.1687,-1.2736,-1.3753,-1.5565,-1.5832,-1.5832,-1.5832,-1.1448,-1.0061,-1.3822,-1.4088,-1.4088,-1.4088,-1.4088,-1.5959,-1.9991,-1.6198,-1.425,-1.4573,-1.4573,-1.4573,-1.4573,-1.425,-1.4088,-1.4088,-1.4088,-1.4088,-1.4088,-1.4088,-1.4088,-1.4088,-1.4412,-1.6927,-2.0566,-2.0566,-2.0566,-2.0566,-2.0566,-2.0566,-2.0566,0.0,0.0,0.0,0.0,0.0,0.0,0.0,0.0,0.0,0.0,0.2783,0.2632,0.2237,0.2355,0.2392,0.0,0.0,0.0,0.0,0.0,0.0,0.0,0.0,0.0,0.0,0.0,0.0,0.0,0.0,0.0,0.0,0.0,0.0,0.0,0.0,0.0,0.0,0.0,0.0,0.0,0.0,0.0,0.0,0.0,0.0,0.0,-0.3581,-0.3581,0.0,0.0,0.0,0.0,0.0,0.0,0.0,0.0,-0.6634,-0.6209,-0.6209,0.0,-0.434,-0.4481,-0.4412,-0.4343,0.0,-0.4519,-0.4519,-0.4519,-0.4519,-0.4519,-0.4519,-0.4519,-0.6309,-1.1955,-1.0901,-1.0091,-1.1985,-1.7062,-1.9418,-1.6223,-1.5832,-1.5832,-1.5832,-1.4657,-1.4019,-1.409,-1.4088,-1.4088,-1.4088,-1.4088,-1.458,-1.5636,-1.4657,-1.5711,-1.9027,-1.9107,-1.9107,-1.9027,-1.5711,-1.4088,-1.4088,-1.4088,-1.4088,-1.4088,-1.4088,-1.4088,-1.4334,-1.773,-1.9668,-2.0566,-2.0566,-2.0566,-2.0566,-2.0566,-2.0566,-2.0566,0.0,0.0,0.0,0.0,0.0,0.0,0.0,0.0,0.0,0.0,0.0,0.0,0.0,0.0,0.0,0.0,0.0,0.0,0.0,0.0,0.0,0.0,0.0,0.0,0.0,0.0,0.0,0.0,0.0,0.0,0.0,0.0,0.0,0.0,0.0,0.0,0.0,0.0,0.0,0.0,0.0,0.0,0.0,0.0,0.0,0.0,-0.1967,-0.1967,0.0,-0.322,-0.3581,-0.3581,0.0,0.0,0.0,0.0,-0.6979,-0.6979,-0.6979,-0.6339,-0.5623,-0.5623,-0.4844,-0.411,-0.411,-0.411,-0.411,-0.411,-0.411,-0.4594,-0.6182,-0.6909,-0.9076,-1.451,-1.3957,-1.3598,-1.5774,-1.8237,-1.8756,-1.6103,-1.487,-1.4636,-1.5725,-1.5832,-1.5565,-1.493,-1.4389,-1.4088,-1.4088,-1.4088,-1.4088,-1.4088,-1.4088,-1.6198,-2.0566,-2.0566,-2.0566,-2.0566,-1.8212,-1.6034,-1.4088,-1.4088,-1.4088,-1.4088,-1.4088,-1.4088,-1.4412,-1.878,-2.0566,-2.0566,-2.0566,-2.0566,-2.0566,-2.0566,-2.0566,-2.0566,0.0,0.0,0.0,0.0,0.0,0.0,0.0,0.0,0.0,0.0,0.0,0.0,0.0,0.0,0.0,0.0,0.0,0.0,0.0,0.0,0.0,0.0,0.0847,0.0094,0.0,0.0,0.0,0.0,0.0,0.0,0.0,0.0,0.0,0.0,0.0373,0.0538,0.0,0.0,0.0,0.0,0.0135,0.0,0.0,0.0,0.0,0.0,0.0,0.0,0.0,-0.2773,-0.3581,-0.3581,-0.3581,0.0,0.0,0.0,0.0,0.0,-0.6979,-0.6979,-0.7025,-0.7248,-0.5823,-0.4365,-0.4168,-0.41,-0.41,-0.41,-0.41,-0.5084,-0.8216,-0.9766,-1.1722,-1.5204,-1.6547,-1.7805,-1.9944,-1.7875,-1.6182,-1.6182,-1.4159,-1.3627,-1.5638,-1.5832,-1.5832,-1.5832,-1.411,-1.3039,-1.3039,-1.3737,-1.4088,-1.4088,-1.4088,-1.6198,-2.0566,-2.0566,-2.0566,-2.0566,-2.0566,-1.87,-1.5061,-1.4412,-1.4088,-1.4173,-1.4817,-1.4741,-1.4412,-1.878,-2.0566,-2.0566,-2.0566,-2.0566,-2.0566,-2.0566,-2.0566,-2.0566,0.0,0.0,0.0,0.0,0.0,0.0,0.0,0.0,0.0,0.0,0.0,0.0,0.0,0.0,0.0,0.0,0.0,0.0,0.0,0.0,0.0,0.2044,0.1213,0.0532,0.0,0.0,0.0,0.0,0.0,0.0,0.0,0.0,0.0,0.0102,0.2149,0.3043,0.3043,0.3043,0.0,0.0,0.0807,0.0,0.0,0.0,0.0,0.0,0.0,0.0,0.0,-0.2773,-0.3581,-0.3581,-0.3581,0.0,0.0,0.0,0.0,0.0,-0.6979,-0.6979,-0.7268,-0.8277,-0.8274,-0.771,-0.6718,-0.6465,-0.6465,-0.6465,-0.6465,-0.6937,-0.8532,-0.9766,-1.2146,-1.6826,-2.1654,-2.3276,-1.8993,-1.7967,-1.7677,-1.7677,-1.6278,-1.5431,-1.5792,-1.5832,-1.5832,-1.5832,-1.1015,-0.8181,-0.8181,-1.1912,-1.4088,-1.4088,-1.4088,-1.6198,-2.0566,-2.0566,-2.0566,-2.0566,-2.0566,-2.0245,-1.9511,-1.5794,-1.4088,-1.4334,-1.7971,-1.7488,-1.4412,-1.878,-2.0566,-2.0566,-2.0566,-2.0566,-2.0566,-2.0566,-2.0566,-2.0566,0.0,0.0,0.0,0.0,0.0,0.0,0.0,0.0,0.0,0.0,0.0,0.0,0.0,0.0,0.0,0.0,0.0,0.0,0.0,0.0,0.2347,0.238,0.1444,0.084,0.0704,0.0235,0.0,0.0,0.0,0.0,0.0,0.0,0.0,0.0034,0.115,0.2371,0.3581,0.3581,0.0,0.0,0.0,0.0,0.0,0.0,0.0,0.0,0.0,0.0,0.0,0.0,-0.3581,-0.3581,-0.3581,0.0,0.0,0.0,0.0,0.0,-0.6677,-0.7495,-0.827,-0.9459,-0.971,-0.969,-1.008,-0.8524,-0.7201,-0.7856,-0.7989,-0.8877,-1.1839,-1.3621,-1.5331,-1.76,-2.2788,-2.6005,-2.4557,-2.1481,-1.9736,-2.0674,-1.933,-1.8709,-1.9678,-1.8954,-1.7463,-1.5061,-1.2435,-1.0869,-1.0869,-1.2954,-1.4088,-1.4088,-1.6355,-1.8541,-2.0566,-2.0566,-2.0566,-2.0566,-2.0566,-2.0566,-2.0557,-1.8541,-1.7649,-1.773,-1.9747,-1.9432,-1.773,-1.9747,-2.0566,-2.0566,-2.0566,-2.0566,-2.0566,-2.0566,-2.0566,-2.0566,0.0,0.0,0.0,0.0,0.0,0.0,0.0,0.0,0.0,0.0,0.0,0.0,0.0,0.0,0.0,0.0,0.0,0.0,0.0,0.2314,0.2247,0.248,0.1744,0.1408,0.164,0.057,0.0219,0.0633,0.0211,0.0,0.0,0.0,0.0,0.0,0.0,0.1023,0.2771,0.2771,0.17,0.0,0.0,0.0,0.0,0.0,0.0,0.0,0.0,0.0,0.0,0.0,0.0,0.0,0.0,0.0,0.0,-0.4228,-0.4403,-0.4787,-0.6507,-0.7689,-0.8671,-0.9853,-1.0568,-1.124,-1.2578,-1.0854,-0.9234,-1.0174,-1.0331,-1.1406,-1.4754,-1.7168,-1.874,-1.915,-2.286,-2.6661,-2.9387,-2.5707,-2.3213,-2.4556,-2.2603,-2.1523,-2.2451,-2.1338,-1.9186,-1.5869,-1.5628,-1.5144,-1.4166,-1.4088,-1.458,-1.5545,-1.8859,-2.0566,-2.0566,-2.0566,-2.1088,-2.1962,-2.1962,-2.1962,-2.1973,-2.1011,-2.0566,-2.0566,-2.0566,-2.0566,-2.0566,-2.0566,-2.0566,-2.0566,-2.0566,-2.0566,-2.0566,-2.0566,-2.0566,-2.0566,0.0,0.0,0.0,0.0,0.0,0.0,0.0,0.0,0.0,0.0,0.0,0.0,0.0,0.0,0.0,0.0,0.0,0.0,0.0,0.2414,0.2414,0.1878,0.2311,0.258,0.2613,0.0904,0.0811,0.2503,0.0823,0.0,0.0,0.0,0.0,0.0,0.0,0.0089,0.0269,0.0269,0.018,0.0,0.0,0.0,0.0,0.0,0.0,0.0,0.0,0.0,0.0,0.0,0.0,0.0,0.0,0.0,-0.4012,-0.6118,-0.6761,-0.6803,-0.6937,-0.7081,-0.7435,-0.8637,-1.0838,-1.2725,-1.2852,-1.3888,-1.484,-1.4898,-1.4926,-1.5023,-1.5332,-1.8135,-2.0908,-2.251,-2.312,-2.4903,-2.9184,-2.9409,-2.9192,-2.9275,-2.5511,-2.2373,-2.0889,-2.0635,-2.0479,-2.0157,-2.0157,-1.8381,-1.4334,-1.4088,-1.5959,-1.9991,-2.0401,-2.0566,-2.0566,-2.0566,-2.2403,-2.6094,-2.6094,-2.6094,-2.5943,-2.2264,-2.0566,-2.0566,-2.0566,-2.0566,-2.0566,-2.0566,-2.0566,-2.0566,-2.0566,-2.0566,-2.0566,-2.0566,-2.0566,-2.0566,0.0,0.0,0.0,0.0,0.0,0.0,0.0,0.0,0.0,0.0,0.0,0.0,0.0,0.0,0.0,0.0,0.0,0.0,0.0,0.2613,0.2613,0.238,0.1507,0.154,0.2679,0.2042,0.2009,0.2712,0.164,0.0742,0.0,0.0,0.0,0.0,0.0,0.0,0.0,0.0,0.0,-0.0135,-0.1655,0.0,0.0,0.0,0.0,0.0,0.0,0.0,0.0,0.0,-0.6979,-0.6979,-0.6979,-0.6416,-0.5862,-0.6761,-0.6979,-0.6979,-0.6979,-0.6979,-0.7308,-0.851,-0.9569,-1.0336,-1.0336,-1.3785,-1.7324,-1.8398,-1.7773,-1.6699,-1.5615,-1.7363,-1.9541,-2.126,-2.2441,-2.3724,-2.5378,-2.6836,-2.8235,-2.9628,-2.7119,-2.4935,-2.4322,-2.4241,-2.322,-2.0789,-2.0566,-1.9382,-1.6636,-1.7544,-1.8859,-2.0557,-2.0566,-2.0566,-2.0566,-2.3073,-2.5052,-2.6533,-2.6533,-2.6533,-2.6465,-2.4981,-2.2925,-2.0566,-2.0566,-2.0566,-2.0566,-2.0566,-2.0566,-2.0566,-2.0566,-2.0566,-2.0566,-2.0566,-2.0566,-2.0566,0.0,0.0,0.0,0.0,0.0,0.0,0.0,0.0,0.0,0.0,0.0,0.0,0.0,0.0,0.0,0.0,0.0,0.0,0.2239,0.2543,0.2712,0.2712,0.1507,0.1438,0.2679,0.2712,0.262,0.2427,0.2009,0.117,0.0,0.0,0.0,0.0,0.0,0.0,0.0,0.0,0.0,-0.0225,-0.2637,-0.3581,0.0,0.0,0.0,0.0,0.0,0.0,0.0,0.0,-0.6979,-0.6979,-0.6979,-0.6979,-0.6979,-0.6979,-0.6979,-0.6979,-0.6979,-0.6979,-0.7395,-0.8971,-0.9078,-0.8804,-0.8804,-1.2941,-1.7492,-2.0082,-1.8554,-1.6634,-1.6292,-1.7207,-1.8574,-2.0283,-2.1553,-2.2324,-2.2324,-2.3678,-2.5213,-2.6724,-2.5554,-2.4612,-2.4612,-2.5791,-2.5346,-2.2702,-2.2489,-2.1418,-1.8948,-1.9922,-2.0566,-2.0566,-2.0566,-2.1231,-2.2478,-2.5134,-2.6533,-2.6533,-2.6533,-2.6533,-2.6533,-2.6533,-2.5052,-2.2403,-2.1155,-2.0566,-2.0566,-2.0566,-2.0566,-2.0566,-2.0566,-2.0566,-2.0566,-2.0566,-2.0566,-2.0566,0.0,0.0,0.0,0.0,0.0,0.0,0.0,0.0,0.0,0.0,0.0,0.0,0.0,0.0,0.0,0.0,0.0,0.0,0.1363,0.2175,0.2712,0.2712,0.2712,0.2712,0.2712,0.2712,0.2414,0.1803,0.1809,0.1185,0.0,0.0,0.0,0.0,0.0,0.0,0.0,0.0,0.0,-0.0225,-0.2637,-0.3581,-0.3581,0.0,0.0,0.0,0.0,0.0,0.0,0.0,-0.6979,-0.6979,-0.6979,-0.6979,-0.6979,-0.6979,-0.6979,-0.7021,-0.7021,-0.7021,-0.7589,-0.994,-0.9666,-0.8824,-0.8838,-1.1563,-1.5304,-1.9668,-1.7163,-1.4911,-1.7507,-1.7998,-1.8574,-2.0283,-2.0566,-2.0566,-2.0566,-2.0566,-2.0566,-2.0566,-2.0566,-2.0566,-2.0566,-2.4169,-2.6452,-2.6427,-2.644,-2.4755,-2.0789,-2.0566,-2.0566,-2.0566,-2.0644,-2.2553,-2.6452,-2.6533,-2.6533,-2.6533,-2.6533,-2.6533,-2.6533,-2.6533,-2.6533,-2.6302,-2.2339,-2.0566,-2.0566,-2.0566,-2.0566,-2.0566,-2.0566,-2.0566,-2.0566,-2.0566,-2.0566,-2.0566,0.0,0.0,0.0,0.0,0.0,0.0,0.0,0.0,0.0,0.0,0.0,0.0,0.0,0.0,0.0,0.0,0.0,0.0,0.2305,0.2547,0.2712,0.2712,0.2712,0.2712,0.2712,0.2712,0.2414,0.1803,0.2235,0.1595,0.0,0.0,0.0,0.0,0.0,0.0,0.0,0.0,-0.0986,-0.2593,-0.3309,-0.3581,-0.3581,0.0,0.0,0.0,0.0,0.0,0.0,0.0,0.0,0.0,-0.6979,-0.6979,-0.6979,-0.6979,-0.6979,-0.7349,-0.8893,-0.8203,-0.7188,-0.7896,-0.9065,-1.0254,-1.1082,-1.2726,-1.4496,-1.5794,-1.7407,-1.8194,-1.6456,-1.7187,-1.8574,-2.0283,-2.0566,-2.0566,-2.0566,-2.0566,-2.0566,-2.0566,-2.0566,-2.0566,-2.0566,-2.1669,-2.1859,-2.0614,-2.1667,-2.1821,-2.0644,-2.0566,-2.0566,-2.0566,-2.3294,-2.5346,-2.6465,-2.6533,-2.6533,-2.6533,-2.6533,-2.6533,-2.6533,-2.6533,-2.6533,-2.6302,-2.2339,-2.0566,-2.0566,-2.0566,-2.0566,-2.0566,-2.0566,-2.0566,-2.0566,-2.0566,-2.0566,-2.0566,0.0,0.0,0.0,0.0,0.0,0.0,0.0,0.0,0.0,0.0,0.0,0.0,0.0,0.0,0.0,0.0,0.0,0.0,0.0,0.2712,0.2712,0.2712,0.2712,0.2712,0.2712,0.2712,0.2534,0.2167,0.1812,0.1061,0.0027,0.0722,0.1071,0.1037,0.0336,0.0,0.0,0.0,-0.1387,-0.3581,-0.3581,-0.3581,-0.3581,0.0,0.0,0.0,0.0,0.0,0.0,0.0,0.0,0.0,-0.6719,-0.6979,-0.7182,-0.8039,-0.7675,-0.7308,-0.861,-0.865,-0.8325,-0.8325,-0.9792,-1.1057,-1.0379,-1.1492,-1.2953,-1.3895,-1.7568,-1.9449,-1.56,-1.7165,-1.9365,-2.04,-2.0566,-2.0566,-2.0566,-2.0566,-2.0566,-2.0566,-1.9971,-1.9551,-1.9551,-1.9551,-1.9121,-1.8086,-1.8965,-1.9844,-2.0527,-2.0566,-2.0566,-2.0566,-2.4469,-2.6533,-2.6533,-2.6533,-2.6533,-2.6533,-2.6533,-2.6533,-2.6533,-2.6533,-2.6533,-2.6302,-2.2339,-2.0566,-2.0566,-2.0566,-2.0166,-1.9551,-1.9551,-1.9551,-1.9629,-2.0312,-2.0566,-2.0566,0.0,0.0,0.0,0.0,0.0,0.0,0.0,0.0,0.0,0.0,0.0,0.0,0.0,0.0,0.0,0.0,0.0,0.0,0.0,0.2712,0.2779,0.2944,0.2779,0.2712,0.2712,0.2712,0.2712,0.2712,0.087,0.0,0.0034,0.184,0.2712,0.2613,0.0971,0.0168,0.0,0.0,-0.1384,-0.3581,-0.3581,-0.3581,-0.3581,-0.3581,0.0,0.0,0.0,0.0,0.0,0.0,0.0,0.0,-0.599,-0.6852,-0.7391,-0.9421,-0.8569,-0.7063,-0.7224,-0.8772,-1.0312,-1.0331,-1.1326,-1.1493,-0.828,-0.9526,-1.1952,-1.4251,-1.7811,-1.9307,-1.5233,-1.7797,-2.0566,-2.0566,-2.0566,-2.0566,-2.0566,-2.043,-2.0332,-2.0332,-1.8955,-1.8008,-1.8008,-1.8008,-1.8008,-1.8008,-1.8008,-1.8691,-2.0254,-2.0478,-2.0566,-2.0566,-2.4469,-2.6533,-2.6533,-2.6533,-2.6533,-2.6533,-2.6319,-2.6219,-2.6219,-2.6219,-2.6219,-2.5934,-2.2083,-2.0332,-2.0332,-2.0332,-1.9414,-1.8027,-1.8184,-1.8242,-1.8437,-1.999,-2.0566,-2.0566,0.0,0.0,0.0,0.0,0.0,0.0,0.0,0.0,0.0,0.0,0.0,0.0,0.0,0.0,0.0,0.0,0.0,0.0,0.0,0.2712,0.3298,0.4692,0.3429,0.2712,0.2712,0.2712,0.2712,0.2712,0.087,0.0,0.0034,0.184,0.2712,0.2679,0.2278,0.1338,0.0,0.0,-0.1384,-0.3581,-0.3581,-0.3581,-0.3581,-0.3581,-0.3581,0.0,0.0,0.0,0.0,0.0,0.0,0.0,-0.3558,-0.5561,-0.7105,-0.7551,-0.7391,-0.7391,-0.9102,-0.9952,-1.0326,-1.0474,-1.1445,-1.2136,-1.1377,-1.3879,-1.6908,-1.8784,-1.9913,-1.9918,-1.7623,-1.9042,-2.0566,-2.0566,-2.0566,-2.0566,-2.0566,-1.9404,-1.8564,-1.8564,-1.8232,-1.8008,-1.8008,-1.8008,-1.8008,-1.8008,-1.8008,-1.8174,-1.8535,-1.9834,-2.0566,-2.0566,-2.4469,-2.6533,-2.6533,-2.6533,-2.6533,-2.6508,-2.4682,-2.3853,-2.3853,-2.3853,-2.3853,-2.3654,-2.008,-1.8564,-1.8564,-1.8564,-1.834,-1.8144,-1.9492,-2.001,-2.0059,-2.043,-2.0566,-2.0566,0.0,0.0,0.0,0.0,0.0,0.0,0.0,0.0,0.0,0.0,0.0,0.0,0.0,0.0,0.0,0.0,0.0,0.0,0.0,0.0,0.3105,0.4016,0.3171,0.2712,0.2712,0.2712,0.2712,0.2712,0.174,0.1305,0.1305,0.2242,0.2712,0.2646,0.1807,0.087,0.0,0.0,-0.0717,-0.1967,-0.3132,-0.3581,-0.3581,-0.3581,-0.3581,-0.3445,-0.219,0.0,0.0,0.0,0.0,0.0,0.0,0.0,-0.6979,-0.6979,-0.6979,-0.7266,-0.8407,-0.9128,-1.0139,-1.2323,-1.3363,-1.402,-1.4857,-1.6576,-1.8262,-1.916,-1.9346,-1.9072,-1.8174,-1.874,-1.9609,-2.043,-2.0566,-2.0283,-1.9453,-1.8574,-1.8008,-1.8008,-1.8008,-1.8008,-1.8008,-1.7256,-1.7109,-1.7949,-1.8008,-1.8008,-1.8008,-1.8857,-1.9346,-1.9346,-2.2153,-2.3661,-2.3661,-2.5569,-2.5925,-2.4858,-2.369,-2.3078,-2.3078,-2.3078,-2.3078,-2.3067,-2.2376,-2.1453,-2.0388,-1.9576,-1.875,-1.8379,-2.2038,-2.3441,-2.3441,-2.3441,-2.3441,-2.3441,0.0,0.0,0.0,0.0,0.0,0.0,0.0,0.0,0.0,0.0,0.0,0.0,0.0,0.0,0.0,0.0,0.0,0.0,0.0,0.0,0.0,0.2712,0.2712,0.2712,0.2712,0.2712,0.2712,0.2712,0.2712,0.2712,0.2679,0.2377,0.2242,0.2175,0.067,0.0,0.0,0.0,0.0,-0.018,-0.219,-0.322,-0.3581,-0.3581,-0.3581,-0.3667,-0.4056,-0.3928,-0.3581,-0.3581,0.0,0.0,0.0,0.0,-0.6979,-0.6979,-0.6979,-0.6979,-0.6979,-0.8219,-1.0455,-1.4392,-1.541,-1.5791,-1.7227,-1.7559,-1.7559,-1.7559,-1.7803,-1.792,-1.7617,-1.7812,-1.8477,-1.9893,-2.0127,-1.9629,-1.8203,-1.8008,-1.79,-1.7598,-1.7559,-1.7686,-1.7978,-1.6436,-1.6016,-1.7451,-1.7842,-1.8008,-1.8008,-1.8008,-1.8008,-1.8008,-1.9385,-2.0127,-2.0127,-2.4003,-2.4958,-2.3078,-2.3078,-2.3078,-2.3078,-2.3078,-2.3078,-2.3238,-2.5084,-2.5059,-2.3555,-2.1767,-2.0442,-1.9928,-2.4671,-2.6533,-2.6533,-2.6533,-2.6533,-2.6533,0.0,0.0,0.0,0.0,0.0,0.0,0.0,0.0,0.0,0.0,0.0,0.0,0.0,0.0,0.0,0.0,0.0,0.0,0.2712,0.0,0.0,0.2712,0.2712,0.2712,0.2712,0.2712,0.2712,0.2712,0.2712,0.2712,0.2679,0.1104,0.0369,0.0335,0.0101,0.0,0.0,0.0,0.0,-0.0045,-0.0359,-0.1744,-0.3581,-0.3581,-0.3581,-0.384,-0.5819,-0.5265,-0.3581,-0.3581,-0.3581,0.0,0.0,0.0,-0.6979,-0.6979,-0.6979,-0.6979,-0.6979,-0.9632,-1.2868,-1.4867,-1.541,-1.5478,-1.5703,-1.5762,-1.5762,-1.5762,-1.6963,-1.7549,-1.6035,-1.6992,-1.8086,-1.8311,-1.835,-1.8271,-1.8047,-1.8008,-1.7451,-1.5937,-1.5762,-1.6348,-1.7861,-1.6436,-1.5508,-1.5742,-1.7158,-1.8008,-1.8008,-1.8008,-1.8008,-1.8008,-1.8232,-1.835,-1.835,-2.1812,-2.3366,-2.3078,-2.3078,-2.3078,-2.3078,-2.3078,-2.3078,-2.309,-2.3452,-2.4506,-2.5887,-2.3646,-2.3786,-2.5455,-2.6189,-2.6533,-2.6533,-2.6533,-2.6533,-2.6533,0.0,0.0,0.0,0.0,0.0,0.0,0.0,0.0,0.0,0.0,0.0,0.0,0.0,0.0,0.0,0.4124,0.3266,0.2712,0.2712,0.2712,0.2712,0.2712,0.174,0.1673,0.2679,0.2712,0.2712,0.2712,0.2712,0.2712,0.2656,0.0833,0.0,0.0,0.0,0.0,0.0,0.0,0.0,0.0,0.0,-0.1432,-0.3581,-0.3581,-0.3581,-0.3711,-0.4748,-0.5265,-0.5518,-0.5518,-0.5518,-0.5518,-0.5518,0.0,0.0,0.0,-0.6979,-0.6979,-0.6979,-0.9164,-1.1836,-1.3564,-1.4707,-1.5166,-1.4209,-1.3994,-1.4268,-1.5215,-1.6025,-1.6318,-1.5547,-1.6035,-1.6553,-1.6553,-1.6553,-1.6894,-1.7871,-1.7168,-1.6269,-1.5508,-1.541,-1.5713,-1.6484,-1.5859,-1.541,-1.541,-1.6123,-1.6553,-1.6553,-1.6553,-1.7002,-1.7978,-1.8008,-1.8008,-1.8008,-1.9486,-2.0577,-2.1267,-2.1267,-2.192,-2.3078,-2.3078,-2.3078,-2.314,-2.4456,-2.4845,-2.4619,-2.4883,-2.5573,-2.6533,-2.6533,-2.6533,-2.6533,-2.6533,-2.6533,-2.6345,0.0,0.0,0.0,0.0,0.0,0.0,0.0,0.0,0.0,0.0,0.0,0.0,0.0,0.0,0.0,0.0,0.3462,0.251,0.2042,0.2009,0.2009,0.2009,0.0704,0.0637,0.1973,0.2477,0.2712,0.2712,0.287,0.2867,0.2656,0.1335,0.044,0.0,0.0,0.0,0.0,0.0,-0.0359,-0.0851,-0.0225,-0.1432,-0.3581,-0.3581,-0.3581,-0.3581,-0.3581,-0.5048,-0.6979,-0.6979,-0.6979,-0.6979,-0.6979,-0.6979,0.0,0.0,0.0,-0.6979,-0.6979,-0.8203,-0.9921,-1.175,-1.3506,-1.4443,-1.3174,-1.2881,-1.3232,-1.4512,-1.4766,-1.4766,-1.4766,-1.5117,-1.541,-1.541,-1.541,-1.5869,-1.7168,-1.623,-1.569,-1.6451,-1.6507,-1.6507,-1.6507,-1.6507,-1.6234,-1.5468,-1.541,-1.541,-1.541,-1.541,-1.6006,-1.7314,-1.7783,-1.8008,-1.8008,-1.8844,-1.946,-1.9811,-2.0376,-2.1518,-2.3078,-2.3078,-2.3078,-2.3165,-2.4895,-2.4669,-2.3203,-2.4921,-2.5611,-2.5611,-2.5611,-2.5963,-2.6533,-2.6533,-2.6101,-2.5372,0.0,0.0,0.0,0.0,0.0,0.0,0.0,0.0,0.0,0.0,0.0,0.0,0.2,0.1891,0.2146,0.2791,0.2746,0.1973,0.0269,0.0134,0.0134,0.0134,0.0034,0.0,0.0134,0.1807,0.2712,0.2712,0.3253,0.3242,0.2712,0.2609,0.1659,0.0,0.0,0.0,0.0,0.0,-0.1343,-0.322,-0.0941,-0.1432,-0.3581,-0.3581,-0.3581,-0.3581,-0.3581,-0.5048,-0.6979,-0.6979,-0.6979,-0.6979,-0.6979,-0.6979,-0.6979,0.0,0.0,0.0,-0.6979,-0.7105,-0.769,-0.9897,-1.1728,-1.2988,-1.29,-1.2881,-1.29,-1.2998,-1.3018,-1.3018,-1.3018,-1.4326,-1.541,-1.541,-1.541,-1.5439,-1.5537,-1.5469,-1.6461,-1.9254,-1.9579,-1.9579,-1.9579,-1.9579,-1.8424,-1.5633,-1.541,-1.541,-1.541,-1.541,-1.5449,-1.5547,-1.7148,-1.8008,-1.8008,-2.1215,-2.1823,-1.9823,-2.1958,-2.2965,-2.3078,-2.3078,-2.3078,-2.3078,-2.3263,-2.3178,-2.3078,-2.3203,-2.3314,-2.3314,-2.3314,-2.4607,-2.6533,-2.6533,-2.5121,-2.3288,0.0,0.0,0.0,0.0,0.0,0.0,0.0,0.0,0.0,0.0,0.0,0.0,0.0,0.1803,0.205,0.2661,0.164,0.0704,0.0034,0.1071,0.1204,0.0067,0.0,0.0,0.0,0.1773,0.2712,0.2712,0.3283,0.3273,0.2712,0.2712,0.2549,0.2235,0.0672,0.0,0.0,0.0,-0.1387,-0.3401,-0.0986,-0.1432,-0.3581,-0.3581,-0.3581,-0.3581,-0.3581,-0.5048,-0.6979,-0.6979,-0.6033,-0.4831,-0.4831,-0.4831,-0.4831,-0.4831,-0.4831,-0.5135,-0.6592,-0.6979,-0.7182,-0.7998,-0.8664,-0.9479,-1.0904,-1.1211,-1.1211,-1.1211,-1.1211,-1.1553,-1.2676,-1.4268,-1.541,-1.541,-1.7002,-1.8209,-1.8209,-1.8209,-1.865,-1.9695,-1.9798,-1.9798,-1.9798,-1.9798,-1.9359,-1.8317,-1.8209,-1.739,-1.5526,-1.541,-1.541,-1.541,-1.6016,-1.6338,-1.6338,-1.7564,-1.8714,-1.9811,-1.8669,-1.874,-1.9803,-1.9803,-1.9803,-1.9803,-1.9803,-1.9803,-1.9998,-2.2175,-2.3078,-2.3078,-2.3078,-2.3627,-2.433,-2.433,-2.3816,-2.3078,0.0,0.0,0.0,0.0,0.0,0.0,0.0,0.0,0.0,0.3262,0.0,0.0,0.0,0.0,0.1596,0.2613,0.1607,0.0904,0.0904,0.2042,0.1907,0.0067,0.0,0.0,0.0,0.1976,0.3018,0.3018,0.2576,0.2206,0.1807,0.1807,0.2349,0.3246,0.1832,0.0762,0.0,0.0,-0.1387,-0.3401,-0.0986,-0.0941,-0.246,-0.3309,-0.3084,-0.2415,-0.2415,-0.3902,-0.5862,-0.5862,-0.4831,-0.3755,-0.4491,-0.4232,-0.3581,-0.3581,-0.3581,-0.3928,-0.5432,-0.5862,-0.6033,-0.681,-0.6979,-0.7391,-0.8852,-0.9746,-1.0283,-1.0283,-1.0283,-1.0635,-1.1797,-1.3408,-1.4746,-1.5322,-1.7884,-1.9798,-1.9798,-1.9798,-1.9522,-1.8794,-1.8694,-1.8694,-1.8694,-1.9359,-1.9798,-1.9798,-1.9798,-1.8489,-1.5575,-1.541,-1.541,-1.541,-1.541,-1.541,-1.541,-1.541,-1.6404,-1.8317,-1.6348,-1.6016,-1.7139,-1.7139,-1.7461,-1.8008,-1.8008,-1.8654,-1.9803,-2.0899,-2.2039,-2.3078,-2.3078,-2.3078,-2.3078,-2.3078,-2.3078,-2.3078,0.0,0.0,0.0,0.0,0.0,0.0,0.0,0.0,0.3315,0.2762,0.0,0.0,0.0,0.0,0.0,0.2547,0.2712,0.2712,0.2712,0.2712,0.1907,0.0067,0.0,0.0,0.0,0.2287,0.349,0.349,0.1158,0.0,0.0,0.0,0.0937,0.2639,0.331,0.2279,0.0,0.0,-0.1343,-0.3309,-0.0941,-0.0045,-0.0359,-0.2726,-0.2146,-0.009,-0.009,-0.1611,-0.3581,-0.3581,-0.3581,-0.3972,-0.6204,-0.5394,-0.3581,-0.3581,-0.3581,-0.3626,0.0,0.0,0.0,-0.6465,-0.6979,-0.6979,-0.6979,-0.8731,-1.0283,-1.0283,-1.0283,-1.0283,-1.0283,-1.166,-1.3359,-1.5059,-1.7739,-1.9595,-1.9698,-1.9698,-1.8907,-1.6773,-1.6522,-1.6522,-1.6522,-1.8455,-1.9698,-1.9698,-1.9761,-1.8543,-1.569,-1.5468,-1.541,-1.541,-1.541,-1.541,-1.541,-1.541,-1.541,-1.541,-1.541,-1.541,-1.541,-1.541,-1.6367,-1.8008,-1.8017,-1.9911,-2.2724,-1.9399,-1.9933,-2.2944,-2.3078,-2.3078,-2.3078,-2.3078,-2.3078,-2.3078,0.0,0.0,0.0,0.0,0.0,0.0,0.4646,0.3986,0.3315,0.0,0.0,0.0,0.1306,0.1681,0.2142,0.2646,0.2712,0.2712,0.2712,0.2712,0.1907,0.0067,0.0,0.0,0.0,0.0655,0.0986,0.0986,0.0315,0.0,0.0,0.0,0.0269,0.0845,0.273,0.2279,0.0,0.0,-0.0404,-0.0941,-0.0269,-0.103,-0.2682,-0.3353,-0.3176,-0.2593,-0.2593,-0.304,-0.3581,-0.3581,-0.3581,-0.3711,-0.436,-0.41,-0.3581,-0.3581,-0.3581,-0.3968,-0.5604,0.0,0.0,0.0,0.0,0.0,-0.6979,-0.8731,-1.0283,-1.0283,-1.0283,-1.0283,-1.0283,-1.0674,-1.1572,-1.3301,-1.4255,-1.5419,-1.7186,-1.7426,-1.72,-1.6597,-1.6522,-1.6522,-1.6522,-1.7061,-1.7426,-1.7426,-1.8907,-1.9411,-1.865,-1.6564,-1.541,-1.541,-1.541,-1.541,-1.541,-1.541,-1.541,-1.541,-1.541,-1.541,-1.541,-1.541,-1.6367,-1.8065,-1.8937,-1.986,-2.0556,-1.8732,-1.8596,-1.9683,-2.2113,-2.3078,-2.3078,-2.3078,-2.3078,-2.3078,0.0,0.0,0.0,0.0,0.0,0.4426,0.4426,0.3911,0.3561,0.0,0.0,0.0,0.3257,0.3575,0.3788,0.3788,0.3788,0.3462,0.2746,0.2712,0.1907,0.0067,0.0,0.0,0.0,0.0,0.0,0.0,0.0,0.0,0.0,0.0,0.0,0.0101,0.2244,0.2589,0.1521,0.1521,0.0941,0.0,0.0,-0.1432,-0.3581,-0.3581,-0.3581,-0.3581,-0.3581,-0.3581,-0.3581,-0.3581,-0.3581,-0.3581,-0.3581,-0.3581,-0.3581,-0.3581,-0.4272,-0.5308,-0.6634,-0.6979,-0.6979,-0.6979,0.0,0.0,-0.6979,-0.8731,-1.0283,-1.0283,-1.0283,-1.0283,-1.0283,-1.0283,-1.0615,-1.1631,-1.1841,-1.2562,-1.4722,-1.5073,-1.5101,-1.5101,-1.5101,-1.5101,-1.5101,-1.5982,-1.6522,-1.6522,-1.7702,-1.8313,-1.8001,-1.5685,-1.4811,-1.5823,-1.4864,-1.4355,-1.4355,-1.4355,-1.4707,-1.541,-1.541,-1.541,-1.541,-1.541,-1.6655,-1.8796,-1.9522,-1.9798,-1.9626,-1.7683,-1.6924,-1.7105,-1.9094,-2.065,-2.1857,-2.2727,-2.3078,-2.3078,0.0,0.0,0.7637,0.7451,0.5516,0.3872,0.3547,0.3612,0.4095,0.0,0.5309,0.5372,0.5561,0.5404,0.5309,0.5309,0.5309,0.4564,0.2812,0.2712,0.1907,0.0067,0.0,0.0,0.0,0.0,0.0,0.0,0.0,0.0,0.0,0.0,0.0139,0.0487,0.2083,0.3114,0.3581,0.3581,0.2368,0.0359,0.009,-0.1298,-0.322,-0.322,-0.3357,-0.3581,-0.3581,-0.3581,-0.3581,-0.3581,-0.3581,-0.3581,-0.3581,-0.3581,-0.367,-0.3884,-0.5389,-0.6979,-0.6979,-0.6979,-0.6979,-0.6979,-0.6979,0.0,-0.6979,-0.8529,-0.9913,-0.9913,-1.0118,-1.0283,-1.0283,-1.0283,-1.0283,-1.0283,-1.0283,-1.082,-1.2373,-1.2751,-1.2861,-1.2861,-1.2861,-1.2861,-1.2861,-1.4834,-1.6019,-1.5837,-1.5972,-1.5831,-1.5162,-1.3939,-1.4294,-1.6423,-1.4433,-1.3152,-1.2881,-1.2881,-1.373,-1.541,-1.541,-1.541,-1.541,-1.541,-1.6834,-1.9307,-1.9643,-1.9631,-1.9085,-1.6451,-1.541,-1.541,-1.541,-1.7002,-1.9564,-2.1758,-2.275,-2.3078,0.0,0.0,0.7303,0.5983,0.639,0.6118,0.3843,0.4329,0.5023,0.5282,0.5309,0.5804,0.7086,0.6075,0.5309,0.5309,0.5309,0.4564,0.2812,0.2712,0.1907,0.0067,0.0,0.0,0.0,0.0,0.0,0.0,0.0,0.0,0.0,0.0,0.1022,0.2932,0.3275,0.347,0.3581,0.3581,0.3309,0.2726,0.0762,-0.0269,-0.0717,-0.0717,-0.1923,-0.3581,-0.3581,-0.3581,-0.3581,-0.3581,-0.3581,-0.3581,-0.3581,-0.3581,-0.3968,-0.5819,-0.6634,-0.6979,-0.6979,-0.6979,-0.6979,-0.6979,-0.6979,0.0,-0.6979,-0.7349,-0.7634,-0.7634,-0.9053,-1.0283,-1.0283,-1.0283,-1.0283,-1.0283,-1.0283,-1.04,-1.0742,-1.0843,-1.0878,-1.0878,-1.0878,-1.0878,-1.0878,-1.2669,-1.3177,-1.1633,-1.2816,-1.3535,-1.341,-1.4911,-1.602,-1.6479,-1.6064,-1.488,-1.2929,-1.2881,-1.373,-1.541,-1.541,-1.541,-1.541,-1.541,-1.568,-1.6404,-1.8756,-1.8424,-1.6234,-1.5633,-1.541,-1.541,-1.541,-1.5738,-1.6461,-1.8297,-2.0771,-2.3078,0.0,0.7695,0.7451,0.6626,0.6504,0.6022,0.4623,0.4903,0.5309,0.5309,0.5309,0.5617,0.6413,0.5773,0.4953,0.4075,0.4011,0.3626,0.2746,0.2712,0.2311,0.1373,0.049,0.0,0.0,0.0,0.0,0.0,0.0,0.0,0.0,0.0,0.0628,0.1878,0.3084,0.3581,0.3581,0.3581,0.3581,0.349,0.2281,0.1075,0.0,0.0,-0.0762,-0.1967,-0.3176,-0.3581,-0.3581,-0.3581,-0.3581,-0.3581,-0.3581,-0.3581,-0.4056,-0.6337,-0.6979,-0.6979,-0.6979,-0.6979,-0.6979,-0.6979,-0.6979,0.0,0.0,-0.6979,-0.6979,-0.6979,-0.8772,-0.9952,-0.8852,-0.9549,-0.9952,-0.8812,-0.865,-0.865,-0.865,-0.9588,-1.0283,-1.0283,-1.0283,-1.0283,-1.0283,-1.1169,-1.1718,-1.1591,-1.2393,-1.343,-1.4606,-1.5832,-1.6522,-1.6522,-1.6522,-1.5344,-1.2929,-1.2881,-1.373,-1.541,-1.541,-1.541,-1.541,-1.541,-1.541,-1.5468,-1.6946,-1.6789,-1.541,-1.541,-1.6291,-1.7446,-1.5958,-1.541,-1.5518,-1.6396,-1.8311,-2.0579,0.7695,0.7695,0.7608,0.7303,0.6413,0.5648,0.534,0.5309,0.5309,0.5309,0.5309,0.5309,0.5309,0.5309,0.4596,0.2845,0.2712,0.2547,0.2208,0.251,0.2767,0.2884,0.1038,0.0,0.0,-0.0348,-0.0564,-0.0672,-0.0225,0.0,0.0,0.0,0.0,0.009,0.2057,0.3176,0.3578,0.3084,0.3176,0.3578,0.3084,0.1744,0.0,0.0,0.0,-0.0314,-0.2726,-0.3581,-0.3667,-0.41,-0.4272,-0.4188,-0.3755,-0.3581,-0.4056,-0.6337,-0.6677,-0.6465,-0.6894,-0.6979,-0.6979,-0.6979,-0.7308,-0.7634,0.0,0.0,0.0,-0.7634,-0.9062,-0.9746,-0.7957,-0.9102,-0.9588,-0.7349,-0.6979,-0.6979,-0.6979,-0.8529,-0.9667,-0.9667,-0.9667,-0.9834,-1.0244,-1.0283,-1.0869,-1.2275,-1.2695,-1.3596,-1.5199,-1.607,-1.6522,-1.6522,-1.6522,-1.5567,-1.361,-1.3104,-1.373,-1.541,-1.541,-1.541,-1.541,-1.541,-1.541,-1.541,-1.541,-1.5738,-1.6177,-1.5633,-1.6778,-1.8703,-1.6348,-1.541,-1.541,-1.541,-1.6514,-1.8008,0.7695,0.7695,0.7244,0.5835,0.6595,0.6936,0.5529,0.5309,0.5309,0.5309,0.5309,0.5309,0.5309,0.5309,0.4596,0.2845,0.2712,0.2009,0.0402,0.1807,0.2956,0.3456,0.1241,0.0,0.0,-0.1567,-0.2662,-0.3176,-0.103,0.0,0.0,0.0,0.0,0.0,0.0269,0.1611,0.3445,0.1298,0.1655,0.3401,0.1253,0.0225,0.0,0.0,0.0,-0.0314,-0.2726,-0.3581,-0.3928,-0.5947,-0.6634,-0.6252,-0.4228,-0.3581,-0.4056,-0.6337,-0.5561,-0.4447,-0.6465,-0.6979,-0.6979,-0.6979,-0.8488,-0.9913,-0.9913,0.0,-0.9913,-0.9913,0.0,-1.0235,-0.9952,0.0,0.0,-0.7349,-0.6979,-0.6979,-0.6979,-0.7224,-0.7391,-0.7391,-0.7391,-0.8162,-1.0118,-1.0283,-1.0361,-1.0566,-1.2012,-1.2345,-1.1074,-1.4506,-1.6522,-1.6522,-1.6522,-1.638,-1.6107,-1.3978,-1.373,-1.541,-1.541,-1.541,-1.541,-1.541,-1.541,-1.541,-1.541,-1.689,-1.9085,-1.6451,-1.5575,-1.5853,-1.5517,-1.541,-1.541,-1.541,-1.6514,-1.8008,0.7695,0.7695,0.0,0.5585,0.5859,0.6075,0.5404,0.5309,0.5309,0.5309,0.5309,0.5309,0.5309,0.3455,0.192,0.1204,0.2397,0.1861,-0.1348,-0.0865,0.0139,0.1444,0.0553,0.0,0.0,-0.1792,-0.3015,-0.3581,-0.2593,-0.1387,0.0,0.0,0.0,0.0,0.0,0.0583,0.1432,0.0449,0.0583,0.1297,-0.1116,-0.2101,-0.2101,-0.2101,-0.2101,-0.241,-0.473,-0.5561,-0.5899,-0.8146,-0.8933,-0.8521,-0.6271,-0.5561,-0.5776,-0.6719,-0.6337,-0.5776,-0.6725,-0.6979,-0.6979,-0.6979,-0.865,-1.0283,-1.0283,-1.0283,-1.0283,-1.0283,0.0,0.0,0.0,0.0,0.0,0.0,-0.8933,-0.8488,-0.7189,-0.6979,-0.6979,-0.6979,-0.7635,-0.8647,-1.0135,-1.0283,-1.0703,-1.1719,-1.1533,-1.1055,-1.0322,-1.2913,-1.5062,-1.6479,-1.5239,-1.5189,-1.6509,-1.5478,-1.5142,-1.541,-1.541,-1.541,-1.541,-1.541,-1.541,-1.541,-1.541,-1.612,-1.7169,-1.5911,-1.541,-1.541,-1.541,-1.541,-1.541,-1.541,-1.6514,-1.8008,0.7056,0.0,0.0,0.5585,0.5309,0.5309,0.5309,0.5309,0.5397,0.5718,0.5758,0.551,0.4911,0.1956,0.0,0.0,0.2063,0.1641,-0.2432,-0.3138,-0.2596,-0.0804,-0.1496,-0.1565,-0.0752,-0.2183,-0.3179,-0.3581,-0.3581,-0.2368,0.0,0.0,0.0,0.0,0.0,0.0,0.0,0.0,-0.0404,-0.112,-0.2907,-0.3972,-0.453,-0.453,-0.453,-0.4831,-0.7113,-0.7915,-0.8162,-0.9755,-1.0283,-1.004,-0.8407,-0.7915,-0.7915,-0.7915,-0.7915,-0.7915,-0.7915,-0.7467,-0.7264,-0.8333,-0.8989,-0.9549,-1.0157,-1.0283,-1.0283,-1.0283,-1.0283,0.0,0.0,0.0,-1.0283,-1.0283,0.0,-0.9746,-0.8121,-0.7915,-0.7915,-0.7915,-0.8455,-0.8969,-0.9371,-0.9381,-1.0391,-1.2696,-1.127,-1.0283,-1.0283,-1.1484,-1.3245,-1.5524,-1.4613,-1.4863,-1.6497,-1.7112,-1.6749,-1.541,-1.541,-1.541,-1.541,-1.541,-1.541,-1.541,-1.541,-1.541,-1.541,-1.541,-1.541,-1.541,-1.541,-1.541,-1.541,-1.541,-1.6211,-1.7305,0.5372,0.6626,0.0,0.5585,0.5309,0.5309,0.5309,0.5309,0.5685,0.682,0.6926,0.6114,0.3894,0.1465,0.0,0.0,0.1668,0.1173,-0.2477,-0.4269,-0.4436,-0.2679,-0.5292,-0.5449,-0.2686,-0.3263,-0.3561,-0.3581,-0.3581,-0.2368,0.0,0.0,0.0,0.0,0.0,0.0,0.0,0.0,-0.1343,-0.349,-0.3578,-0.4918,-0.6894,-0.6894,-0.6894,-0.7182,-0.9381,-1.0196,-1.0196,-1.0283,-1.0283,-1.0283,-1.0205,-1.0196,-1.0196,-1.0196,-1.0196,-1.0196,-1.0196,-0.865,-0.7932,-1.1732,-0.988,-0.7675,-0.9834,-1.0283,-1.0283,-1.0283,-1.0283,-1.0283,-1.0283,-1.0283,-1.0283,-1.0283,-1.0283,0.0,0.0,-1.0196,-1.0196,-1.0196,-0.9392,-0.8337,-0.722,-0.7105,-0.8738,-1.2599,-1.127,-1.0283,-1.0283,-1.0332,-1.1292,-1.3229,-1.5302,-1.6446,-1.6522,-1.8631,-1.8258,-1.541,-1.541,-1.541,-1.541,-1.541,-1.541,-1.541,-1.541,-1.541,-1.541,-1.541,-1.541,-1.541,-1.541,-1.541,-1.541,-1.541,-1.5449,-1.5488,0.0,0.0,0.0,0.5404,0.5309,0.4922,0.3756,0.5204,0.6012,0.488,0.3359,0.2083,0.1297,0.0494,0.0,0.0,-0.0887,-0.2302,-0.4275,-0.4985,-0.4694,-0.334,-0.5976,-0.7533,-0.7739,-0.7937,-0.7328,-0.5862,-0.436,-0.2368,0.0,0.0,0.0,0.009,0.1655,0.237,0.2279,0.0672,-0.1387,-0.388,-0.6851,-0.8488,-0.9182,-0.9182,-0.9182,-0.9301,-1.003,-1.0283,-1.0283,-1.0283,-1.1169,-1.2198,-1.2198,-1.2198,-1.1982,-1.0687,-1.0283,-1.0283,-1.0283,-0.9746,-0.9142,-0.9052,-0.7997,-0.7182,-0.7957,-0.8121,-0.8529,-1.0,-1.0283,-1.0283,-1.0283,-1.0283,-1.0283,-1.0283,-1.0283,-1.0283,0.0,-1.0283,-1.0283,-1.0283,-0.8704,-0.7468,-0.7018,-0.8325,-1.0222,-1.2696,-1.127,-1.0283,-1.0283,-1.0283,-1.0611,-1.1244,-1.313,-1.466,-1.5775,-1.6524,-1.6404,-1.541,-1.541,-1.541,-1.541,-1.541,-1.541,-1.541,-1.541,-1.541,-1.541,-1.541,-1.541,-1.541,-1.541,-1.541,-1.541,-1.541,-1.541,-1.5576,0.5182,0.5309,0.5309,0.5309,0.4794,0.3775,0.1997,0.4032,0.526,0.3796,0.0758,-0.1298,-0.1298,-0.1298,-0.1298,-0.1298,-0.2682,-0.3913,-0.464,-0.5466,-0.5587,-0.4856,-0.7245,-0.915,-1.0302,-1.0283,-0.9222,-0.6979,-0.5518,-0.3149,0.0,0.0896,0.1298,0.1343,0.2907,0.3581,0.3445,0.103,-0.1869,-0.5125,-0.8819,-1.0283,-1.0283,-1.0283,-1.0283,-1.0283,-1.0283,-1.0283,-1.0283,-1.0283,-1.1579,-1.3198,-1.3198,-1.3198,-1.2943,-1.1689,-1.084,-1.0606,-1.2087,-1.1882,-1.0894,-0.947,-0.9117,-0.8945,-0.8312,-0.8162,-0.8569,-0.9991,-1.0283,-1.0283,-1.0283,-1.0283,-1.0283,-1.0283,-1.0283,-1.0283,0.0,-1.0283,-1.0283,-1.0283,-0.9053,-0.8162,-0.8162,-0.946,-1.0752,-1.1875,-1.0918,-1.0283,-1.0283,-1.0869,-1.1201,-1.1201,-1.2295,-1.3408,-1.4502,-1.4512,-1.4814,-1.541,-1.541,-1.541,-1.541,-1.541,-1.541,-1.5381,-1.4775,-1.4512,-1.4512,-1.4512,-1.4512,-1.457,-1.5176,-1.541,-1.541,-1.541,-1.541,-1.5664,0.5081,0.5277,0.517,0.5222,0.3851,0.2076,0.0131,0.1786,0.3223,0.3206,-0.0757,-0.3581,-0.3581,-0.3581,-0.3581,-0.3581,-0.3581,-0.3581,-0.3581,-0.5733,-0.6937,-0.6852,-0.9053,-1.0283,-1.0283,-1.04,-0.9372,-0.7147,-0.7063,-0.4604,0.0045,0.246,0.3581,0.3581,0.3581,0.3581,0.3445,0.103,-0.2775,-0.7349,-0.946,-1.0361,-1.0428,-1.0361,-1.0283,-1.0283,-1.0283,-1.0283,-1.0283,-1.0283,-1.1579,-1.3198,-1.3198,-1.3129,-1.3047,-1.3047,-1.1763,-1.1192,-1.538,-1.4846,-1.3065,-1.2929,-1.2881,-1.2451,-1.0791,-1.0342,-1.0283,-1.0283,-1.0352,-1.0381,-1.0303,-1.0352,-1.0381,-1.0293,-1.0283,-1.0283,-1.0283,-1.0283,-1.0283,-1.0283,-1.0283,-1.0283,-1.0283,-1.0283,-1.0283,-1.0283,-1.0283,-1.0322,-1.04,-1.1982,-1.2881,-1.2881,-1.2881,-1.2881,-1.2881,-1.2959,-1.3769,-1.5283,-1.5371,-1.5371,-1.5283,-1.5283,-1.5283,-1.5195,-1.3584,-1.2881,-1.2881,-1.2881,-1.2881,-1.3047,-1.4746,-1.5468,-1.5575,-1.5468,-1.541,-1.5664,0.6768,0.5067,0.3509,0.3947,0.3675,0.1985,-0.2039,-0.2138,-0.19,-0.2385,-0.3119,-0.3581,-0.3581,-0.3581,-0.3581,-0.3581,-0.3581,-0.3581,-0.3581,-0.5733,-0.6246,-0.453,-0.8229,-1.0283,-1.0283,-1.1726,-1.1472,-0.9469,-0.7792,-0.4604,0.0045,0.246,0.3581,0.3581,0.3581,0.3581,0.3445,0.103,-0.3645,-0.95,-1.0079,-1.1169,-1.2306,-1.084,-1.0283,-1.0283,-1.0283,-1.0283,-1.0283,-1.0283,-1.1579,-1.3198,-1.3198,-1.2198,-1.1019,-1.1019,-1.0687,-1.1192,-1.538,-1.6064,-1.5164,-1.3344,-1.2881,-1.2764,-1.2314,-1.1211,-1.0283,-1.0283,-1.1309,-1.1816,-1.0518,-1.1338,-1.1787,-1.0488,-1.0283,-1.0283,-1.0283,-1.0283,-1.0283,-1.0283,-1.0283,-1.0283,-1.0283,-1.0283,-1.0283,-1.0283,-1.0283,-1.0891,-1.2148,-1.2637,-1.2881,-1.2881,-1.2881,-1.2881,-1.2881,-1.4131,-1.4346,-1.3545,-1.4805,-1.4746,-1.3535,-1.3535,-1.3535,-1.3506,-1.3076,-1.2881,-1.2881,-1.2881,-1.2881,-1.3047,-1.4746,-1.6733,-1.8424,-1.6234,-1.541,-1.5664,0.7682,0.5212,0.3181,0.352,0.2726,0.1116,-0.1607,-0.3774,-0.4461,-0.2737,-0.4014,-0.4299,-0.2233,-0.2951,-0.3581,-0.3581,-0.3581,-0.3132,-0.2103,-0.4204,-0.4918,-0.3667,-0.7888,-1.0283,-1.0283,-1.221,-1.178,-0.8852,-0.8569,-0.6079,-0.1521,0.0893,0.2593,0.3581,0.3581,0.3581,0.3306,-0.1185,-0.6344,-1.1505,-1.0649,-1.0954,0.0,-1.0725,-1.0283,-1.0283,-1.0283,-1.0283,-1.0283,-1.0283,-1.1019,-1.1945,-1.1945,-1.1169,-1.0283,-1.0283,-1.082,-1.1961,-1.4306,-1.4937,-1.4606,-1.3248,-1.2881,-1.2881,-1.2881,-1.2119,-1.1416,-1.1416,-1.2197,-1.2936,-1.2993,-1.3004,-1.2445,-1.0597,-1.0283,-1.0283,-1.0283,-1.0283,-1.0283,-1.0283,-1.0283,-1.0283,-1.0283,-1.0283,-1.0283,-1.0283,-1.0283,-1.1045,-1.2793,-1.2881,-1.2881,-1.2881,-1.2881,-1.2881,-1.2881,-1.4561,-1.4932,-1.3994,-1.4209,-1.3809,-1.2881,-1.2881,-1.2881,-1.2881,-1.2881,-1.2881,-1.2881,-1.2881,-1.2881,-1.3185,-1.617,-1.7556,-1.7767,-1.685,-1.6553,-1.6689,0.7959,0.5187,0.3132,0.3132,0.1387,-0.0224,-0.0804,-0.4633,-0.5644,-0.0642,-0.3836,-0.501,-0.0895,-0.2324,-0.3581,-0.3581,-0.3581,-0.2726,-0.0628,-0.2719,-0.4056,-0.4056,-0.7849,-1.0049,-1.0312,-1.221,-1.153,-0.8141,-0.9306,-0.7684,-0.342,-0.1083,0.1256,0.3466,0.3544,0.3262,0.2218,-0.4575,-0.9674,-1.3012,-1.1094,-1.0283,-1.0283,-1.0283,-1.0283,-1.0283,-1.0283,-1.0283,-1.0283,-1.0283,-1.0283,-1.0283,-1.0283,-1.0283,-1.0332,-1.0557,-1.1699,-1.2881,-1.2881,-1.2881,-1.2881,-1.2881,-1.2881,-1.2881,-1.2881,-1.2881,-1.2881,-1.2881,-1.2881,-1.3525,-1.5656,-1.4264,-1.227,-1.0582,-1.0283,-1.0283,-1.0283,-1.0283,-1.0283,-1.0283,-1.0283,0.0,-1.0283,-1.0283,-1.0283,-1.0283,-1.003,-1.087,-1.3105,-1.2998,-1.2881,-1.2881,-1.2881,-1.2988,-1.3213,-1.4453,-1.5078,-1.5059,-1.3584,-1.2881,-1.2881,-1.2881,-1.2881,-1.2881,-1.2881,-1.2881,-1.2929,-1.3248,-1.3524,-1.4216,-1.8217,-1.7993,-1.5625,-1.7373,-1.8008,-1.8008,0.7542,0.3613,0.0628,0.0628,0.0269,-0.129,-0.5172,-0.8026,-0.7389,-0.0833,-0.2449,-0.3877,-0.304,-0.3353,-0.3581,-0.3581,-0.3581,-0.3401,-0.2996,-0.512,-0.6422,-0.6422,-0.7538,-0.8838,-1.0254,-1.221,-1.3537,-1.4266,-0.9782,-0.5945,-0.2804,-0.0887,0.1029,0.2894,0.3358,0.1375,-0.2659,-0.7606,-1.1062,-1.3012,-1.1094,-1.0283,-1.0283,-1.0283,-1.0283,-1.0283,-1.0283,-1.0283,-1.0283,-1.0283,-1.0283,-1.0283,-1.0283,-1.0283,-1.0566,-1.2002,-1.2646,-1.2881,-1.2881,-1.2881,-1.2881,-1.2881,-1.2881,-1.2881,-1.2881,-1.2881,-1.2881,-1.2881,-1.2881,-1.3017,-1.343,-1.2035,-1.0697,-1.0361,-1.0283,-1.0283,-1.0283,-1.0283,-1.0283,-1.0283,-1.0283,-1.0283,-1.0283,-1.0283,-1.0283,-1.0283,-0.861,-0.976,-1.4683,-1.3643,-1.2881,-1.2881,-1.2881,-1.3555,-1.4961,-1.3877,-1.332,-1.332,-1.3027,-1.2881,-1.2881,-1.2881,-1.2881,-1.2881,-1.2881,-1.2881,-1.3065,-1.5062,-1.6963,-1.8678,-1.9482,-1.7993,-1.5625,-1.7373,-1.8008,-1.8008,0.5196,0.3419,0.071,-0.2988,-0.2662,-0.3393,-0.8,-0.9628,-0.8688,-0.4195,-0.3598,-0.3581,-0.3581,-0.3581,-0.3456,-0.3141,-0.3944,-0.4739,-0.5315,-0.638,-0.7509,-0.865,-0.8931,-0.9918,-1.1777,-1.2232,-1.2881,-1.3745,-1.1376,-0.8091,-0.3978,-0.1265,0.0463,0.1263,0.0299,-0.2069,-0.5637,-0.9973,-1.2342,-1.3012,-1.1094,-1.0283,-1.0283,-1.0283,-1.0283,-1.0283,-1.0283,-1.0283,-1.0283,-1.0283,-1.0283,-1.0283,-1.0283,-1.0283,-1.0449,-1.1332,-1.2168,-1.2881,-1.2881,-1.2881,-1.2881,-1.2881,-1.2881,-1.2881,-1.2881,-1.2881,-1.2881,-1.2881,-1.2881,-1.2881,-1.2881,-1.1498,-1.0616,-1.1484,-1.1631,-1.1318,-1.041,-1.1064,-1.1631,-1.1631,-1.083,-1.0283,-1.0283,-1.0283,-1.0283,-1.0283,-0.8244,-0.8172,-1.0905,-1.0855,-1.0795,-1.0795,-1.2166,-1.3271,-1.4092,-1.416,-1.4189,-1.418,-1.3301,-1.2881,-1.2881,-1.2881,-1.2881,-1.2881,-1.2881,-1.2881,-1.3183,-1.6729,-1.8844,-1.9798,-1.9798,-1.7993,-1.5625,-1.7373,-1.8008,-1.8008,0.3037,0.3581,0.1674,-0.4448,-0.5229,-0.6343,-1.0321,-1.0582,-0.95,-0.7308,-0.5432,-0.4144,-0.3667,-0.3581,-0.3337,-0.2767,-0.4526,-0.6039,-0.6961,-0.7426,-0.8488,-1.0235,-0.9932,-1.0477,-1.201,-1.1899,-1.1805,-1.1805,-1.3095,-1.1199,-0.6212,-0.2981,-0.1243,-0.0851,-0.3249,-0.5594,-0.7908,-1.1196,-1.2826,-1.3012,-1.1094,-1.0283,-1.0283,-1.0283,-1.0283,-1.0283,-1.0283,-1.0283,-1.0283,-1.0283,-1.0283,-1.0283,-1.0283,-1.0283,-1.0283,-1.0283,-1.1514,-1.2881,-1.2881,-1.2881,-1.2881,-1.2881,-1.2881,-1.2881,-1.2881,-1.2881,-1.2881,-1.2881,-1.2881,-1.2881,-1.2881,-1.1758,-1.1279,-1.2656,-1.2881,-1.2402,-1.1067,-1.2012,-1.2881,-1.2881,-1.167,-1.084,-1.084,-1.0498,-1.0283,-1.0283,-0.8244,-0.6979,-0.6979,-0.8156,-0.8804,-0.8804,-1.0897,-1.2173,-1.2416,-1.3705,-1.4268,-1.3976,-1.325,-1.2881,-1.2881,-1.2881,-1.2881,-1.2881,-1.2881,-1.3086,-1.3719,-1.7352,-1.9254,-1.9747,-1.9085,-1.7701,-1.6084,-1.709,-1.7695,-1.8008,0.2716,0.3581,0.2679,-0.0179,-0.5664,-1.0407,-1.2603,-1.1431,-0.95,-0.7308,-0.6803,-0.5905,-0.384,-0.3581,-0.3337,-0.2767,-0.5246,-0.6907,-0.6972,-0.8893,-1.0079,-1.0283,-0.8799,-0.8019,-0.8228,-1.057,-1.1805,-1.1805,-1.432,-1.3474,-0.941,-0.7334,-0.5249,-0.3353,-0.5642,-0.7908,-1.004,-1.0428,-1.1579,-1.3012,-1.1094,-1.0283,-1.0283,-1.0283,-1.0283,-1.0283,-1.0283,-1.0283,-1.0283,-1.0283,-1.0283,-1.0283,-1.0283,-1.0283,-1.0283,-1.0283,-1.1514,-1.2881,-1.2881,-1.2881,-1.2881,-1.2881,-1.2881,-1.2881,-1.2881,-1.2881,-1.2881,-1.2881,-1.2881,-1.2881,-1.2881,-1.2754,-1.2695,-1.2852,-1.2881,-1.2822,-1.2666,-1.2773,-1.2881,-1.2881,-1.2734,-1.2637,-1.2637,-1.1211,-1.0283,-1.0283,-0.8244,-0.6979,-0.6979,-0.8156,-0.8804,-0.8804,-0.9061,-0.9695,-1.0808,-1.0996,-1.0492,-0.9439,-1.1772,-1.2881,-1.2881,-1.2881,-1.2881,-1.2881,-1.2881,-1.375,-1.5186,-1.5621,-1.739,-1.9527,-1.6834,-1.6614,-1.7598,-1.6182,-1.665,-1.8008,-0.0798,-0.1835,-0.3488,-0.5766,-0.8344,-1.0321,-1.1106,-1.1688,-1.1718,-1.0829,-0.8544,-0.6634,-0.5733,-0.4085,-0.3372,-0.4172,-0.5958,-0.6979,-0.6979,-0.7833,-0.8455,-0.8723,-0.7158,-0.6717,-0.7666,-0.9638,-1.1043,-1.1805,-1.2867,-1.2892,-1.1821,-0.8536,-0.7238,-0.7643,-0.8585,-0.9469,-1.0283,-1.0283,-1.1431,-1.3129,-1.2342,-1.1356,-1.0283,-1.0283,-1.0283,-1.0283,-1.0283,-1.0283,-1.0283,-1.0283,-1.0283,-1.0283,-1.0283,-1.0283,-1.0283,-1.0283,-1.0771,-1.1553,-1.2598,-1.2881,-1.2881,-1.2881,-1.2881,-1.2881,-1.2881,-1.2881,-1.2881,-1.2881,-1.2881,-1.2881,-1.2881,-1.2881,-1.2881,-1.2881,-1.2881,-1.2881,-1.2881,-1.2881,-1.249,-1.1445,-1.2379,-1.2615,-1.1446,-1.1641,-1.1406,-1.0361,-0.946,-0.8741,-0.8098,-0.855,-0.9132,-0.984,-0.986,-0.9746,-0.9512,-1.0268,-0.9967,-0.8871,-1.2591,-1.4394,-1.4394,-1.4394,-1.4394,-1.4394,-1.4394,-1.4785,-1.541,-1.541,-1.6073,-1.7058,-1.5853,-1.584,-1.6494,-1.6846,-1.7412,-1.8008,-0.4128,-0.644,-0.8319,-0.9354,-0.9735,-0.9905,-0.9905,-1.0741,-1.1578,-1.2155,-0.9297,-0.7188,-0.7188,-0.4975,-0.3946,-0.5182,-0.5547,-0.5951,-0.6467,-0.6513,-0.6637,-0.698,-0.589,-0.6044,-0.7666,-0.8706,-0.9894,-1.1227,-1.1615,-1.2281,-1.3116,-0.9614,-0.8812,-1.0283,-1.0283,-1.0283,-1.0361,-1.0916,-1.1945,-1.3198,-1.3198,-1.2054,-1.0283,-1.0283,-1.0283,-1.0283,-1.0283,-1.0283,-1.0283,-1.0283,-1.0283,-1.0283,-1.0283,-1.0283,-1.0283,-1.0283,-1.0283,-1.0664,-1.2412,-1.2881,-1.2881,-1.2881,-1.2881,-1.2881,-1.2881,-1.2881,-1.2881,-1.2881,-1.2881,-1.2881,-1.2881,-1.2881,-1.2881,-1.2881,-1.2881,-1.2881,-1.2881,-1.2881,-1.2422,-1.1191,-1.2347,-1.2425,-1.0505,-1.1396,-1.1655,-1.0371,-1.0752,-1.0549,-0.9305,-0.8964,-0.9185,-1.002,-1.0381,-0.9993,-0.8818,-0.9973,-0.9967,-0.8871,-1.3268,-1.541,-1.541,-1.541,-1.541,-1.541,-1.541,-1.541,-1.541,-1.541,-1.541,-1.541,-1.541,-1.541,-1.5625,-1.7373,-1.8008,-1.8008,-0.6507,-0.8731,-0.9709,-0.8016,-0.8937,-0.9905,-0.9905,-0.8298,-0.7777,-0.9685,-0.8628,-0.7695,-0.7695,-0.6237,-0.5284,-0.5309,-0.3733,-0.3475,-0.5202,-0.5336,-0.5329,-0.534,-0.5316,-0.6044,-0.7666,-0.7725,-0.8456,-0.9931,-1.1182,-1.2281,-1.3163,-1.1159,-1.0283,-1.0283,-1.0283,-1.0283,-1.0428,-1.2354,-1.3198,-1.3198,-1.3198,-1.2054,-1.0283,-1.0283,-1.0283,-1.0283,-1.0283,-1.0283,-1.0283,-1.0283,-1.0283,-1.0283,-1.0283,-1.0283,-1.0283,-1.0283,-1.0283,-1.0664,-1.2412,-1.2881,-1.2881,-1.2881,-1.2881,-1.2881,-1.2881,-1.2881,-1.2881,-1.2881,-1.2881,-1.2881,-1.2881,-1.2881,-1.2881,-1.2881,-1.2881,-1.2881,-1.2881,-1.2881,-1.2871,-1.2852,-1.3082,-1.2425,-1.0505,-1.0303,-1.0303,-1.0283,-1.1875,-1.2109,-1.0361,-0.9351,-0.8818,-0.8831,-0.9953,-0.9993,-0.8818,-0.9973,-0.9967,-0.8871,-1.3268,-1.541,-1.541,-1.541,-1.541,-1.541,-1.541,-1.541,-1.541,-1.541,-1.541,-1.541,-1.541,-1.541,-1.5625,-1.7373,-1.8008,-1.8008,-0.655,-0.8772,-0.9394,-0.657,-0.6463,-0.7483,-0.9583,-0.938,-0.8836,-0.8446,-0.8004,-0.7695,-0.7695,-0.626,-0.5742,-0.6837,-0.4338,-0.2944,-0.3495,-0.4628,-0.5309,-0.5309,-0.5309,-0.5522,-0.6044,-0.6075,-0.682,-0.841,-1.1332,-1.2226,-1.1244,-1.1945,-1.1568,-1.0283,-1.0283,-1.0283,-1.0428,-1.2389,-1.3901,-1.4876,-1.3682,-1.2826,-1.2126,-1.0802,-1.0283,-1.0283,-1.0283,-1.0283,-1.0283,-1.0283,-1.0283,-1.0283,-1.0283,-1.0283,-1.0283,-1.0283,-1.0283,-1.04,-1.0998,-1.1113,-1.1113,-1.1113,-1.1113,-1.1113,-1.1113,-1.2031,-1.2881,-1.2881,-1.2881,-1.2881,-1.2881,-1.2881,-1.2881,-1.2881,-1.2881,-1.2881,-1.2881,-1.434,-1.4744,-1.3113,-1.2976,-1.2795,-1.2338,-1.2282,-1.2282,-1.2282,-1.2663,-1.2637,-1.208,-1.1783,-1.1601,-1.1601,-1.0124,-0.9573,-1.0,-1.0436,-1.0436,-1.0067,-1.3658,-1.541,-1.541,-1.541,-1.541,-1.541,-1.541,-1.541,-1.541,-1.541,-1.541,-1.541,-1.541,-1.6143,-1.7246,-1.7812,-1.8008,-1.8008,-0.5432,-0.7522,-0.8464,-0.6538,-0.6199,-0.6841,-0.8767,-0.9542,-0.9569,-0.8651,-0.8052,-0.7452,-0.68,-0.582,-0.5626,-0.6646,-0.4453,-0.3003,-0.3003,-0.3827,-0.4333,-0.4333,-0.4333,-0.4333,-0.4333,-0.4953,-0.6075,-0.7695,-1.0664,-1.1505,-1.0361,-1.2282,-1.2532,-1.1356,-1.0621,-1.0283,-1.04,-1.1616,-1.3166,-1.4721,-1.3648,-1.3198,-1.3082,-1.1836,-1.0954,-1.0283,-1.0283,-1.0283,-1.0283,-1.0283,-1.0283,-1.0283,-1.0283,-1.0283,-1.0283,-1.0283,-1.0283,-1.0283,-1.0283,-1.0283,-1.0283,-1.0283,-1.0283,-1.0283,-1.0283,-1.1123,-1.209,-1.2754,-1.2363,-1.2109,-1.2764,-1.2881,-1.2881,-1.2881,-1.2881,-1.2881,-1.2881,-1.4245,-1.4648,-1.3082,-1.2305,-1.2572,-1.4285,-1.3686,-1.3198,-1.3198,-1.3011,-1.3154,-1.3799,-1.3223,-1.2421,-1.1401,-0.9673,-0.9158,-0.9893,-1.0341,-1.0624,-1.0624,-1.3837,-1.541,-1.541,-1.541,-1.541,-1.541,-1.541,-1.541,-1.5294,-1.4076,-1.4323,-1.5478,-1.6133,-1.7051,-1.8008,-1.8008,-1.8008,-1.8008,-0.3581,-0.5432,-0.7144,-0.7562,-0.7684,-0.7695,-0.7695,-0.8871,-0.9714,-0.9591,-0.8372,-0.6924,-0.5383,-0.5146,-0.5108,-0.5108,-0.4109,-0.3506,-0.3506,-0.304,-0.2733,-0.2712,-0.2712,-0.2746,-0.2878,-0.4468,-0.6075,-0.7695,-0.9576,-1.0505,-1.0544,-1.2342,-1.3198,-1.3116,-1.1319,-1.0428,-1.0283,-1.0283,-1.1356,-1.3012,-1.3163,-1.3198,-1.3198,-1.3198,-1.209,-1.0467,-1.0361,-1.0283,-1.0283,-1.0283,-1.0283,-1.0283,-1.0283,-1.0283,-1.0283,-1.0283,-1.0283,-1.0283,-1.0283,-1.0283,-1.0283,-1.0283,-1.0283,-1.0283,-1.0283,-1.0283,-1.0742,-1.2373,-1.1406,-1.0781,-1.2402,-1.2803,-1.2881,-1.2881,-1.2773,-1.2705,-1.2705,-1.2888,-1.2919,-1.2735,-1.127,-1.1863,-1.5856,-1.4412,-1.3261,-1.3423,-1.3001,-1.3496,-1.5312,-1.3799,-1.1651,-0.891,-0.8804,-0.8844,-0.8925,-1.0013,-1.0681,-1.0989,-1.3957,-1.541,-1.541,-1.541,-1.541,-1.541,-1.5167,-1.505,-1.4805,-1.1841,-1.2381,-1.5222,-1.692,-1.7794,-1.8008,-1.8008,-1.8008,-1.8008,-0.3581,-0.5432,-0.7052,-0.7162,-0.7475,-0.7695,-0.7695,-0.7994,-0.7729,-0.6414,-0.5926,-0.5848,-0.62,-0.5555,-0.5108,-0.5108,-0.4109,-0.3506,-0.3506,-0.3393,-0.3142,-0.2728,-0.2712,-0.3331,-0.466,-0.5087,-0.6075,-0.7695,-1.0934,-1.2496,-1.2532,-1.2978,-1.3198,-1.3198,-1.272,-1.1689,-1.0283,-1.0283,-1.0582,-1.1132,-1.2603,-1.3198,-1.3198,-1.3198,-1.2908,-1.2318,-1.084,-1.0283,-1.0283,-1.0283,-1.0283,-1.0283,-1.0283,-1.0283,-1.0283,-1.0283,-1.0283,-1.0283,-1.0283,-1.0283,-1.0283,-1.0283,-1.0283,-1.0283,-1.0283,-1.0283,-1.044,-1.0811,-1.0576,-1.041,-1.082,-1.1982,-1.2881,-1.2881,-1.1768,-1.0898,-1.0898,-1.0962,-1.0966,-1.0931,-1.0527,-1.1204,-1.3528,-1.3407,-1.3899,-1.5577,-1.2754,-1.2217,-1.5254,-1.3799,-1.1651,-0.891,-0.8804,-0.9239,-1.0134,-1.0483,-1.1841,-1.4255,-1.505,-1.541,-1.541,-1.541,-1.541,-1.5235,-1.281,-1.1717,-1.1655,-1.0926,-1.1045,-1.1844,-1.3152,-1.5438,-1.8008,-1.8008,-1.8008,-1.8008,-0.5056,-0.6161,-0.6854,-0.6319,-0.6428,-0.6595,-0.6595,-0.7235,-0.7073,-0.5341,-0.5499,-0.6147,-0.7093,-0.6713,-0.6223,-0.5834,-0.4835,-0.4027,-0.3527,-0.3506,-0.3627,-0.3879,-0.3881,-0.4674,-0.6352,-0.6382,-0.7168,-0.8706,-1.0719,-1.261,-1.4374,-1.3581,-1.3198,-1.3198,-1.3198,-1.2603,-1.1579,-1.0687,-0.9834,-0.9273,-1.0995,-1.2296,-1.3198,-1.3198,-1.3198,-1.3047,-1.2018,-1.1057,-1.0283,-1.0283,-1.0283,-1.0283,-1.0283,-1.0283,-1.0283,-1.0283,-1.0283,-1.0283,-1.0283,-1.0283,-1.0283,-1.0283,-1.0283,-1.0283,-1.0283,-1.0283,-1.0283,-1.0283,-1.0283,-1.0283,-1.0283,-1.1055,-1.1689,-1.1689,-1.0898,-1.0283,-1.0283,-1.0283,-1.0616,-1.1377,-1.1475,-1.1846,-1.2793,-1.3019,-1.3227,-1.362,-1.2288,-1.2285,-1.416,-1.3379,-1.1651,-0.891,-0.9332,-0.9913,-1.0618,-1.0624,-1.2205,-1.541,-1.541,-1.541,-1.541,-1.541,-1.541,-1.5235,-1.202,-1.0624,-1.0665,-1.1136,-1.1356,-1.1423,-1.2058,-1.3585,-1.5579,-1.7364,-1.8008,-1.8008,-0.6606,-0.676,-0.6446,-0.5451,-0.5309,-0.5309,-0.5309,-0.6656,-0.7126,-0.5533,-0.6081,-0.6927,-0.7797,-0.7899,-0.7635,-0.7015,-0.6077,-0.5011,-0.3828,-0.3751,-0.4198,-0.523,-0.5414,-0.6129,-0.7517,-0.7863,-0.8651,-0.9905,-1.0097,-1.1919,-1.5171,-1.3672,-1.2882,-1.2697,-1.2697,-1.2697,-1.2585,-1.0959,-0.9382,-0.8138,-0.9384,-1.1035,-1.2697,-1.2697,-1.2697,-1.2747,-1.3073,-1.2126,-1.0687,-1.039,-1.0283,-1.0283,-1.0283,-1.0283,-1.0283,-1.0283,-1.0283,-1.0283,-1.0283,-1.0283,-1.0361,-1.0649,-1.0505,-1.0283,-1.0283,-1.0283,-1.0283,-1.0283,-1.0283,-1.0283,-1.0283,-1.0538,-1.0626,-1.0322,-1.0283,-1.0371,-1.0645,-1.0674,-1.1221,-1.2705,-1.2881,-1.2881,-1.2881,-1.2881,-1.2266,-1.0781,-1.2041,-1.2881,-1.2881,-1.3125,-1.2006,-0.9173,-1.004,-1.0624,-1.0624,-1.0624,-1.1958,-1.4678,-1.5167,-1.5547,-1.5801,-1.5801,-1.5492,-1.479,-1.1862,-1.0624,-1.0712,-1.1817,-1.2305,-1.2305,-1.2305,-1.2305,-1.2659,-1.5939,-1.751,-1.8008,-0.58,-0.5551,-0.5491,-0.5342,-0.5309,-0.5309,-0.5309,-0.6656,-0.7382,-0.6479,-0.65,-0.6927,-0.7797,-0.7899,-0.808,-0.8498,-0.7879,-0.6724,-0.4972,-0.4853,-0.4944,-0.5129,-0.5938,-0.6514,-0.678,-0.8609,-0.9659,-0.9905,-1.0973,-1.1822,-1.2418,-1.2135,-1.1446,-1.042,-1.042,-1.042,-1.0381,-1.0095,-0.9791,-0.9569,-0.9816,-1.0106,-1.042,-1.042,-1.042,-1.0671,-1.2522,-1.3012,-1.2496,-1.084,-1.0283,-1.0283,-1.0283,-1.0283,-1.0283,-1.0283,-1.0283,-1.0283,-1.0283,-1.0283,-1.0687,-1.2342,-1.1505,-1.0283,-1.0283,-1.0283,-1.0283,-1.0283,-1.0283,-1.0283,-1.0283,-1.1484,-1.1992,-1.0518,-1.0283,-1.0791,-1.2266,-1.248,-1.2578,-1.2852,-1.2881,-1.2881,-1.2881,-1.2881,-1.2773,-1.25,-1.2734,-1.2881,-1.2881,-1.4238,-1.3593,-1.0411,-1.053,-1.0624,-1.0624,-1.0624,-1.087,-1.1351,-1.4076,-1.6182,-1.7607,-1.7607,-1.5857,-1.2664,-1.1245,-1.0624,-1.0712,-1.1817,-1.2305,-1.2305,-1.2305,-1.2305,-1.2372,-1.2945,-1.5226,-1.8008,-0.5448,-0.5199,-0.5501,-0.6424,-0.6595,-0.6595,-0.6595,-0.6885,-0.6976,-0.6636,-0.7009,-0.7453,-0.7856,-0.8229,-0.8559,-0.8869,-0.862,-0.808,-0.7198,-0.6376,-0.5907,-0.5907,-0.636,-0.6824,-0.7298,-0.8305,-0.881,-0.881,-0.9413,-1.0413,-1.1805,-1.1805,-1.149,-1.0902,-1.021,-0.9905,-0.9905,-0.9905,-0.9905,-0.9905,-0.9905,-0.9905,-0.9905,-0.9905,-0.9905,-1.0194,-1.2397,-1.3198,-1.3047,-1.2162,-1.1169,-1.0283,-1.0283,-1.0283,-1.0283,-1.0283,-1.0283,-1.0283,-1.0283,-1.0283,-1.0505,-1.1431,-1.0943,-1.0283,-1.0283,-1.0283,-1.0283,-1.0283,-1.0283,-1.0283,-1.0283,-1.0937,-1.1221,-1.041,-1.1106,-1.1963,-1.2764,-1.207,-1.1826,-1.2773,-1.2881,-1.2881,-1.2881,-1.2881,-1.2881,-1.2881,-1.2881,-1.2881,-1.2881,-1.4492,-1.3957,-1.0681,-1.0624,-1.0624,-1.0624,-1.0624,-1.0624,-1.0624,-1.2081,-1.3222,-1.3999,-1.3999,-1.3076,-1.1369,-1.1463,-1.1503,-1.1543,-1.2078,-1.2305,-1.2305,-1.2305,-1.2305,-1.2519,-1.4585,-1.6507,-1.8008,-0.5638,-0.5442,-0.5868,-0.722,-0.7429,-0.7429,-0.7429,-0.7394,-0.7465,-0.7769,-0.7871,-0.7899,-0.7899,-0.8497,-0.8891,-0.8891,-0.8891,-0.8891,-0.8891,-0.7793,-0.7066,-0.6911,-0.6908,-0.7219,-0.7885,-0.7899,-0.7899,-0.7899,-0.7899,-0.8934,-1.0892,-1.0892,-1.1221,-1.1747,-1.047,-0.9905,-0.9905,-0.9905,-0.9905,-0.9905,-0.9905,-0.9905,-0.9905,-0.9905,-0.9905,-1.0194,-1.2397,-1.3198,-1.3129,-1.2685,-1.1542,-1.0283,-1.0283,-1.0283,-1.0283,-1.0283,-1.0283,-1.0283,-1.0283,-1.0283,-1.0283,-1.0283,-1.0283,-1.0283,-1.0283,-1.0283,-1.0283,-1.0283,-1.0283,-1.0283,-1.0283,-1.0615,-1.0752,-1.0391,-1.1738,-1.2881,-1.2881,-1.1728,-1.1387,-1.2725,-1.3232,-1.3311,-1.292,-1.2881,-1.2881,-1.2881,-1.3252,-1.3291,-1.29,-1.4492,-1.3957,-1.0681,-1.0624,-1.0624,-1.0624,-1.0624,-1.0624,-1.0624,-1.09,-1.0969,-1.0969,-1.0969,-1.0815,-1.0692,-1.1797,-1.2151,-1.1917,-1.2191,-1.2305,-1.2305,-1.2305,-1.2872,-1.4011,-1.6932,-1.8008,-1.8008,-0.6659,-0.6483,-0.6532,-0.6656,-0.6693,-0.6693,-0.6693,-0.8383,-1.0072,-1.1256,-0.9362,-0.7899,-0.7899,-0.8497,-0.8891,-0.8891,-0.8891,-0.8891,-0.8891,-0.8795,-0.8456,-0.7827,-0.7797,-0.7841,-0.7899,-0.7899,-0.7899,-0.7899,-0.7899,-0.8004,-0.8184,-0.8184,-0.9488,-1.1747,-1.047,-0.9905,-0.9905,-0.9905,-0.9905,-0.9905,-0.9905,-0.9905,-0.9905,-0.9905,-0.9905,-1.0194,-1.2397,-1.3198,-1.2943,-1.1132,-1.0428,-1.0283,-1.0283,-1.0283,-1.0283,-1.0283,-1.0283,-1.0283,-1.0283,-1.0283,-1.0283,-1.0283,-1.0283,-1.0283,-1.0283,-1.0283,-1.0283,-1.0283,-1.0283,-1.0283,-1.0283,-1.1602,-1.2158,-1.0547,-1.1738,-1.2881,-1.2881,-1.2773,-1.2734,-1.2861,-1.4268,-1.4609,-1.3037,-1.2881,-1.2881,-1.2881,-1.4336,-1.4541,-1.2969,-1.4492,-1.3957,-1.0681,-1.0624,-1.0624,-1.0624,-1.0624,-1.0624,-1.0638,-1.1657,-1.2171,-1.2171,-1.2171,-1.1583,-1.0692,-1.1797,-1.169,-1.0833,-1.1857,-1.2305,-1.2305,-1.2305,-1.4442,-1.7579,-1.7872,-1.8008,-1.8008,-0.7469,-0.7407,-0.7235,-0.6689,-0.6599,-0.6599,-0.6599,-0.7313,-0.8508,-1.0379,-0.8563,-0.7298,-0.7841,-0.8121,-0.8447,-0.8869,-0.8891,-0.8891,-0.8891,-0.8891,-0.8595,-0.7928,-0.7899,-0.7899,-0.7899,-0.7899,-0.7899,-0.7899,-0.7899,-0.7899,-0.7929,-0.9563,-0.998,-0.9424,-1.0563,-1.064,-0.9905,-0.9905,-0.9905,-0.9905,-0.9905,-0.9905,-0.9905,-0.9905,-0.9905,-1.0006,-1.086,-1.2033,-1.2896,-1.0954,-1.0283,-1.0283,-1.0283,-1.0283,-1.0283,-1.0283,-1.0283,-1.0,-0.861,-0.9262,-1.0283,-1.0283,-1.0283,-1.0283,-1.0283,-1.0283,-1.0283,-1.0283,-1.0283,-1.0615,-1.1699,-1.2432,-1.2666,-1.2002,-1.2451,-1.2881,-1.2881,-1.3789,-1.4453,-1.4453,-1.5019,-1.4746,-1.3047,-1.3828,-1.4453,-1.4453,-1.4072,-1.3564,-1.291,-1.4492,-1.4864,-1.3597,-1.3597,-1.3597,-1.3597,-1.1593,-1.0624,-1.0638,-1.1744,-1.2305,-1.2278,-1.155,-1.0982,-1.0692,-1.1797,-1.2051,-1.1677,-1.2118,-1.2305,-1.2305,-1.2305,-1.4657,-1.8135,-1.9199,-1.8926,-1.8008,-0.7899,-0.7899,-0.7709,-0.7107,-0.7009,-0.7009,-0.7009,-0.6774,-0.7388,-0.9617,-0.8587,-0.7597,-0.7507,-0.7739,-0.808,-0.8547,-0.8583,-0.8583,-0.8583,-0.8583,-0.8383,-0.7928,-0.7899,-0.7899,-0.7899,-0.7899,-0.7899,-0.7899,-0.7899,-0.7899,-0.7944,-0.9725,-0.9605,-0.8019,-1.0623,-1.1089,-0.9905,-0.9905,-0.9905,-0.9905,-0.9905,-0.9905,-0.9905,-0.9905,-0.9905,-0.9905,-0.9905,-1.1337,-1.2896,-1.0954,-1.0283,-1.0283,-1.0283,-1.0283,-1.0157,-0.946,-0.9262,-0.8933,-0.7426,-0.8121,-0.943,-1.0118,-0.9795,-0.946,-1.0157,-1.0283,-1.0283,-1.0283,-1.0283,-1.0555,-1.1465,-1.2323,-1.2881,-1.2881,-1.2881,-1.2881,-1.2881,-1.3887,-1.4814,-1.5352,-1.4941,-1.4375,-1.374,-1.4727,-1.541,-1.541,-1.4336,-1.3238,-1.2228,-1.4251,-1.541,-1.541,-1.541,-1.541,-1.541,-1.3235,-1.1593,-1.0631,-1.1369,-1.1944,-1.2278,-1.147,-1.1109,-1.1149,-1.1951,-1.2305,-1.2305,-1.2305,-1.2305,-1.2445,-1.3585,-1.6011,-1.8887,-1.9521,-1.9023,-1.8008,-0.7899,-0.7899,-0.7899,-0.7899,-0.7899,-0.7899,-0.7899,-0.7155,-0.7388,-0.9592,-0.988,-0.9039,-0.6837,-0.7376,-0.7899,-0.7899,-0.7899,-0.7899,-0.7899,-0.7899,-0.7899,-0.7899,-0.7899,-0.7899,-0.7899,-0.7899,-0.7899,-0.7899,-0.7899,-0.7899,-0.7899,-0.7914,-0.7929,-0.8049,-1.0638,-1.1089,-0.9905,-0.9905,-0.9905,-0.9905,-0.9905,-0.9905,-0.9905,-0.9905,-0.9905,-0.9905,-0.9905,-1.1295,-1.2871,-1.096,-1.0312,-1.0283,-1.0283,-1.0283,-0.9873,-0.7675,-0.7021,-0.6979,-0.6979,-0.6979,-0.7509,-0.9707,-0.861,-0.7592,-0.9795,-1.0283,-1.0283,-1.0283,-1.0283,-0.9998,-0.8987,-1.1049,-1.2881,-1.2881,-1.2881,-1.2881,-1.2881,-1.2891,-1.3525,-1.5205,-1.3916,-1.3545,-1.5244,-1.541,-1.54,-1.5391,-1.54,-1.4016,-1.0744,-1.3657,-1.541,-1.541,-1.541,-1.541,-1.541,-1.541,-1.3777,-1.0624,-1.0631,-1.1249,-1.2372,-1.2298,-1.2305,-1.2305,-1.2305,-1.2305,-1.2305,-1.2305,-1.2305,-1.2659,-1.6524,-1.9072,-2.0361,-1.8652,-1.8027,-1.8027,-0.7899,-0.7899,-0.7899,-0.7899,-0.7899,-0.7899,-0.7899,-0.7155,-0.6837,-0.7488,-0.7576,-0.7325,-0.6674,-0.6841,-0.7235,-0.7856,-0.7899,-0.7899,-0.7899,-0.7899,-0.7899,-0.7899,-0.7899,-0.7899,-0.7899,-0.7899,-0.7899,-0.7899,-0.7899,-0.7899,-0.7944,-0.977,-1.0638,-1.0629,-1.0524,-1.026,-0.9905,-0.9905,-0.9905,-0.9905,-0.9905,-0.9905,-0.9905,-0.9905,-0.9905,-0.9905,-0.9905,-1.032,-1.08,-1.0197,-1.0141,-1.0283,-1.0283,-1.0283,-1.0157,-0.9509,-0.8203,-0.6979,-0.6979,-0.6979,-0.7147,-0.7841,-0.7467,-0.7182,-0.7833,-0.7998,-0.8407,-1.0,-1.0283,-0.9998,-0.8987,-0.9472,-1.0028,-1.0028,-1.0028,-1.0694,-1.2627,-1.3906,-1.4844,-1.5352,-1.3916,-1.3545,-1.5244,-1.541,-1.4912,-1.3721,-1.4736,-1.4016,-1.0744,-1.3657,-1.541,-1.541,-1.541,-1.541,-1.541,-1.541,-1.4923,-1.3965,-1.5212,-1.599,-1.6228,-1.3513,-1.2305,-1.2305,-1.2305,-1.2305,-1.2305,-1.2305,-1.2305,-1.2815,-1.7868,-2.0117,-2.0498,-1.999,-1.9805,-1.9805,-0.7957,-0.7899,-0.7899,-0.7899,-0.7899,-0.7899,-0.7899,-0.7453,-0.6993,-0.6651,-0.6599,-0.6599,-0.6599,-0.6599,-0.6807,-0.7345,-0.7694,-0.7899,-0.7899,-0.7899,-0.7899,-0.7899,-0.8149,-0.8176,-0.7899,-0.7899,-0.7899,-0.7899,-0.7899,-0.7899,-0.7929,-0.9516,-1.0249,-1.0256,-1.001,-0.9905,-0.9905,-0.9905,-0.9905,-0.9905,-0.9905,-0.9905,-0.9905,-0.9905,-0.9905,-0.9905,-0.9905,-0.9905,-0.9905,-0.9905,-1.0084,-1.0283,-1.0283,-1.0283,-1.0283,-1.0283,-0.9341,-0.8121,-0.7224,-0.7634,-0.8285,-0.8285,-0.7634,-0.6979,-0.6979,-0.7675,-0.8691,-1.004,-1.0283,-0.9998,-0.8987,-0.8804,-0.8804,-0.8804,-0.8804,-0.9368,-1.1049,-1.3103,-1.4658,-1.5332,-1.4512,-1.4287,-1.5312,-1.3807,-1.2578,-1.2049,-1.2905,-1.2626,-1.0681,-1.3657,-1.541,-1.541,-1.541,-1.541,-1.541,-1.541,-1.541,-1.542,-1.6484,-1.7344,-1.7872,-1.4019,-1.2305,-1.2305,-1.2305,-1.2305,-1.2305,-1.2305,-1.2305,-1.2802,-1.7705,-1.9551,-1.9639,-2.0312,-2.0566,-2.0566,-0.8108,-0.7942,-0.7899,-0.7899,-0.7899,-0.7899,-0.7899,-0.7899,-0.762,-0.6824,-0.6651,-0.6633,-0.6706,-0.6706,-0.6685,-0.6599,-0.7392,-0.7899,-0.7899,-0.7899,-0.7899,-0.7899,-0.8485,-0.8522,-0.7914,-0.7899,-0.7899,-0.7899,-0.7899,-0.7899,-0.7899,-0.7899,-0.7899,-0.796,-0.9409,-1.0021,-0.9905,-0.9905,-0.9905,-0.9905,-0.9905,-0.9905,-0.9905,-0.9905,-0.9905,-0.9905,-0.9905,-0.9905,-0.9931,-1.0131,-1.023,-1.0283,-1.0283,-1.0283,-1.0283,-1.0283,-1.0283,-0.9873,-0.7841,-0.8772,-1.0283,-1.0283,-0.8772,-0.7308,-0.7308,-0.8852,-1.0283,-1.0283,-1.0157,-0.9747,-0.8936,-0.8804,-0.8804,-0.8804,-0.8804,-0.8804,-0.8804,-1.0947,-1.3138,-1.4792,-1.5225,-1.5294,-1.4982,-1.136,-0.9406,-1.0544,-1.0624,-1.0624,-1.0624,-1.3356,-1.5108,-1.541,-1.541,-1.541,-1.541,-1.5566,-1.5566,-1.541,-1.541,-1.6123,-1.7364,-1.3875,-1.2305,-1.2305,-1.2305,-1.2305,-1.2305,-1.2305,-1.2305,-1.2659,-1.6149,-1.7527,-1.7919,-1.9829,-2.0566,-2.0566,-0.8703,-0.8253,-0.7899,-0.7899,-0.7899,-0.7899,-0.7899,-0.7899,-0.7841,-0.765,-0.7026,-0.6858,-0.7545,-0.762,-0.7345,-0.6668,-0.7392,-0.7899,-0.7899,-0.7899,-0.7899,-0.7899,-0.804,-0.8054,-0.7899,-0.7899,-0.7899,-0.7899,-0.7899,-0.7899,-0.7899,-0.7899,-0.7899,-0.8005,-1.0351,-1.0831,-0.9905,-0.9905,-0.9905,-0.9905,-0.9905,-0.9905,-0.9905,-0.9905,-0.9905,-0.9905,-0.9905,-0.9905,-1.0169,-1.1883,-1.1511,-1.0283,-1.0283,-1.0283,-1.0283,-1.0283,-1.0283,-1.0205,-0.9707,-0.9913,-1.0283,-1.0283,-0.9952,-0.9588,-0.9588,-0.9952,-1.0283,-1.0283,-0.8933,-0.7946,-0.8687,-0.8804,-0.8804,-0.8804,-0.8804,-0.8804,-0.8804,-0.9316,-1.0151,-1.1507,-1.3897,-1.4442,-1.1896,-1.0746,-1.0349,-1.0604,-1.0624,-1.0624,-1.0624,-1.1233,-1.281,-1.5294,-1.541,-1.541,-1.541,-1.6758,-1.6758,-1.541,-1.541,-1.4772,-1.352,-1.2659,-1.2305,-1.2305,-1.2305,-1.2305,-1.2305,-1.2305,-1.2305,-1.2372,-1.323,-1.4146,-1.5403,-1.9215,-2.0566,-2.0566,-0.8891,-0.862,-0.8267,-0.7957,-0.7899,-0.7899,-0.7899,-0.7899,-0.7899,-0.7899,-0.7499,-0.7392,-0.7856,-0.7899,-0.7709,-0.7266,-0.7251,-0.7282,-0.7282,-0.7282,-0.7469,-0.7885,-0.7899,-0.7899,-0.7899,-0.7899,-0.7899,-0.7899,-0.7899,-0.7899,-0.7899,-0.7899,-0.7899,-0.8019,-1.0623,-1.1423,-1.0784,-1.016,-0.9905,-0.9905,-0.9905,-0.9905,-0.9905,-0.9905,-0.9905,-0.9905,-0.9905,-0.9905,-1.0244,-1.2447,-1.1909,-1.0283,-1.0283,-1.0283,-1.0283,-1.0283,-1.0283,-1.0283,-1.0283,-1.0283,-1.0283,-1.0283,-1.0283,-1.0283,-1.0283,-1.0283,-1.0,-0.8933,-0.7792,-0.7214,-0.7842,-0.8424,-0.8804,-0.8804,-0.8804,-0.8804,-0.8804,-0.8804,-0.9031,-0.9653,-1.1236,-1.1831,-1.069,-1.0053,-0.996,-1.0577,-1.0624,-1.0624,-1.0624,-1.0624,-1.1351,-1.3053,-1.4619,-1.5811,-1.6641,-1.7549,-1.7549,-1.6641,-1.425,-1.2845,-1.2305,-1.2305,-1.2305,-1.2305,-1.2305,-1.2305,-1.2305,-1.2305,-1.2305,-1.2305,-1.2305,-1.3033,-1.4419,-1.6683,-1.878,-2.0566,-0.8891,-0.8485,-0.7972,-0.7416,-0.7316,-0.7455,-0.7839,-0.751,-0.7225,-0.7225,-0.7614,-0.7899,-0.7899,-0.7899,-0.7899,-0.7899,-0.7107,-0.6599,-0.6599,-0.6599,-0.6911,-0.765,-0.7679,-0.7739,-0.7899,-0.7899,-0.7899,-0.7899,-0.7899,-0.7899,-0.7899,-0.7899,-0.7899,-0.8019,-1.0623,-1.1805,-1.1725,-1.0664,-1.0084,-0.9905,-0.9905,-0.9905,-0.9905,-0.9905,-0.9905,-0.9905,-0.9905,-0.9905,-1.0182,-1.2008,-1.1572,-1.0281,-1.0661,-1.0582,-1.0283,-1.0283,-1.0283,-1.0283,-1.0283,-1.0283,-1.0283,-1.0283,-1.0283,-1.0283,-1.0283,-0.9991,-0.9222,-0.7391,-0.7145,-0.7328,-0.7328,-0.8136,-0.8804,-0.8804,-0.8804,-0.8804,-0.8804,-0.8804,-0.8804,-0.8804,-0.8985,-0.9492,-1.053,-0.9679,-0.9512,-1.0551,-1.0624,-1.0624,-1.0624,-1.0624,-1.0624,-1.0624,-1.3174,-1.5675,-1.7988,-1.7364,-1.7364,-1.792,-1.3162,-1.1369,-1.2305,-1.2305,-1.2305,-1.2305,-1.2305,-1.2305,-1.2305,-1.2305,-1.2305,-1.2325,-1.2525,-1.3213,-1.4088,-1.4088,-1.6363,-1.9511,-0.8891,-0.6842,-0.5065,-0.4979,-0.4965,-0.5624,-0.7609,-0.5925,-0.4436,-0.4436,-0.6449,-0.7899,-0.7899,-0.7899,-0.7899,-0.7899,-0.7107,-0.6599,-0.6599,-0.6599,-0.6651,-0.6774,-0.6774,-0.7123,-0.7885,-0.7899,-0.7899,-0.7899,-0.7899,-0.7899,-0.7899,-0.7899,-0.7899,-0.8019,-1.0623,-1.1805,-1.1805,-1.1615,-1.0926,-0.9905,-0.9905,-0.9905,-0.9905,-0.9905,-0.9905,-0.9905,-0.9905,-0.9905,-0.9943,-1.0257,-1.017,-1.0306,-1.2207,-1.1653,-1.0283,-1.0283,-1.0283,-1.0283,-1.0283,-1.0283,-1.0283,-1.0283,-1.0283,-1.0283,-1.0283,-0.8812,-0.7349,-0.7063,-0.7842,-0.8564,-0.8564,-0.8697,-0.8804,-0.8804,-0.8804,-0.8804,-0.8804,-0.8804,-0.8804,-0.8804,-0.9706,-1.045,-1.0611,-1.0477,-1.045,-1.0611,-1.0624,-1.0624,-1.0624,-1.0624,-1.0624,-1.0624,-1.1052,-1.3437,-1.7988,-1.4728,-1.4728,-1.794,-1.3978,-1.2151,-1.2305,-1.2305,-1.2305,-1.2305,-1.2305,-1.2305,-1.2305,-1.2305,-1.2305,-1.2405,-1.344,-1.3948,-1.4088,-1.4088,-1.4496,-1.4985,-0.8891,-0.652,-0.4499,-0.4499,-0.4499,-0.4833,-0.5842,-0.4802,-0.3906,-0.3906,-0.6239,-0.7899,-0.7899,-0.7899,-0.7899,-0.7899,-0.7545,-0.7123,-0.6633,-0.6599,-0.6599,-0.6599,-0.6599,-0.6774,-0.7171,-0.7171,-0.7171,-0.7171,-0.7171,-0.7422,-0.7899,-0.7899,-0.8679,-1.0129,-1.1281,-1.1805,-1.1805,-1.1805,-1.1066,-0.9905,-0.9905,-0.9905,-0.9905,-0.9905,-0.9905,-0.9905,-0.9905,-0.9905,-0.9905,-0.9905,-0.9905,-1.0295,-1.2497,-1.2615,-1.1726,-1.0621,-1.0283,-1.0283,-1.0283,-1.0283,-0.9991,-0.8772,-0.8448,-0.8448,-0.8448,-0.7716,-0.7214,-0.7882,-0.8437,-0.8804,-0.8804,-0.8804,-0.8804,-0.8804,-0.8804,-0.8804,-0.8804,-0.8804,-0.8804,-0.8804,-0.9265,-0.9579,-0.9579,-1.0174,-1.0624,-1.0624,-1.0624,-1.0624,-1.0624,-1.0624,-1.0624,-1.0624,-1.1189,-1.2598,-1.4791,-1.3164,-1.3157,-1.4799,-1.3091,-1.2305,-1.2305,-1.2305,-1.2305,-1.2305,-1.2305,-1.2305,-1.2305,-1.2305,-1.2305,-1.2351,-1.2886,-1.35,-1.4088,-1.4088,-1.3667,-1.3186]},{"header":{"parameterUnit":"m.s-1","parameterCategory":1,"la1":30.6,"la2":28.766,"lo1":-90.7593,"lo2":-88.6598,"dy":0.0162,"dx":0.0183,"nx":116,"ny":114,"refTime":"2023-06-06T12:00:00:Z","depth":0,"parameterNumber":3,"parameterNumberName":"V-component_of_WINDS"},"data":[0.0,0.0,0.0,0.0,0.0,0.0,0.0,0.0,0.0,0.0,0.0,0.0,0.0,0.0,0.0,0.0,0.0,0.0,0.0,0.0,0.0,0.0,0.0,0.0,0.0,0.0,0.0,0.0,0.0,0.0,0.0,0.0,0.0,0.0,0.0,0.0,0.0,0.0,0.0,0.0,0.0,0.0,0.0,0.0,0.0,0.0,0.0,0.0,0.0,0.0,0.0,0.0,0.0,0.0,0.0,0.0,0.0,0.0,0.0,0.0,0.0,0.0,0.0,0.0,0.0,0.0,0.0,0.0,0.0,0.0,0.0,0.0,0.0,0.0,0.0,0.0,0.0,0.0,0.0,0.0,0.0,0.0,0.0,0.0,0.0,0.0,0.0,0.0,0.0,0.0,0.0,0.0,0.0,0.0,0.0,0.0,0.0,0.0,0.0,0.0,0.0,0.0,0.0,0.0,0.0,0.0,0.0,0.0,0.0,0.0,0.0,0.0,0.0,0.0,0.0,0.0,0.0,0.0,0.0,0.0,0.0,0.0,0.0,0.0,0.0,0.0,0.0,0.0,0.0,0.0,0.0,0.0,0.0,0.0,0.0,0.0,0.0,0.0,0.0,0.0,0.0,0.0,0.0,0.0,0.0,0.0,0.0,0.0,0.0,0.0,0.0,0.0,0.0,0.0,0.0,0.0,0.0,0.0,0.0,0.0,0.0,0.0,0.0,0.0,0.0,0.0,0.0,0.0,0.0,0.0,0.0,0.0,0.0,0.0,0.0,0.0,0.0,0.0,0.0,0.0,0.0,0.0,0.0,0.0,0.0,0.0,0.0,0.0,0.0,0.0,0.0,0.0,0.0,0.0,0.0,0.0,0.0,0.0,0.0,0.0,0.0,0.0,0.0,0.0,0.0,0.0,0.0,0.0,0.0,0.0,0.0,0.0,0.0,0.0,0.0,0.0,0.0,0.0,0.0,0.0,0.0,0.0,0.0,0.0,0.0,0.0,0.0,0.0,0.0,0.0,0.0,0.0,0.0,0.0,0.0,0.0,0.0,0.0,0.0,0.0,0.0,0.0,0.0,0.0,0.0,0.0,0.0,0.0,0.0,0.0,0.0,0.0,0.0,0.0,0.0,0.0,0.0,0.0,0.0,0.0,0.0,0.0,0.0,0.0,0.0,0.0,0.0,0.0,0.0,0.0,0.0,0.0,0.0,0.0,0.0,0.0,0.0,0.0,0.0,0.0,0.0,0.0,0.0,0.0,0.0,0.0,0.0,0.0,0.0,0.0,0.0,0.0,0.0,0.0,0.0,0.0,0.0,0.0,0.0,0.0,0.0,0.0,0.0,0.0,0.0,0.0,0.0,0.0,0.0,0.0,0.0,0.0,0.0,0.0,0.0,0.0,0.0,0.0,0.0,0.0,0.0,0.0,0.0,0.0,0.0,0.0,0.0,0.0,0.0,0.0,0.0,0.0,0.0,0.0,0.0,0.0,0.0,0.0,0.0,0.0,0.0,0.0,0.0,0.0,0.0,0.0,0.0,0.0,0.0,0.0,0.0,0.0,0.0,0.0,0.0,0.0,0.0,0.0,0.0,0.0,0.0,0.0,0.0,0.0,0.0,0.0,0.0,0.0,0.0,0.0,0.0,0.0,0.0,0.0,0.0,0.0,0.0,0.0,0.0,0.0,0.0,0.0,0.0,0.0,0.0,0.0,0.0,0.0,0.0,0.0,0.0,0.0,0.0,0.0,0.0,0.0,0.0,0.0,0.0,0.0,0.0,0.0,0.0,0.0,0.0,0.0,0.0,0.0,0.0,0.0,0.0,0.0,0.0,0.0,0.0,0.0,0.0,0.0,0.0,0.0,0.0,0.0,0.0,0.0,0.0,0.0,0.0,0.0,0.0,0.0,0.0,0.0,0.0,0.0,0.0,0.0,0.0,0.0,0.0,0.0,0.0,0.0,0.0,0.0,0.0,0.0,0.0,0.0,0.0,0.0,0.0,0.0,0.0,0.0,0.0,0.0,0.0,0.0,0.0,0.0,0.0,0.0,0.0,0.0,0.0,0.0,0.0,0.0,0.0,0.0,0.0,0.0,0.0,0.0,0.0,0.0,0.0,0.0,0.0,0.0,0.0,0.0,0.0,0.0,0.0,0.0,0.0,0.0,0.0,0.0,0.0,0.0,0.0,0.0,0.0,0.0,0.0,0.0,0.0,0.0,0.0,0.0,0.0,0.0,0.0,0.0,0.0,0.0,0.0,0.0,0.0,0.0,0.0,0.0,0.0,0.0,0.0,0.0,0.0,0.0,0.0,0.0,0.0,0.0,0.0,0.0,0.0,0.0,0.0,0.0,0.0,0.0,0.0,0.0,0.0,0.0,0.0,0.0,0.0,0.0,0.0,0.0,0.0,0.0,0.0,0.0,0.0,0.0,0.0,0.0,0.0,0.0,0.0,0.0,0.0,0.0,0.0,0.0,0.0,0.0,0.0,0.0,0.0,0.0,0.0,0.0,0.0,0.0,0.0,0.0,0.0,0.0,0.0,0.0,0.0,0.0,0.0,0.0,0.0,0.0,0.0,0.0,0.0,0.0,0.0,0.0,0.0,0.0,0.0,0.0,0.0,0.0,0.0,0.0,0.0,0.0,0.0,0.0,0.0,0.0,0.0,0.0,0.0,0.0,0.0,0.0,0.0,0.0,0.0,0.0,0.0,0.0,0.0,0.0,0.0,0.0,0.0,0.0,0.0,0.0,0.0,0.0,0.0,0.0,0.0,0.0,0.0,0.0,0.0,0.0,0.0,0.0,0.0,0.0,0.0,0.0,0.0,0.0,0.0,0.0,0.0,0.0,0.0,0.0,0.0,0.0,0.0,0.0,0.0,0.0,0.0,0.0,0.0,0.0,0.0,0.0,0.0,0.0,0.0,0.0,0.0,0.0,0.0,0.0,0.0,0.0,0.0,0.0,0.0,0.0,0.0,0.0,0.0,0.0,0.0,0.0,0.0,0.0,0.0,0.0,0.0,0.0,0.0,0.0,0.0,0.0,0.0,0.0,0.0,0.0,0.0,0.0,0.0,0.0,0.0,0.0,0.0,0.0,0.0,0.0,0.0,0.0,0.0,0.0,0.0,0.0,0.0,0.0,0.0,0.0,0.0,0.0,0.0,0.0,0.0,0.0,0.0,0.0,0.0,0.0,0.0,0.0,0.0,0.0,0.0,0.0,0.0,0.0,0.0,0.0,0.0,0.0,0.0,0.0,0.0,0.0,0.0,0.0,0.0,0.0,0.0,0.0,0.0,0.0,0.0,0.0,0.0,0.0,0.0,0.0,0.0,0.0,0.0,0.0,0.0,0.0,0.0,0.0,0.0,0.0,0.0,0.0,0.0,0.0,0.0,0.0,0.0,0.0,0.0,0.0,0.0,0.0,0.0,0.0,0.0,0.0,0.0,0.0,0.0,0.0,0.0,0.0,0.0,0.0,0.0,0.0,0.0,0.0,0.0,0.0,0.0,0.0,0.0,0.0,0.0,0.0,0.0,0.0,0.0,0.0,0.0,0.0,0.0,0.0,0.0,0.0,0.0,0.0,0.0,0.0,0.0,0.0,0.0,0.0,0.0,0.0,0.0,0.0,0.0,0.0,0.0,0.0,0.0,0.0,0.0,0.0,0.0,0.0,0.0,0.0,0.0,0.0,0.0,0.0,0.0,0.0,0.0,0.0,0.0,0.0,0.0,0.0,0.0,0.0,0.0,0.0,0.0,0.0,0.0,0.0,0.0,0.0,0.0,0.0,0.0,0.0,0.0,0.0,0.0,0.0,0.0,0.0,0.0,0.0,0.0,0.0,0.0,0.0,0.0,0.0,0.0,0.0,0.0,0.0,0.0,0.0,0.0,0.0,0.0,0.0,0.0,0.0,0.0,0.0,0.0,0.0,0.0,0.0,0.0,0.0,0.0,0.0,0.0,0.0,0.0,0.0,0.0,0.0,0.0,0.0,0.0,0.0,0.0,0.0,0.0,0.0,0.0,0.0,0.0,0.0,0.0,0.0,0.0,0.0,0.0,0.0,0.0,0.0,0.0,0.0,0.0,0.0,0.0,0.0,0.0,0.0,0.0,0.0,0.0,0.0,0.0,0.0,0.0,0.0,0.0,0.0,0.0,0.0,0.0,0.0,0.0,0.0,0.0,0.0,0.0,0.0,0.0,0.0,0.0,0.0,0.0,0.0,0.0,0.0,0.0,0.0,0.0,0.0,0.0,0.0,0.0,0.0,0.0,0.0,0.0,0.0,0.0,0.0,0.0,0.0,0.0,0.0,0.0,0.0,0.0,0.0,0.0,0.0,0.0,0.0,0.0,0.0,0.0,0.0,0.0,0.0,0.0,0.0,0.0,0.0,0.0,0.0,0.0,0.0,0.0,0.0,0.0,0.0,0.0,0.0,0.0,0.0,0.0,0.0,0.0,0.0,0.0,0.0,0.0,0.0,0.0,0.0,0.0,0.0,0.0,0.0,0.0,0.0,0.0,0.0,0.0,0.0,0.0,0.0,0.0,0.0,0.0,0.0,0.0,0.0,0.0,0.0,0.0,0.0,0.0,0.0,0.0,0.0,0.0,0.0,0.0,0.0,0.0,0.0,0.0,0.0,0.0,0.0,0.0,0.0,0.0,0.0,0.0,0.0,0.0,0.0,0.0,0.0,0.0,0.0,0.0,0.0,0.0,0.0,0.0,0.0,0.0,0.0,0.0,0.0,0.0,0.0,0.0,0.0,0.0,0.0,0.0,0.0,0.0,0.0,0.0,0.0,0.0,0.0,0.0,0.0,0.0,0.0,0.0,0.0,0.0,0.0,0.0,0.0,0.0,0.0,0.0,0.0,0.0,0.0,0.0,0.0,0.0,0.0,0.0,0.0,0.0,0.0,0.0,0.0,0.0,0.0,0.0,0.0,0.0,0.0,0.0,0.0,0.0,0.0,0.0,0.0,0.0,0.0,0.0,0.0,0.0,0.0,0.0,0.0,0.0,0.0,0.0,0.0,0.0,0.0,0.0,0.0,0.0,0.0,0.0,0.0,0.0,0.0,0.0,0.0,0.0,0.0,0.0,0.0,0.0,0.0,0.0,0.0,0.0,0.0,0.0,0.0,0.0,0.0,0.0,0.0,0.0,0.0,0.0,0.0,0.0,0.0,0.0,0.0,0.0,0.0,0.0,0.0,0.0,0.0,0.0,0.0,0.0,0.0,0.0,0.0,0.0,0.0,0.0,0.0,0.0,0.0,0.0,0.0,0.0,0.0,0.0,0.0,0.0,0.0,0.0,0.0,0.0,0.0,0.0,0.0,0.0,0.0,0.0,0.0,0.0,0.0,0.0,0.0,0.0,0.0,0.0,0.0,0.0,0.0,0.0,0.0,0.0,0.0,0.0,0.0,0.0,0.0,0.0,0.0,0.0,0.0,0.0,0.0,0.0,0.0,0.0,0.0,0.0,0.0,0.0,0.0,0.0,0.0,0.0,0.0,0.0,0.0,0.0,0.0,0.0,0.0,0.0,0.0,0.0,0.0,0.0,0.0,0.0,0.0,0.0,0.0,0.0,0.0,0.0,0.0,0.0,0.0,0.0,0.0,0.0,0.0,0.0,0.0,0.0,0.0,0.0,0.0,0.0,0.0,0.0,0.0,0.0,0.0,0.0,0.0,0.0,0.0,0.0,0.0,0.0,0.0,0.0,0.0,0.0,0.0,0.0,0.0,0.0,0.0,0.0,0.0,0.0,0.0,0.0,0.0,0.0,0.0,0.0,0.0,0.0,0.0,0.0,0.0,0.0,0.0,0.0,0.0,0.0,0.0,0.0,0.0,0.0,0.0,0.0,0.0,0.0,0.0,0.0,0.0,0.0,0.0,0.0,0.0,0.0,0.0,0.0,0.0,0.0,0.0,0.0,0.0,0.0,0.0,0.0,0.0,0.0,0.0,0.0,0.0,0.0,0.0,0.0,0.0,0.0,0.0,0.0,0.0,0.0,0.0,0.0,0.0,0.0,0.0,0.0,0.0,0.0,0.0,0.0,0.0,0.0,0.0,0.0,0.0,0.0,0.0,0.0,0.0,0.0,0.0,0.0,0.0,0.0,0.0,2.0379,2.0312,0.0,0.0,0.0,0.0,0.0,0.0,0.0,0.0,0.0,0.0,0.0,0.0,0.0,0.0,0.0,0.0,0.0,0.0,0.0,0.0,0.0,0.0,0.0,0.0,0.0,0.0,0.0,0.0,0.0,0.0,0.0,0.0,0.0,0.0,0.0,0.0,0.0,1.583,1.5407,1.517,1.517,1.5946,1.5852,1.5091,0.0,0.0,0.0,0.0,0.0,0.0,0.0,0.0,0.0,0.0,0.0,0.0,0.0,0.0,0.0,0.0,0.0,0.0,0.0,0.0,0.0,0.0,0.0,0.0,0.0,0.0,0.0,0.0,0.0,0.0,0.0,0.0,0.0,0.0,0.0,0.0,0.0,0.0,0.0,0.0,0.0,0.0,0.0,0.0,0.0,0.0,0.0,0.0,0.0,0.0,0.0,0.0,0.0,0.0,0.0,0.0,0.0,0.0,0.0,0.0,0.0,0.0,0.0,0.0,0.0,0.0,0.0,0.0,0.0,0.0,2.1141,2.0388,0.0,0.0,0.0,0.0,0.0,0.0,0.0,0.0,0.0,0.0,0.0,0.0,0.0,0.0,0.0,0.0,0.0,0.0,0.0,0.0,0.0,0.0,0.0,1.5189,1.5189,1.5189,1.5189,1.5189,0.0,0.0,0.0,0.0,0.0,0.0,0.0,1.5342,1.5707,1.6272,1.5561,1.5657,1.6503,1.7176,1.6369,1.442,1.5868,0.0,0.0,0.0,0.0,0.0,0.0,0.0,0.0,0.0,0.0,0.0,0.0,0.0,0.0,0.0,0.0,0.0,0.0,0.0,0.0,0.0,0.0,0.0,0.0,0.0,0.0,0.0,0.0,0.0,0.0,0.0,0.0,0.0,0.0,0.0,0.0,0.0,0.0,0.0,0.0,0.0,0.0,0.0,0.0,0.0,0.0,0.0,0.0,0.0,0.0,0.0,0.0,0.0,0.0,0.0,0.0,0.0,0.0,0.0,0.0,0.0,0.0,0.0,2.8818,2.7604,2.7948,2.7948,2.764,2.6919,2.4336,2.2779,2.1966,2.0792,0.0,0.0,0.0,0.0,0.0,0.0,0.0,0.0,0.0,0.0,0.0,0.0,0.0,0.0,0.0,0.0,0.0,0.0,0.0,0.0,0.0,1.5189,1.5189,1.5189,1.5189,1.5189,1.5189,0.0,0.0,0.0,0.0,0.0,1.5195,1.5931,1.6008,1.5368,1.5266,1.5657,1.6503,1.6599,1.6484,1.6176,1.6407,1.6888,1.7446,0.0,0.0,0.0,0.0,0.0,0.0,0.0,0.0,0.0,0.0,0.0,0.0,0.0,0.0,0.0,0.0,0.0,0.0,0.0,0.0,0.0,0.0,0.0,0.0,0.0,0.0,0.0,0.0,0.0,0.0,0.0,0.0,0.0,0.0,0.0,0.0,0.0,0.0,0.0,0.0,0.0,2.0533,2.0366,0.0,0.0,0.0,0.0,0.0,0.0,0.0,0.0,0.0,0.0,0.0,0.0,0.0,2.3477,2.9473,2.9531,3.1484,3.5312,3.4567,3.5708,3.8488,3.8488,3.6911,3.4141,3.3711,0.0,2.861,2.2707,0.0,0.0,0.0,0.0,0.0,0.0,0.0,0.0,0.0,0.0,0.0,0.0,0.0,0.0,0.0,0.0,0.0,0.0,0.0,0.0,0.0,1.5926,1.6118,1.6561,1.6619,1.6407,1.5965,1.5926,0.0,0.0,0.0,1.546,1.5926,1.6309,1.6715,1.7175,1.8147,1.8797,1.9151,1.9761,2.0042,2.0023,1.9523,1.8465,1.6984,1.6234,0.0,0.0,0.0,0.0,0.0,0.0,0.0,0.0,0.0,0.0,0.0,0.0,0.0,0.0,0.0,0.0,0.0,0.0,0.0,0.0,0.0,0.0,0.0,0.0,0.0,0.0,0.0,0.0,0.0,0.0,0.0,0.0,0.0,0.0,0.0,0.0,0.0,0.0,0.0,2.0494,2.1097,2.2906,2.1446,2.0312,0.0,0.0,0.0,0.0,0.0,0.0,0.0,0.0,0.0,2.6328,2.8242,3.1641,3.6641,3.6699,3.7441,3.8926,3.852,3.9084,4.0489,4.0489,3.97,3.8315,3.8315,3.761,3.5908,2.8885,2.3726,2.0485,0.0,0.0,0.0,0.0,2.4034,2.5091,0.0,0.0,0.0,0.0,0.0,0.0,0.0,0.0,0.0,0.0,0.0,0.0,1.6426,1.6676,1.7042,1.7645,1.7503,1.7234,1.683,1.6407,1.5984,1.5561,1.554,1.5829,1.6484,1.6926,1.7869,1.9373,2.0929,2.1655,2.1635,2.2652,2.3004,2.2774,2.212,2.0312,1.7753,1.7311,1.6638,1.5945,0.0,0.0,0.0,0.0,0.0,0.0,0.0,0.0,0.0,0.0,0.0,0.0,0.0,0.0,0.0,0.0,0.0,0.0,0.0,0.0,0.0,0.0,0.0,0.0,0.0,0.0,0.0,0.0,0.0,0.0,0.0,0.0,0.0,0.0,0.0,0.0,0.0,2.0399,2.2188,2.7302,2.3399,2.0312,0.0,0.0,0.0,0.0,0.0,0.0,2.8021,2.8954,3.0653,3.3457,3.5996,3.8574,4.1172,4.1191,4.1191,4.1191,4.0859,4.0676,4.0676,4.0676,4.0676,4.0676,4.0676,4.0882,4.0702,3.4331,2.8725,2.4447,2.6937,2.7898,2.7898,2.7898,2.7898,2.7898,0.0,0.0,0.0,0.0,0.0,0.0,0.0,0.0,0.0,0.0,0.0,1.6445,1.6503,1.7176,1.7664,1.7702,1.7003,1.6869,1.758,1.6157,1.5618,1.6407,1.6438,1.6463,1.6509,1.8068,1.963,2.1166,2.2211,2.2726,2.2746,2.362,2.359,2.2793,2.2754,2.2177,2.1139,1.955,1.8376,1.758,1.7664,0.0,0.0,0.0,0.0,0.0,0.0,0.0,0.0,0.0,0.0,0.0,0.0,0.0,0.0,0.0,0.0,0.0,0.0,0.0,0.0,0.0,0.0,0.0,0.0,0.0,0.0,0.0,0.0,0.0,0.0,0.0,0.0,0.0,0.0,0.0,0.0,0.0,0.0,3.382,2.6294,0.0,0.0,0.0,0.0,2.5195,2.8216,3.1395,3.4822,3.8444,4.0488,4.0684,4.0859,4.1016,4.1191,4.1191,4.1191,4.1191,4.1171,4.1151,4.1151,4.1151,4.1151,4.1151,4.1151,4.1171,4.0897,3.6891,3.5032,3.4743,3.4916,3.4988,3.4988,3.4988,3.4988,3.4988,0.0,0.0,0.0,0.0,0.0,0.0,0.0,0.0,1.5189,1.5189,1.5965,1.6907,1.7991,1.8869,1.9581,2.01,1.9408,1.8831,1.8549,1.6965,1.6407,1.7234,1.6784,1.7266,1.8907,2.0375,2.1953,2.3675,2.4659,2.539,2.5895,2.6339,2.637,2.6082,2.6082,2.5531,2.4408,2.173,1.9753,1.8404,1.842,1.8323,0.0,0.0,0.0,0.0,0.0,0.0,0.0,0.0,0.0,0.0,0.0,0.0,0.0,0.0,0.0,0.0,0.0,0.0,0.0,0.0,0.0,0.0,0.0,0.0,0.0,0.0,0.0,0.0,0.0,0.0,0.0,0.0,0.0,0.0,0.0,0.0,0.0,3.4584,2.6505,0.0,2.9448,3.0336,3.1953,3.541,3.6433,3.756,3.9087,4.255,4.4473,4.4473,4.4473,4.4473,4.4473,4.2305,4.1191,4.1191,4.1191,4.1042,4.0742,4.0742,4.0742,4.0703,3.9936,4.0038,4.0645,3.9276,3.8719,3.8719,3.8719,3.8719,3.8719,3.8719,3.8719,3.8719,0.0,0.0,0.0,0.0,0.0,0.0,0.0,0.0,1.5311,1.5599,1.6638,1.7888,1.93,2.0465,2.1235,2.1485,2.0754,2.0042,1.9492,1.785,1.7273,1.81,1.7907,1.8816,2.1022,2.2541,2.4022,2.5461,2.6706,2.7438,2.7713,2.8126,2.8159,2.789,2.7816,2.7529,2.698,2.477,2.2334,1.9947,1.996,1.9877,1.9505,0.0,0.0,0.0,0.0,0.0,0.0,0.0,0.0,0.0,0.0,0.0,0.0,0.0,0.0,0.0,0.0,0.0,0.0,0.0,0.0,0.0,0.0,0.0,0.0,0.0,0.0,0.0,0.0,0.0,0.0,0.0,0.0,0.0,0.0,2.6289,3.1168,3.6556,3.1237,2.9844,3.6754,3.8678,4.043,4.2754,4.2637,4.2583,4.289,4.5078,4.6308,4.6308,4.6308,4.6308,4.6308,4.4043,4.2344,4.1191,4.1042,4.0799,4.0489,4.0489,4.0283,3.9842,3.9036,3.9154,3.9925,4.0336,4.059,4.0731,4.0554,4.0489,4.0489,4.0489,4.0489,4.0489,0.0,0.0,0.0,0.0,0.0,0.0,0.0,1.5189,1.5503,1.6388,1.7958,1.9342,2.0235,2.1831,2.2485,2.162,2.0773,2.0312,2.0312,1.8638,1.8061,1.8996,1.9919,2.1137,2.2685,2.4523,2.5828,2.6567,2.8345,2.8813,2.8044,2.8813,2.8775,2.8005,2.7752,2.8065,2.8787,2.86,2.6169,2.2445,2.2337,2.2281,2.2032,0.0,0.0,0.0,0.0,0.0,0.0,0.0,0.0,0.0,0.0,0.0,0.0,0.0,0.0,0.0,0.0,0.0,0.0,0.0,0.0,0.0,0.0,0.0,0.0,0.0,0.0,0.0,0.0,0.0,0.0,0.0,0.0,0.0,2.666,3.1933,3.7214,4.0154,4.0585,4.0831,4.1306,4.4453,4.6465,4.6465,4.6367,4.6308,4.6308,4.6308,4.6308,4.6308,4.6308,4.6308,4.6308,4.6308,4.457,4.1171,4.0721,4.0489,4.0489,4.0473,3.98,3.8707,3.8707,3.8719,3.8833,4.0024,4.0771,4.115,4.0699,4.0519,4.0489,4.0489,4.0489,4.0489,0.0,0.0,0.0,0.0,0.0,0.0,1.5189,1.5189,1.5503,1.6388,1.7965,1.9542,2.1004,2.2716,2.3398,2.2524,2.1139,2.0312,2.0312,1.8119,1.7753,1.9842,2.179,2.3677,2.5454,2.7704,2.9315,3.0247,3.134,3.1448,3.066,3.0871,3.0871,3.066,3.0573,3.0801,3.1238,3.1166,2.9925,2.7809,2.5614,2.396,2.2715,0.0,0.0,0.0,0.0,0.0,0.0,0.0,0.0,0.0,0.0,0.0,0.0,0.0,0.0,0.0,0.0,0.0,0.0,0.0,0.0,0.0,0.0,0.0,0.0,0.0,0.0,0.0,0.0,0.0,0.0,0.0,3.3368,3.7644,3.7028,3.828,3.956,4.0404,4.2681,4.4376,4.4841,4.7988,5.0,5.0,4.7695,4.6308,4.6308,4.6308,4.6308,4.6308,4.6308,4.6308,4.6308,4.6308,4.4419,4.0688,4.0554,4.0489,4.0473,3.9599,3.9008,3.8707,3.8707,3.9208,4.0024,4.0353,4.0771,4.1191,4.1069,4.0799,4.0489,4.0489,4.0489,4.0489,0.0,0.0,0.0,0.0,0.0,0.0,1.5132,1.5189,1.5638,1.683,1.8177,1.9638,2.1312,2.2735,2.3206,2.2331,2.137,2.0658,2.0331,1.9234,1.9427,2.1273,2.3679,2.5808,2.7601,2.9735,3.1271,3.2199,3.2679,3.266,3.2199,3.2199,3.2199,3.2186,3.2001,3.2205,3.2694,3.2472,3.1922,3.1035,2.9304,2.7567,2.5823,2.3969,2.2887,2.2263,2.1584,2.0464,1.9913,2.3988,0.0,0.0,0.0,0.0,0.0,0.0,0.0,0.0,0.0,0.0,0.0,0.0,0.0,0.0,0.0,0.0,0.0,0.0,0.0,0.0,0.0,0.0,0.0,0.0,3.9123,4.3236,4.4928,4.3712,4.2624,4.2624,4.4374,4.6345,4.8259,5.0234,5.0801,4.9375,4.724,4.5465,4.4238,4.416,4.416,4.416,4.5547,4.6308,4.6308,4.4883,4.2924,4.0489,4.0489,4.0489,4.0473,3.9778,3.9457,3.9457,3.9457,3.9842,4.0519,4.0721,4.0959,4.1191,0.0,0.0,0.0,0.0,4.0665,4.053,0.0,0.0,0.0,0.0,0.0,0.0,1.4939,1.5132,1.5811,1.7484,1.8465,1.9631,2.1331,2.2274,2.2455,2.1597,2.1416,2.1062,2.035,2.1158,2.212,2.3178,2.5678,2.7813,2.9486,3.1237,3.2487,3.3199,3.3276,3.3237,3.3045,3.3237,3.3237,3.3032,3.2775,3.3034,3.3653,3.3228,3.3044,3.3036,3.3036,3.1953,2.9934,2.6264,2.5585,2.641,2.4979,2.2703,2.1712,3.0356,0.0,0.0,0.0,0.0,0.0,0.0,0.0,0.0,0.0,0.0,0.0,0.0,0.0,0.0,0.0,0.0,0.0,0.0,0.0,0.0,0.0,0.0,0.0,0.0,4.3284,4.6644,4.9702,4.7509,4.5586,4.5586,4.5995,4.7606,5.1072,5.1055,4.9531,4.6458,4.5475,4.3879,4.1255,4.1171,0.0,0.0,0.0,4.6113,4.5723,4.2715,4.0979,4.0582,4.0582,4.054,4.0489,4.0489,4.0277,3.995,4.0335,4.053,4.0617,4.1039,4.117,4.1086,4.0697,4.0818,4.1191,4.1191,4.0947,4.0629,0.0,0.0,0.0,0.0,0.0,0.0,1.4132,1.4747,1.5811,1.7484,1.8465,1.9631,2.1331,2.2274,2.2461,2.1649,2.0935,2.0465,2.0312,2.1716,2.3543,2.5774,2.8313,3.0448,3.2122,3.3872,3.4853,3.5007,3.5661,3.5276,3.3968,3.5334,3.5238,3.3987,3.5043,3.5477,3.5445,3.5776,3.5779,3.5587,3.5587,3.3807,3.0999,2.9586,2.8026,2.6557,2.6245,2.6576,2.742,2.9287,2.6961,2.3254,2.3254,2.1418,0.0,0.0,0.0,0.0,0.0,0.0,0.0,0.0,0.0,0.0,0.0,0.0,0.0,0.0,0.0,0.0,0.0,0.0,0.0,3.8739,4.2737,4.5817,4.649,4.6009,4.5586,4.5586,4.837,5.0574,5.1328,4.8906,4.6858,4.5802,4.31,4.1239,4.0662,4.0983,4.1191,4.1191,4.4512,4.498,4.2207,4.1523,4.115,4.1052,4.1052,0.0,4.0489,4.0489,3.9008,3.6622,3.9335,4.0721,4.1072,4.1151,4.0974,4.0365,3.7657,3.8494,4.1191,4.1191,4.1149,4.1029,0.0,0.0,0.0,0.0,0.0,0.0,1.4478,1.492,1.5657,1.6926,1.7484,1.8402,2.0108,2.0294,2.0308,2.0346,1.9954,2.0041,2.085,2.2889,2.5005,2.7159,3.0083,3.2256,3.3526,3.5238,3.6103,3.6103,3.6949,3.693,3.6122,3.6969,3.6892,3.6108,3.6518,3.663,3.65,3.6496,3.6436,3.6303,3.6303,3.555,3.4302,3.3073,3.1971,3.087,2.9494,3.0044,3.1403,3.1403,3.0338,2.8998,2.8998,2.6778,2.3511,0.0,0.0,0.0,0.0,0.0,0.0,0.0,0.0,0.0,0.0,0.0,0.0,0.0,0.0,2.6909,3.1968,0.0,3.8902,3.9505,4.1533,4.3643,4.5355,4.5586,4.5586,4.5586,4.9035,5.0723,4.9004,4.7305,4.5495,4.3545,4.1824,4.084,4.084,4.1074,4.1099,4.0867,4.251,4.2588,4.0859,4.084,4.0969,4.1191,4.1191,4.1074,4.0782,3.9035,3.7323,3.5827,3.7343,3.9086,4.084,4.084,4.071,4.0265,3.7998,3.8632,4.084,4.084,4.0466,3.9925,0.0,0.0,0.0,0.0,0.0,0.0,0.0,1.5093,1.5503,1.6388,1.6496,1.7092,1.8681,1.8216,1.814,1.9016,1.9109,1.9928,2.1878,2.4235,2.6486,2.8544,3.1545,3.3622,3.4661,3.5853,3.6546,3.6699,3.7411,3.768,3.7526,3.8027,3.805,3.7663,3.7602,3.7464,3.722,3.6897,3.6762,3.6762,3.6762,3.7147,3.7588,3.6248,3.5899,3.5789,3.3256,3.2981,3.3807,3.3807,3.3807,3.3807,3.3807,3.2027,2.8796,2.2905,2.0759,0.0,0.0,0.0,0.0,0.0,0.0,0.0,0.0,2.7732,3.4303,3.6093,3.4276,3.4026,3.9488,3.9712,3.9377,4.0336,4.0489,4.1681,4.5105,4.5677,4.5742,4.5742,4.9087,5.0312,4.7558,4.6699,4.5156,4.2402,4.1582,4.1151,4.1072,4.1052,4.1208,4.1482,4.0611,4.0266,4.0489,4.0489,4.0688,4.1052,4.1052,4.1052,4.0955,3.7477,3.5896,3.5887,3.5367,3.6697,3.9238,3.9889,4.0157,4.0043,3.9091,3.9275,4.0157,4.0157,3.9529,3.8707,0.0,0.0,0.0,0.0,0.0,0.0,0.0,0.0,1.5503,1.6388,1.6505,1.6871,1.7838,1.7864,1.8144,1.9029,1.9107,2.0444,2.359,2.5466,2.7909,3.1141,3.3064,3.4795,3.6392,3.5911,3.5988,3.6699,3.6796,3.6488,3.5834,3.8104,3.8204,3.6573,3.8466,3.8756,3.7851,3.8261,3.8432,3.8432,3.8432,3.8487,3.856,3.8358,3.8322,3.812,3.6376,3.4908,3.3807,3.3807,3.3807,3.3807,3.3807,3.355,3.2559,2.898,2.4301,2.2293,3.1352,3.1571,3.0717,3.6738,3.2077,2.6356,0.0,3.098,3.4965,3.9078,3.9642,3.9604,4.0354,4.0406,4.0336,4.0473,4.0489,4.1681,4.5105,4.5966,4.6221,4.6221,4.9296,5.125,5.0879,4.8086,4.6133,4.5762,4.293,4.1012,4.0604,4.0582,4.1947,4.4949,4.1048,3.9427,4.0489,4.0489,4.0515,4.0582,4.0582,4.0582,4.0447,3.709,3.5553,3.5509,3.4451,3.419,3.477,3.7701,3.8902,3.8892,3.875,3.8792,3.8902,3.8902,3.8822,3.8707,0.0,0.0,0.0,0.0,0.0,0.0,0.0,0.0,0.0,1.493,1.5047,1.5601,1.7009,1.716,1.7479,1.8276,1.8343,1.9761,2.3109,2.5851,2.8429,3.0852,3.3526,3.5507,3.668,3.6372,3.6622,3.7469,3.7469,3.7546,3.7738,3.8796,3.9013,3.8556,3.928,3.9245,3.8606,3.8656,3.8707,3.8707,3.8707,3.8707,3.8652,3.8175,3.8285,3.8615,3.7936,3.7257,0.0,3.0118,3.0705,3.3807,3.3807,3.3807,3.3532,3.2192,2.7731,2.4572,3.0821,3.0033,2.8591,3.343,3.2184,3.0632,3.3899,3.5697,3.7737,4.148,4.29,4.2854,4.0854,4.0489,4.0489,4.0489,4.2162,4.397,4.5393,4.6006,4.6308,4.6308,4.732,4.8137,4.8417,4.6885,4.5065,4.3062,4.1596,4.071,4.0519,4.0489,4.0825,4.1563,3.9721,3.896,3.9451,4.0157,4.0489,4.0489,4.0489,4.0489,4.0373,3.633,3.554,3.7328,3.6869,3.6652,3.6762,3.8138,3.8707,3.8707,3.8707,3.8707,3.8707,3.8707,3.7929,3.6886,0.0,0.0,0.0,0.0,0.0,0.0,0.0,0.0,0.0,0.0,1.4012,1.4613,1.6174,1.6329,1.662,1.7381,1.7636,1.9194,2.259,2.5714,2.8284,3.0203,3.3269,3.5324,3.6128,3.6443,3.703,3.7894,3.7959,3.8315,3.8931,3.908,3.9313,3.96,3.9486,3.9282,3.8971,3.8773,3.8707,3.8707,3.8707,3.8579,3.8248,3.7202,3.7312,3.8046,3.8046,3.8322,3.7349,2.8503,2.8631,3.2485,3.2485,3.2485,3.2169,3.0539,2.848,2.7033,2.8571,2.786,2.7533,3.0936,3.3482,3.6009,3.9276,4.0029,4.0689,4.3002,4.3613,4.2942,4.0442,4.0266,4.0489,4.0489,4.3355,4.5648,4.5757,4.6089,4.5957,4.5019,4.4472,4.433,4.4665,4.4393,4.3162,4.0681,4.0489,4.0489,4.0489,4.0175,3.9599,3.8719,3.8707,3.8707,3.8707,3.9576,4.0004,4.0004,4.0004,4.0004,3.9889,3.6633,3.645,3.8707,3.8707,3.8707,3.8707,3.8707,3.8707,3.8707,3.8707,3.8707,3.8707,3.8707,3.7738,3.6481,0.0,0.0,0.0,0.0,0.0,0.0,0.0,0.0,0.0,0.0,0.0,0.0,0.0,1.5375,1.567,1.6464,1.7246,1.9146,2.2581,2.4962,2.7374,2.9899,3.2234,3.3866,3.4755,3.5778,3.6724,3.76,3.7859,3.8007,3.8046,3.8569,3.8648,3.8388,3.8883,3.8961,3.8689,3.8707,3.8707,3.8707,3.8707,3.823,3.7349,3.5716,3.5624,3.6376,3.6376,3.7386,3.7698,3.1091,2.8975,2.914,2.914,2.914,2.8028,2.2369,2.5235,2.9533,2.6322,2.7802,3.1071,3.4474,3.6968,3.9386,4.2616,4.3332,4.3369,4.3461,4.1034,3.8891,3.8768,3.9712,4.0489,4.0489,4.3355,4.575,4.62,4.6289,4.5078,4.1758,4.0936,4.0658,4.0669,4.0673,4.0604,4.0508,4.0489,4.0489,4.0489,3.9402,3.875,3.8707,3.8707,3.8707,3.8707,3.8719,3.875,3.875,3.875,3.875,3.875,3.8628,3.8615,3.8707,3.8707,3.8707,3.8707,3.8707,3.8707,3.8707,3.8707,3.8707,3.8707,3.8707,3.8658,3.8596,0.0,0.0,0.0,0.0,0.0,0.0,0.0,0.0,0.0,0.0,0.0,0.0,0.0,0.0,0.0,0.0,1.6744,1.81,2.0966,2.3439,2.5627,2.7458,3.0411,3.2345,3.3091,3.3942,3.4813,3.5685,3.5761,3.6369,3.7414,3.7051,3.7297,3.8022,3.8219,3.8146,3.7936,3.8469,3.8707,3.8615,3.7533,3.6945,3.6505,3.4835,3.3715,3.3183,0.0,3.2247,2.8741,2.6557,2.4373,2.2942,2.5126,2.4318,2.3152,2.6128,2.7014,2.7264,2.8379,3.2795,3.7373,3.8527,3.9353,4.0758,4.4121,4.4175,4.2892,4.0763,3.946,3.8707,3.8707,3.969,4.0489,4.0489,4.3355,4.5764,4.6225,4.4355,4.248,4.1348,4.08,4.0489,4.0489,4.0489,4.0489,4.0489,4.0489,4.0489,4.0489,3.9352,3.8707,3.8707,3.8707,3.8707,3.8707,3.8707,3.8707,3.8707,3.8707,3.8707,3.8707,3.8707,3.8707,3.8707,3.8707,3.8707,3.8707,3.8707,3.7422,3.5679,3.7863,3.8707,3.8707,3.8707,3.8707,3.8707,0.0,0.0,0.0,0.0,0.0,0.0,0.0,0.0,0.0,0.0,0.0,0.0,0.0,0.0,0.0,0.0,0.0,1.7311,1.9234,2.1646,2.3542,2.4778,2.7623,2.9377,2.9814,3.0979,3.1864,3.2411,3.3091,3.4112,3.5416,3.5068,3.5496,3.6628,3.6798,3.6629,3.6229,3.7037,3.6919,3.6122,3.5073,3.4157,3.3302,3.2096,3.082,0.0,3.0191,2.6961,2.2446,2.2446,2.1051,1.9672,2.1767,2.0996,2.0515,2.6756,2.7879,2.8129,3.2756,3.718,4.0489,4.0489,4.0489,4.1393,4.4816,4.4905,4.3202,3.9455,3.8707,3.8074,3.61,3.6369,3.7739,4.0324,4.2595,4.4556,4.6091,4.3359,4.1147,4.0969,4.0676,4.0489,4.0489,4.0489,4.0489,4.0489,4.0489,4.0489,4.0489,3.9757,3.9352,3.9352,3.9352,3.9352,3.9352,3.9352,3.9127,3.8707,3.8707,3.8707,3.8707,3.8707,3.8707,3.8707,3.8707,3.8707,3.8615,3.7441,3.5697,3.4009,3.6119,3.6945,3.7092,3.8267,3.8707,3.8707,0.0,0.0,0.0,0.0,0.0,0.0,0.0,0.0,0.0,0.0,0.0,0.0,0.0,0.0,0.0,0.0,0.0,0.0,1.7587,1.9644,2.1185,2.1969,2.4023,2.5164,2.5219,2.7102,2.811,2.8147,2.9975,3.1307,3.2162,3.257,3.3206,3.3999,3.4426,3.4229,3.355,3.4357,3.3471,3.1566,3.1492,3.0165,2.8202,2.7717,2.7117,2.6289,2.4596,2.2001,1.935,1.9305,1.9305,1.9341,1.9507,1.9574,2.0391,2.4391,2.7975,3.2102,3.87,4.0489,4.0489,4.0489,4.0489,4.1335,4.4586,4.5281,4.3996,3.9589,3.8462,3.6642,3.1355,3.0414,3.2665,3.9567,4.0664,4.1875,4.5293,4.3105,4.1003,4.054,4.0489,4.0489,4.0489,4.0489,4.0489,4.0489,4.0489,4.0489,4.0489,4.0489,4.0489,4.0489,4.0489,4.0489,4.0489,4.0489,3.9884,3.8707,3.8707,3.8707,3.8707,3.8707,3.8707,3.8707,3.8707,3.8707,3.845,3.5147,3.3807,3.3807,3.3807,3.3899,3.4431,3.7442,3.8546,3.8546,0.0,0.0,0.0,0.0,0.0,0.0,0.0,0.0,0.0,0.0,0.0,0.0,0.0,0.0,0.0,0.0,0.0,0.0,1.6753,1.7854,1.8762,1.9416,2.1073,2.221,2.2703,2.4395,2.554,2.6131,2.7209,2.8176,2.8973,2.8479,2.8695,2.947,2.9577,2.9512,2.9407,3.03,3.0383,2.9827,2.8726,2.7937,2.7343,2.6037,2.5427,2.4907,2.2251,2.0754,1.9971,1.9476,1.9305,1.973,2.2171,2.333,2.4465,2.8049,3.1513,3.5122,3.9354,4.0489,4.0489,4.0489,4.0489,4.0719,4.1585,4.1092,4.0123,3.8946,3.5404,3.2076,3.065,3.0593,3.1387,3.3222,3.3535,3.4726,3.8144,3.9805,4.0636,4.05,4.0489,4.0489,4.0489,4.0489,4.0489,4.0489,4.0489,4.0489,4.0489,4.0489,4.0489,4.0489,4.0489,4.0489,4.0489,4.0489,3.9884,3.8707,3.8707,3.8707,3.8707,3.8707,3.8707,3.8707,3.8707,3.8707,3.845,3.5147,3.3807,3.3807,3.3807,3.5293,3.7363,3.6626,3.6381,3.6626,0.0,0.0,0.0,0.0,0.0,0.0,0.0,0.0,0.0,0.0,0.0,0.0,0.0,0.0,0.0,0.0,0.0,0.0,0.0,1.6387,1.6977,1.6961,1.8448,1.9449,1.9814,2.1056,2.1742,2.1856,2.339,2.4355,2.4819,2.5078,2.5616,2.6413,2.6765,2.6728,2.645,2.7326,2.7171,0.0,0.0,2.4744,2.4165,2.3221,2.291,2.2727,2.1032,2.0371,2.0463,2.1566,2.1712,2.2348,2.7537,2.9446,3.0148,3.2071,3.5045,3.8104,3.9988,4.066,4.0772,4.054,4.0489,4.0489,4.0489,3.8841,3.6873,3.5383,3.2566,3.0449,3.0579,3.0644,3.1654,3.4633,3.5113,3.5781,3.7702,4.0725,4.2739,4.2739,4.2739,4.2739,4.2739,4.2739,4.1893,3.987,4.0193,4.0489,4.0489,4.0489,4.0489,4.0489,4.0489,4.0489,4.0489,3.9965,3.9377,3.8707,3.8707,3.8707,3.8707,3.8707,3.8707,3.8707,3.8707,3.8707,3.856,3.6707,3.511,3.3807,3.3807,3.4449,3.5403,3.5557,3.5622,3.5783,0.0,0.0,0.0,0.0,0.0,0.0,0.0,0.0,0.0,0.0,0.0,0.0,0.0,0.0,0.0,0.0,0.0,0.0,0.0,0.0,1.5442,1.4878,1.6101,1.692,1.7146,1.7815,1.7899,1.7302,1.9454,2.0515,2.0552,2.1937,2.3013,2.3825,2.4523,2.4504,2.4013,2.4723,2.3922,2.2192,2.2201,2.1514,2.0492,0.0,2.0508,2.0605,2.0563,2.0445,2.0889,2.4688,2.5858,2.6915,3.3949,3.6161,3.6161,3.6161,3.8219,4.0519,4.0582,4.0896,4.1097,4.063,4.0489,4.0373,3.9931,3.6892,3.3301,3.0321,3.012,3.0696,3.144,3.0931,3.2622,3.9392,4.0489,4.0489,4.0489,4.3047,4.5086,4.5547,4.5586,4.5531,4.5323,4.5323,4.3729,3.9908,4.0025,4.0266,4.0266,4.0422,4.0489,4.0489,4.0489,4.0489,4.0489,3.9301,3.8707,3.8707,3.8707,3.8707,3.8707,3.8707,3.8707,3.8707,3.8707,3.8707,3.8707,3.8707,3.6762,3.378,3.355,3.2781,3.2087,3.4675,3.5622,3.5622,0.0,0.0,0.0,0.0,0.0,0.0,0.0,0.0,0.0,0.0,1.2065,1.295,0.0,0.0,0.0,0.0,0.0,0.0,0.0,0.0,0.0,1.3981,1.4166,1.4885,1.6276,1.6432,1.6769,1.7302,1.7726,1.7933,1.7941,1.8234,1.8779,1.9562,1.9693,2.0082,2.0646,2.0907,2.0824,2.0523,2.0636,2.0619,2.0497,2.0559,0.0,0.0,2.04,2.0325,2.1235,2.7418,3.1309,3.4246,3.8343,3.9623,3.9623,3.9623,4.0027,4.0577,4.0969,4.1147,4.1097,4.063,4.0489,3.9758,3.7007,3.1545,2.6899,2.6303,2.8643,3.169,3.4589,3.2519,3.2622,3.9392,4.0489,4.0489,4.0489,4.1008,4.2431,4.5259,4.5586,4.5142,4.3974,4.3849,4.4018,4.4381,4.1042,3.9027,3.9027,3.9964,4.0489,4.0489,4.0489,4.0489,4.0489,3.9301,3.8707,3.8707,3.8707,3.8707,3.8707,3.8707,3.8707,3.8707,3.8707,3.8707,3.8707,3.8707,3.6762,3.3662,3.2196,3.2969,3.4912,3.5436,3.5622,3.5622,0.0,0.0,0.0,0.0,0.0,0.0,0.0,1.1137,1.1714,1.2594,1.306,1.3459,1.3863,1.467,1.4843,0.0,0.0,0.0,0.0,0.0,0.0,0.0,1.3831,1.4405,1.5669,1.6131,1.6329,1.6254,0.0,1.7339,1.6889,1.7316,1.7723,1.8136,1.8136,1.8546,1.9222,1.9296,1.9665,2.0204,2.0268,2.0355,2.0461,0.0,0.0,0.0,2.0365,2.0312,2.0812,2.4053,2.9763,3.6103,3.9431,4.0489,4.0489,4.0489,4.0489,4.0604,4.1074,4.1191,4.1097,4.063,4.0489,3.9191,3.4237,2.9166,2.5513,2.5513,2.8381,3.1406,3.3047,3.1864,3.1715,3.4982,3.8303,4.0489,4.0489,3.9964,4.1073,4.5109,4.5586,4.5036,4.3664,4.3497,4.3772,4.4463,4.0903,3.8707,3.8707,3.9242,3.9842,4.0489,3.9884,3.9552,3.9552,3.8998,3.8707,3.8707,3.8707,3.8707,3.8707,3.8707,3.8707,3.8707,3.8707,3.8707,3.8707,3.8707,3.6762,3.3899,3.4763,3.5296,3.5622,3.5622,3.5622,3.5622,0.0,0.0,0.0,0.0,0.0,0.0,0.0,1.1412,1.2108,1.3432,1.3758,1.3931,1.4123,1.4774,1.4786,0.0,0.0,0.0,0.0,0.0,0.0,0.0,0.0,0.0,1.5307,0.0,0.0,1.5575,1.6701,0.0,0.0,0.0,0.0,0.0,1.7544,1.7975,1.8692,1.8692,1.9322,0.0,0.0,2.0321,2.0381,0.0,0.0,0.0,0.0,2.0312,2.0312,2.0312,2.562,3.2833,3.618,3.8238,3.9431,3.9431,4.0023,4.0742,4.1101,4.1191,4.1103,4.0732,4.0087,3.7831,3.1278,2.7613,2.5607,2.5607,2.7848,3.0019,3.0762,3.0898,3.0898,3.0898,3.5091,3.8084,3.7353,3.8075,4.0039,4.3685,4.4344,4.436,4.3972,4.3051,4.247,4.247,4.0139,3.8707,3.8707,3.8707,3.9127,4.0082,3.9189,3.8707,3.8707,3.8707,3.8707,3.8707,3.8707,3.8707,3.8707,3.8707,3.8707,3.8707,3.8707,3.8707,3.8707,3.8707,3.7184,3.5064,3.7203,3.7041,3.5622,3.5622,3.5622,3.5622,0.0,0.0,0.0,0.0,0.0,0.0,0.0,1.1454,1.2458,1.2611,1.3322,1.4098,1.4811,1.5076,1.4561,0.0,0.0,0.0,0.0,0.0,0.0,0.0,0.0,0.0,0.0,0.0,0.0,1.6486,1.5838,0.0,0.0,0.0,0.0,0.0,0.0,1.745,1.8692,1.8692,0.0,0.0,0.0,0.0,0.0,0.0,0.0,0.0,0.0,2.0312,2.0312,2.0312,2.0927,2.2293,2.563,3.0968,3.5968,3.5968,3.8424,4.1149,4.1191,4.1191,4.1191,4.1149,3.8764,3.4625,2.7734,2.5732,2.5339,2.5339,2.5788,2.7148,3.0312,3.0898,3.0898,3.0898,3.1132,3.0237,2.7129,3.3627,3.886,3.9268,4.0298,4.2129,4.5131,4.159,3.9148,3.9148,3.8872,3.8707,3.8707,3.8707,3.875,3.8862,3.875,3.8707,3.8707,3.8707,3.8707,3.8707,3.8707,3.8707,3.8707,3.8707,3.8707,3.8707,3.8707,3.8707,3.8707,3.8707,3.8524,3.8094,3.6504,3.5783,3.5622,3.5622,3.5622,3.5622,0.0,0.0,0.0,0.0,0.0,0.0,1.0751,1.1367,1.1944,1.2382,1.2743,1.3086,1.3469,1.3544,1.335,1.2757,0.0,0.0,0.0,0.0,0.0,0.0,0.0,0.0,0.0,0.0,1.5787,1.6653,1.6302,0.0,0.0,0.0,0.0,0.0,0.0,1.619,1.6713,1.6719,0.0,0.0,0.0,0.0,0.0,0.0,0.0,0.0,0.0,0.0,2.0312,2.0312,2.0312,2.0542,2.1861,2.423,2.776,3.3988,3.6872,3.8535,4.0625,4.1191,4.1191,4.1191,3.8428,3.4431,2.964,2.6848,2.5303,2.5303,2.5376,2.5926,2.7478,2.7773,2.7773,2.7773,2.926,2.9917,2.8552,3.4342,3.9721,4.2522,4.253,4.2351,4.2516,4.1954,4.0781,3.8854,3.8707,3.8707,3.8707,3.8707,3.8707,3.8707,3.8707,3.8707,3.8707,3.8707,3.8707,3.8707,3.8707,3.8707,3.8707,3.8707,3.8707,3.8707,3.8707,3.8707,3.8707,3.8707,3.8707,3.8496,3.6422,3.5622,3.5622,3.5622,3.5622,3.5622,0.0,0.0,0.0,0.0,0.0,1.027,1.0837,1.1092,1.1414,1.1911,1.1999,1.2102,1.244,1.249,1.2555,1.2695,1.3214,0.0,0.0,0.0,0.0,0.0,0.0,0.0,0.0,0.0,1.5878,1.6829,1.7181,1.7683,0.0,0.0,1.7033,1.7044,0.0,0.0,0.0,0.0,0.0,0.0,0.0,0.0,0.0,0.0,0.0,0.0,0.0,0.0,0.0,0.0,0.0,2.0388,2.0388,2.048,2.2031,2.9316,3.3613,3.6758,4.0254,4.1191,4.117,4.1035,3.8228,3.407,2.8648,2.6322,2.5303,2.5303,2.5303,2.5354,2.5547,2.5657,2.5703,2.5703,2.8333,3.0398,3.0398,3.4349,3.8469,4.1715,4.294,4.2569,4.0207,4.125,4.113,3.8872,3.8707,3.8707,3.8707,3.8117,3.805,3.8676,3.8707,3.8707,3.8707,3.8707,3.8707,3.8707,3.8707,3.8707,3.8707,3.8707,3.8707,3.8707,3.8707,3.8707,3.8707,3.8707,3.835,3.7632,3.6147,3.5622,3.5622,3.5622,3.5622,3.5622,0.0,0.0,0.0,0.0,0.0,0.0,1.0025,1.0639,1.1077,1.1016,1.1001,1.1364,1.23,1.2452,1.2555,1.2695,1.27,0.0,0.0,0.0,0.0,0.0,0.0,0.0,0.0,0.0,1.5957,1.7109,1.8281,1.9023,1.9277,1.8398,1.7988,1.7949,0.0,0.0,0.0,0.0,0.0,0.0,0.0,0.0,0.0,0.0,0.0,0.0,0.0,0.0,0.0,0.0,0.0,0.0,0.0,2.0605,2.0625,2.0723,2.8008,3.6758,4.0254,4.1191,4.1097,4.061,3.7969,3.2852,2.2716,2.2938,2.5303,2.5303,2.5303,2.5303,2.5293,2.5526,2.5703,2.5703,2.8333,3.0398,3.0398,3.2403,3.3862,3.3925,3.9601,4.2231,3.9032,3.8726,3.8744,3.8707,3.8707,3.8707,3.8707,3.6729,3.6586,3.8627,3.8707,3.8707,3.8707,3.8707,3.8707,3.8707,3.8707,3.8707,3.8707,3.8707,3.8707,3.8707,3.8707,3.8707,3.8707,3.8707,3.7506,3.5622,3.5622,3.5622,3.5622,3.5622,3.5622,3.5622,0.0,0.0,0.0,0.0,0.0,0.0,0.0,1.0056,1.0196,1.0128,1.0112,1.0272,1.0659,1.1245,1.1912,1.2637,1.3195,0.0,0.0,0.0,0.0,0.0,0.0,0.0,0.0,0.0,1.5586,1.5937,1.7109,1.8223,1.9277,1.7988,1.7812,1.8594,1.7891,1.6777,0.0,0.0,0.0,0.0,0.0,0.0,2.0312,0.0,0.0,0.0,0.0,0.0,0.0,0.0,0.0,0.0,0.0,0.0,0.0,2.0399,2.2815,2.7773,3.834,4.0964,4.0688,4.0545,3.7988,3.3417,2.5514,2.4534,2.5303,2.5303,2.5303,2.5303,2.5303,2.5371,2.5441,2.5441,2.6253,2.7504,2.9195,3.1954,3.3807,3.3807,3.5624,3.8608,4.3003,4.0541,3.8707,3.8707,3.8707,3.8707,3.8707,3.6729,3.5881,3.6545,3.7964,3.8707,3.8707,3.8707,3.8707,3.8707,3.8707,3.8707,3.8707,3.8707,3.8707,3.8707,3.8707,3.8707,3.8707,3.8707,3.747,3.5622,3.5622,3.5622,3.5622,3.5622,3.5622,3.5622,0.0,0.0,0.0,0.0,0.0,0.0,0.0,0.9844,0.9811,0.9747,0.9732,0.9784,0.9927,1.0984,1.1956,1.2637,1.3733,0.0,0.0,0.0,0.0,0.0,0.0,0.0,1.4297,1.5039,1.5391,1.5391,1.6113,1.7266,1.8809,1.8535,1.8828,1.9512,1.9141,1.8379,0.0,0.0,0.0,0.0,0.0,0.0,2.0312,0.0,0.0,0.0,0.0,0.0,0.0,0.0,0.0,0.0,0.0,0.0,0.0,0.0,2.0197,2.2361,3.0986,3.3091,3.3179,3.4449,3.2237,2.8975,2.5976,2.5303,2.5303,2.5303,2.5303,2.5303,2.5303,2.5303,2.5303,2.5303,2.6379,2.806,3.0462,3.254,3.4706,3.7165,3.7459,3.9407,4.4321,4.2693,4.0587,3.8842,3.8707,3.8707,3.8707,3.747,3.6422,3.5605,3.7632,3.8707,3.8707,3.8707,3.8707,3.8707,3.8707,3.8707,3.8707,3.8707,3.8707,3.8707,3.8707,3.8707,0.0,3.8707,3.747,3.5622,3.5622,3.5622,3.5622,3.5622,3.5622,3.5622,0.0,0.0,0.0,0.0,0.0,0.0,0.0,0.9893,0.9888,0.9811,0.9805,0.985,0.9982,1.1433,1.2498,1.2676,0.0,0.0,0.0,0.0,0.0,0.0,0.0,0.0,1.5156,1.5332,1.5391,1.5391,1.5391,1.623,1.7852,1.9473,2.0352,2.0605,2.0605,2.0605,0.0,0.0,0.0,0.0,0.0,0.0,0.0,0.0,0.0,0.0,0.0,0.0,0.0,0.0,0.0,0.0,0.0,0.0,0.0,0.0,0.0,0.0,0.0,2.0441,2.14,2.4514,2.2957,2.1457,2.4591,2.5303,0.0,2.5303,2.5303,2.5303,2.5303,2.5303,2.5311,2.5398,2.8171,3.1121,3.3467,3.4064,3.654,4.2763,4.3497,4.3497,4.3497,4.4669,4.358,3.9031,3.8707,3.8707,3.8707,3.8707,3.7826,3.5881,3.7703,3.8627,3.8465,3.8465,3.8465,3.8465,3.8627,3.8707,3.8707,3.8707,3.8707,3.8707,3.8707,3.8707,3.8707,3.8546,3.736,3.5622,3.5622,3.5622,3.5622,3.5622,3.5622,3.5622,0.0,0.0,0.0,0.0,0.0,0.0,0.0,0.0,0.0,0.0,0.9869,0.991,0.9987,1.0961,1.1891,0.0,0.0,0.0,0.0,0.0,0.0,0.0,0.0,0.0,1.3477,1.4746,1.5391,1.5391,1.5391,1.5605,1.6016,1.6426,1.8047,2.0605,2.0605,2.0605,0.0,0.0,0.0,0.0,0.0,0.0,0.0,0.0,0.0,0.0,2.0312,2.0312,0.0,0.0,0.0,0.0,0.0,0.0,0.0,0.0,1.9405,1.9545,1.9545,0.0,2.4303,2.5091,2.4707,2.4322,0.0,2.5303,2.5303,2.5303,2.5303,2.5303,2.5303,2.5303,2.5541,2.6232,2.8033,3.0379,3.3382,3.6589,3.9814,4.3103,4.3497,4.3497,4.3497,4.3804,4.2514,3.8977,3.8707,3.8707,3.8707,3.8707,3.8483,3.7982,3.8433,3.7929,3.6357,3.6316,3.6316,3.6357,3.7929,3.8707,3.8707,3.8707,3.8707,3.8707,3.8707,3.8707,3.8596,3.6964,3.6037,3.5622,3.5622,3.5622,3.5622,3.5622,3.5622,3.5622,0.0,0.0,0.0,0.0,0.0,0.0,0.0,0.0,0.0,0.0,0.0,0.0,0.0,0.0,0.0,0.0,0.0,0.0,0.0,0.0,0.0,0.0,0.0,1.3516,1.4043,1.4941,1.6172,1.7793,1.6172,1.5391,1.5391,1.5391,1.6406,1.8281,1.9883,2.0605,0.0,0.0,0.0,0.0,2.0605,0.0,0.0,0.0,0.0,0.0,2.0433,2.0433,0.0,2.0332,2.0312,2.0312,0.0,0.0,0.0,0.0,1.9305,1.9305,1.9305,2.0896,2.2552,2.2552,2.2792,2.3015,2.3015,2.3015,2.3015,2.3015,2.3015,2.3361,2.4566,2.6012,2.693,2.6725,2.7391,2.9497,3.4021,3.8669,4.2126,4.3356,4.0855,4.0212,4.3204,4.3497,4.2763,4.102,3.9533,3.8707,3.8707,3.8707,3.8707,3.8707,3.8707,3.7703,3.5622,3.5622,3.5622,3.5622,3.6729,3.7773,3.8707,3.8707,3.8707,3.8707,3.8707,3.8707,3.8546,3.6464,3.5622,3.5622,3.5622,3.5622,3.5622,3.5622,3.5622,3.5622,0.0,0.0,0.0,0.0,0.0,0.0,0.0,0.0,0.0,0.0,0.0,0.0,0.0,0.0,0.0,0.0,0.0,0.0,0.0,0.0,0.0,0.0,1.3372,1.4414,1.5371,1.5391,1.7109,2.0605,1.7637,1.6191,1.6172,1.5644,1.5391,1.5547,1.902,2.0559,0.0,0.0,0.0,0.0,2.0585,0.0,0.0,0.0,0.0,0.0,0.0,0.0,0.0,2.0379,2.0312,2.0312,2.0312,0.0,0.0,0.0,0.0,0.0,1.9305,1.9305,1.9433,1.9913,2.0477,2.0757,2.0259,2.0153,2.0153,2.0153,2.0153,2.0975,2.3694,2.6833,2.8652,2.757,2.7403,2.9198,3.4199,3.8773,4.1613,4.1613,3.7869,3.7441,4.2965,4.3497,4.3497,4.3497,4.0689,3.897,3.897,3.8792,3.8707,3.8707,3.8707,3.7703,3.5622,3.5622,3.5622,3.5622,3.5622,3.6504,3.8234,3.8546,3.8707,3.8676,3.835,3.8401,3.8546,3.6464,3.5622,3.5622,3.5622,3.5622,3.5622,3.5622,3.5622,3.5622,0.0,0.0,0.0,0.0,0.0,0.0,0.0,0.0,0.0,0.0,0.0,0.0,0.0,0.0,0.0,0.0,0.0,0.0,0.0,0.0,0.0,1.4781,1.499,1.5225,1.5391,1.5391,1.7109,2.0605,2.0059,1.9805,1.9746,1.6777,1.5391,1.5547,1.8862,2.036,2.036,2.036,0.0,0.0,2.0531,0.0,0.0,0.0,0.0,0.0,0.0,0.0,0.0,2.0379,2.0312,2.0312,2.0312,0.0,0.0,0.0,0.0,0.0,1.9305,1.9305,1.9968,2.274,2.3529,2.2876,2.0078,1.9462,1.9462,1.9462,1.9462,2.0437,2.3603,2.6833,2.9322,3.0355,3.064,3.1029,3.1767,3.2581,3.3072,3.3072,3.8348,4.2396,4.3387,4.3497,4.3497,4.3497,4.1472,4.0211,4.0211,3.9268,3.8707,3.8707,3.8707,3.7703,3.5622,3.5622,3.5622,3.5622,3.5622,3.5783,3.6122,3.7895,3.8707,3.8596,3.6847,3.7079,3.8546,3.6464,3.5622,3.5622,3.5622,3.5622,3.5622,3.5622,3.5622,3.5622,0.0,0.0,0.0,0.0,0.0,0.0,0.0,0.0,0.0,0.0,0.0,0.0,0.0,0.0,0.0,0.0,0.0,0.0,0.0,0.0,1.525,1.5245,1.5342,1.5387,1.5355,1.5389,1.7109,2.0605,2.0605,1.9648,1.7754,1.6152,1.5391,1.5469,1.6973,1.8639,2.0312,2.0312,0.0,0.0,0.0,0.0,0.0,0.0,0.0,0.0,0.0,0.0,0.0,0.0,2.0312,2.0312,2.0312,0.0,0.0,0.0,0.0,0.0,1.939,2.0592,2.2721,2.5988,2.3735,2.0781,2.0899,2.0082,1.9785,2.1584,2.1951,2.268,2.5102,2.8082,3.0417,3.1108,3.1365,3.197,3.3338,3.3557,3.4184,3.5808,3.7937,3.9893,4.1488,4.0188,3.9687,4.0826,4.0047,3.9529,3.9529,3.8998,3.8707,3.8707,3.7614,3.6586,3.5622,3.5622,3.5622,3.5622,3.5622,3.5622,3.5605,3.6586,3.7002,3.6964,3.5994,3.6165,3.6964,3.5994,3.5622,3.5622,3.5622,3.5622,3.5622,3.5622,3.5622,3.5622,0.0,0.0,0.0,0.0,0.0,0.0,0.0,0.0,0.0,0.0,0.0,0.0,0.0,0.0,0.0,0.0,0.0,0.0,0.0,1.5255,1.5265,1.5229,1.5311,1.5326,1.5283,1.536,1.6698,1.9345,1.9374,1.7617,1.4219,1.5039,1.5391,1.5449,1.625,1.8018,2.0359,2.0359,2.0457,0.0,0.0,0.0,0.0,0.0,0.0,0.0,0.0,0.0,0.0,0.0,0.0,0.0,0.0,0.0,0.0,2.0107,2.0069,1.9941,1.9448,2.1125,2.3823,2.7071,2.3323,1.9469,2.1786,2.1651,2.1754,2.4262,2.4789,2.5173,2.648,2.9736,3.2459,3.3169,3.3417,3.3971,3.5334,3.5545,3.6437,3.8731,3.7618,3.728,3.8886,3.6958,3.6274,3.7843,3.7964,3.8201,3.8658,3.8707,3.8483,3.7998,3.6422,3.5622,3.5622,3.5622,3.527,3.464,3.464,3.464,3.4657,3.5316,3.5622,3.5622,3.5622,3.5622,3.5622,3.5622,3.5622,3.5622,3.5622,3.5622,3.5622,3.5622,3.5622,3.5622,0.0,0.0,0.0,0.0,0.0,0.0,0.0,0.0,0.0,0.0,0.0,0.0,0.0,0.0,0.0,0.0,0.0,0.0,0.0,1.524,1.524,1.5295,1.5236,1.5212,1.5207,1.5325,1.5467,1.5581,1.5701,1.4023,1.0742,1.3906,1.5391,1.5547,1.8789,2.0351,2.0584,2.0584,2.0585,2.0605,2.0605,0.0,0.0,0.0,0.0,0.0,0.0,0.0,0.0,0.0,0.0,0.0,0.0,0.0,2.0171,1.9553,1.9361,1.9346,1.932,1.9455,2.0427,2.3731,2.3242,2.204,2.226,2.4299,2.623,2.6466,2.6517,2.6553,2.6691,3.141,3.6214,3.8988,3.9446,3.8532,3.5879,3.5518,3.557,3.5831,3.8179,3.8751,3.618,3.574,3.565,3.581,3.581,3.6666,3.8596,3.8707,3.7826,3.5881,3.5694,3.5622,3.5622,3.5622,3.4333,3.1796,3.1796,3.1796,3.1894,3.4447,3.5622,3.5622,3.5622,3.5622,3.5622,3.5622,3.5622,3.5622,3.5622,3.5622,3.5622,3.5622,3.5622,3.5622,0.0,0.0,0.0,0.0,0.0,0.0,0.0,0.0,0.0,0.0,0.0,0.0,0.0,0.0,0.0,0.0,0.0,0.0,0.0,1.5207,1.5207,1.5245,1.5297,1.5294,1.5195,1.5255,1.5259,1.5189,1.3121,1.2576,1.3496,1.4785,1.6562,1.8691,2.0019,2.0605,2.0605,2.0605,2.0605,2.0585,2.046,0.0,0.0,0.0,0.0,0.0,0.0,0.0,0.0,0.0,1.9305,1.9305,1.9305,1.9458,1.9632,1.9361,1.9305,1.9305,1.9305,1.9305,2.0079,2.3382,2.3834,2.3491,2.3491,2.6623,3.0006,3.1867,3.0784,2.8924,2.7046,3.0074,3.3846,3.6823,3.887,3.9679,3.8525,3.5291,3.3649,3.531,3.5025,3.432,3.3171,3.3061,3.3786,3.547,3.5622,3.5147,3.4108,3.5773,3.6422,3.5605,3.5622,3.5622,3.5622,3.3887,3.2501,3.1482,3.1482,3.1482,3.1539,3.2555,3.3987,3.5622,3.5622,3.5622,3.5622,3.5622,3.5622,3.5622,3.5622,3.5622,3.5622,3.5622,3.5622,3.5622,0.0,0.0,0.0,0.0,0.0,0.0,0.0,0.0,0.0,0.0,0.0,0.0,0.0,0.0,0.0,0.0,0.0,0.0,1.5207,1.5199,1.5189,1.5189,1.5297,1.5284,1.5195,1.5189,1.467,1.3594,1.1248,1.1366,1.3809,1.4883,1.7266,2.0605,2.0605,2.0605,2.0605,2.0605,2.0605,2.0585,2.0377,2.0312,0.0,0.0,0.0,0.0,0.0,0.0,0.0,0.0,1.9305,1.9305,1.9305,1.9305,1.9305,1.9305,1.9305,1.9305,1.9305,1.9305,2.0317,2.4649,2.4942,2.419,2.419,2.9066,3.3963,3.5314,3.453,3.2472,2.8796,2.9803,3.2171,3.5131,3.733,3.8667,3.8667,3.527,3.3458,3.5303,3.3911,3.281,3.281,3.1992,3.2296,3.4137,3.4301,3.3782,3.2655,3.4506,3.5622,3.5622,3.5622,3.5161,3.4284,3.2461,3.1482,3.1482,3.1482,3.1482,3.1482,3.1482,3.2501,3.4333,3.5207,3.5622,3.5622,3.5622,3.5622,3.5622,3.5622,3.5622,3.5622,3.5622,3.5622,3.5622,0.0,0.0,0.0,0.0,0.0,0.0,0.0,0.0,0.0,0.0,0.0,0.0,0.0,0.0,0.0,0.0,0.0,0.0,1.5193,1.5236,1.5189,1.5189,1.5189,1.5189,1.5189,1.5189,1.3517,1.0094,1.0133,1.0205,1.0371,1.3809,1.7246,2.0547,2.0547,2.0547,2.0547,2.0586,2.0605,2.0585,2.0377,2.0312,2.0312,0.0,0.0,0.0,0.0,0.0,0.0,0.0,1.9305,1.9305,1.9305,1.9305,1.9305,1.9305,1.9305,1.9289,1.9289,1.9289,2.0849,2.731,2.6557,2.4245,2.4281,3.177,3.8117,3.6037,3.723,3.7138,3.2076,3.1173,3.2171,3.5131,3.5622,3.5622,3.5622,3.5622,3.5622,3.5622,3.5622,3.5622,3.5622,3.3114,3.1524,3.1495,3.1509,3.2703,3.547,3.5622,3.5622,3.5622,3.5577,3.4235,3.1524,3.1482,3.1482,3.1482,3.1482,3.1482,3.1482,3.1482,3.1482,3.1625,3.4399,3.5622,3.5622,3.5622,3.5622,3.5622,3.5622,3.5622,3.5622,3.5622,3.5622,3.5622,0.0,0.0,0.0,0.0,0.0,0.0,0.0,0.0,0.0,0.0,0.0,0.0,0.0,0.0,0.0,0.0,0.0,0.0,1.5197,1.5218,1.5189,1.5189,1.5189,1.5189,1.5189,1.5189,1.3517,1.0094,1.2517,1.2536,1.0371,1.3809,1.5957,1.6934,1.6934,1.6934,1.7109,1.9551,2.0523,2.0383,2.0318,2.0312,2.0312,0.0,0.0,0.0,0.0,0.0,0.0,0.0,0.0,0.0,1.9305,1.9305,1.9305,1.9305,1.9305,1.9146,1.8436,1.8753,1.9748,2.1694,2.4905,2.8172,3.0448,3.4963,3.8515,3.7895,3.7117,3.4765,2.9085,2.977,3.2171,3.5131,3.5622,3.5622,3.5622,3.5622,3.5622,3.5622,3.5622,3.5622,3.5622,3.4847,3.3499,3.1442,3.3205,3.4752,3.5577,3.5622,3.5622,3.5622,3.3735,3.2296,3.1539,3.1482,3.1482,3.1482,3.1482,3.1482,3.1482,3.1482,3.1482,3.1625,3.4399,3.5622,3.5622,3.5622,3.5622,3.5622,3.5622,3.5622,3.5622,3.5622,3.5622,3.5622,0.0,0.0,0.0,0.0,0.0,0.0,0.0,0.0,0.0,0.0,0.0,0.0,0.0,0.0,0.0,0.0,0.0,0.0,0.0,1.5189,1.5189,1.5189,1.5189,1.5189,1.5189,1.5189,1.419,1.2132,1.4241,1.4277,1.2363,1.4376,1.5314,1.5316,1.5387,1.5391,1.5547,1.7637,1.9227,2.0312,2.0312,2.0312,2.0312,0.0,0.0,0.0,0.0,0.0,0.0,0.0,0.0,0.0,1.9376,1.9305,1.9209,1.8824,1.8996,1.9162,1.857,1.8551,1.8699,1.8699,2.486,3.1887,3.5608,3.5634,3.5587,3.8175,3.7041,3.4729,3.1984,3.2283,3.3541,3.5334,3.5622,3.5622,3.5622,3.5622,3.5622,3.5622,3.459,3.3863,3.3863,3.3863,3.3119,3.1326,3.2848,3.437,3.5554,3.5622,3.5622,3.5622,3.2917,3.1482,3.1482,3.1482,3.1482,3.1482,3.1482,3.1482,3.1482,3.1482,3.1482,3.1625,3.4399,3.5622,3.5622,3.5622,3.4928,3.3863,3.3863,3.3863,3.3998,3.5182,3.5622,3.5622,0.0,0.0,0.0,0.0,0.0,0.0,0.0,0.0,0.0,0.0,0.0,0.0,0.0,0.0,0.0,0.0,0.0,0.0,0.0,1.5189,1.5177,1.5146,1.5177,1.5189,1.5189,1.5189,1.5189,1.5189,1.5327,1.5391,1.5391,1.5261,1.5189,1.5207,1.5321,1.539,1.543,1.5742,1.7582,2.0312,2.0312,2.0312,2.0312,2.0312,0.0,0.0,0.0,0.0,0.0,0.0,0.0,0.0,1.9593,1.935,1.913,1.8194,1.8589,1.9274,1.9193,1.8494,1.7952,1.8637,2.6361,3.4853,3.8954,3.4348,3.0935,3.7124,3.6925,3.6121,3.7703,3.6693,3.5622,3.5622,3.5622,3.5622,3.5622,3.5385,3.5216,3.5216,3.2831,3.119,3.119,3.119,3.119,3.119,3.119,3.2374,3.5081,3.547,3.5622,3.5622,3.2917,3.1482,3.1482,3.1482,3.1482,3.1482,3.1228,3.1108,3.1108,3.1108,3.1108,3.1321,3.4005,3.5216,3.5216,3.5216,3.3626,3.1224,3.1495,3.1596,3.1935,3.4624,3.5622,3.5622,0.0,0.0,0.0,0.0,0.0,0.0,0.0,0.0,0.0,0.0,0.0,0.0,0.0,0.0,0.0,0.0,0.0,0.0,0.0,1.5189,1.5033,1.4658,1.5004,1.5189,1.5189,1.5189,1.5189,1.5189,1.5327,1.5391,1.5391,1.5261,1.5189,1.5195,1.5241,1.5293,1.5586,1.832,1.9795,2.0312,2.0312,2.0312,2.0312,2.0312,2.0312,0.0,0.0,0.0,0.0,0.0,0.0,0.0,2.0177,1.9719,1.9259,1.9046,1.913,1.913,1.8356,1.7954,1.9218,2.5131,3.0209,3.4034,3.5014,3.2895,3.18,3.5514,3.5924,3.5026,3.3145,3.4353,3.5622,3.5622,3.5622,3.5622,3.5622,3.3609,3.2154,3.2154,3.1579,3.119,3.119,3.119,3.119,3.119,3.119,3.1478,3.2104,3.4353,3.5622,3.5622,3.2917,3.1482,3.1482,3.1482,3.1482,3.1452,2.9415,2.8427,2.8427,2.8427,2.8427,2.8568,3.1068,3.2154,3.2154,3.2154,3.1765,3.1427,3.3761,3.4658,3.4742,3.5385,3.5622,3.5622,0.0,0.0,0.0,0.0,0.0,0.0,0.0,0.0,0.0,0.0,0.0,0.0,0.0,0.0,0.0,0.0,0.0,0.0,0.0,0.0,1.5094,1.4857,1.508,1.5189,1.5189,1.5189,1.5189,1.5189,1.5272,1.5296,1.5296,1.5226,1.5189,1.5201,1.5265,1.5327,1.5625,1.9121,2.0534,2.0433,2.0346,2.0312,2.0312,2.0312,2.0312,2.0315,2.041,0.0,0.0,0.0,0.0,0.0,0.0,0.0,1.9305,1.9305,1.9305,1.9178,1.8663,1.9686,2.1994,2.673,2.9154,3.0764,3.2228,3.1842,3.163,3.3186,3.3508,3.3034,3.1478,3.2459,3.3964,3.5385,3.5622,3.5131,3.3694,3.2171,3.119,3.119,3.119,3.119,3.119,2.9888,2.9634,3.1089,3.119,3.119,3.119,3.2662,3.3508,3.3508,3.3469,3.3479,3.3479,3.2145,3.0896,2.9624,2.8233,2.7625,2.7625,2.7625,2.7625,2.7735,3.0239,3.0638,2.9665,3.2259,3.2476,3.1358,3.2983,3.3633,3.3633,3.3633,3.3633,3.3633,0.0,0.0,0.0,0.0,0.0,0.0,0.0,0.0,0.0,0.0,0.0,0.0,0.0,0.0,0.0,0.0,0.0,0.0,0.0,0.0,0.0,1.5189,1.5189,1.5189,1.5189,1.5189,1.5189,1.5189,1.5189,1.5189,1.5195,1.5226,1.5226,1.5236,1.5356,1.5723,1.6484,1.9375,2.0605,2.0585,2.041,2.0332,2.0312,2.0312,2.0312,2.0277,2.0162,2.0208,2.0312,2.0312,0.0,0.0,0.0,0.0,1.9305,1.9305,1.9305,1.9305,1.9305,2.1552,2.4334,2.6233,2.6691,2.7351,2.9837,3.0412,3.0412,3.0412,3.0835,3.1038,3.0514,3.0852,3.2002,3.4455,3.4861,3.3998,3.1529,3.119,3.1004,3.048,3.0412,3.0632,3.114,2.8467,2.774,3.0226,3.0903,3.119,3.119,3.119,3.119,3.119,3.3575,3.4861,3.4861,3.2144,2.9744,2.7625,2.7625,2.7625,2.7625,2.7625,2.7625,2.7694,2.9894,2.9864,2.8574,3.2577,3.3034,3.1281,3.1436,3.1482,3.1482,3.1482,3.1482,3.1482,0.0,0.0,0.0,0.0,0.0,0.0,0.0,0.0,0.0,0.0,0.0,0.0,0.0,0.0,0.0,0.0,0.0,0.0,1.5189,0.0,0.0,1.5189,1.5189,1.5189,1.5189,1.5189,1.5189,1.5189,1.5189,1.5189,1.5195,1.5312,1.5367,1.5367,1.539,1.707,1.9941,2.0391,2.0605,2.0605,2.0563,2.0453,2.0312,2.0312,2.0312,2.0225,1.9645,1.9821,2.0312,2.0312,2.0312,0.0,0.0,0.0,1.9305,1.9305,1.9305,1.9305,1.9305,2.0894,2.3215,2.6012,2.6691,2.681,2.7199,2.73,2.73,2.73,2.9381,3.0395,2.7774,2.9431,3.1326,3.1715,3.1782,3.1647,3.1258,3.119,3.0226,2.7604,2.73,2.8315,3.0937,2.8467,2.686,2.7266,2.9719,3.119,3.119,3.119,3.119,3.119,3.1579,3.1782,3.1782,2.9343,2.797,2.7625,2.7625,2.7625,2.7625,2.7625,2.7625,2.764,2.7949,2.9205,3.0851,2.9331,2.977,3.1435,3.1489,3.1482,3.1482,3.1482,3.1482,3.1482,0.0,0.0,0.0,0.0,0.0,0.0,0.0,0.0,0.0,0.0,0.0,0.0,0.0,0.0,0.0,1.4503,1.504,1.5189,1.5189,1.5189,1.5189,1.5189,1.5272,1.528,1.5195,1.5189,1.5189,1.5189,1.5189,1.5189,1.5259,1.7343,1.7266,1.5391,1.5391,1.7344,2.0605,2.0605,2.0605,2.0605,2.0605,2.0477,2.0312,2.0312,2.0312,2.0269,1.9971,1.9821,1.9731,1.9731,1.9731,1.9731,1.9731,0.0,0.0,0.0,1.9305,1.9305,1.9305,1.954,2.05,2.3494,2.5473,2.6268,2.4611,2.4239,2.4712,2.6353,2.7757,2.8264,2.6928,2.7774,2.867,2.867,2.867,2.9262,3.0954,2.9736,2.818,2.686,2.6691,2.7215,2.8552,2.7469,2.6691,2.6691,2.7926,2.867,2.867,2.867,2.9448,3.114,3.119,3.119,3.119,3.0149,2.8192,2.5345,2.5345,2.6123,2.7625,2.7625,2.7625,2.77,2.9146,2.9609,2.934,2.9654,3.0477,3.1482,3.1482,3.1482,3.1482,3.1482,3.1482,3.1258,0.0,0.0,0.0,0.0,0.0,0.0,0.0,0.0,0.0,0.0,0.0,0.0,0.0,0.0,0.0,0.0,1.4996,1.5204,1.5255,1.5259,1.5259,1.5259,1.5355,1.5358,1.5244,1.521,1.5189,1.5189,1.6074,1.6055,1.5259,1.7958,1.8335,1.6719,1.6719,1.8164,2.0605,2.0605,2.0563,2.0529,2.0585,2.0477,2.0312,2.0312,2.0312,2.0312,2.0312,1.9877,1.9305,1.9305,1.9305,1.9305,1.9305,1.9305,0.0,0.0,0.0,1.9305,1.9305,1.8753,1.8659,2.0662,2.3393,2.5017,2.2818,2.231,2.2919,2.5135,2.5575,2.5575,2.5575,2.6184,2.6691,2.6691,2.6691,2.7486,2.9736,2.8112,2.6505,2.5947,2.5911,2.5911,2.5911,2.5911,2.6106,2.6657,2.6691,2.6691,2.6691,2.6691,2.7723,2.9989,3.0801,3.119,3.119,3.0601,2.8051,2.361,2.4283,2.5644,2.7625,2.7625,2.7625,2.773,2.9669,2.94,2.7775,2.9699,3.0522,3.0522,3.0522,3.0941,3.1482,3.1482,3.1106,3.0238,0.0,0.0,0.0,0.0,0.0,0.0,0.0,0.0,0.0,0.0,0.0,0.0,1.0057,1.0078,1.1441,1.4877,1.5183,1.5244,1.5388,1.539,1.539,1.539,1.5391,0.0,1.539,1.5265,1.5189,1.5189,1.8446,1.8388,1.5189,1.5386,1.7225,2.0332,2.0332,2.043,2.0605,2.0605,2.0483,2.0332,2.0525,2.0477,2.0312,2.0312,2.0312,2.0312,2.0312,1.9877,1.9305,1.9305,1.9305,1.9305,1.9305,1.9305,1.9305,0.0,0.0,0.0,1.9305,1.9259,1.9033,1.8229,2.0314,2.2496,2.2344,2.231,2.2344,2.2513,2.2547,2.2547,2.2547,2.4814,2.6691,2.6691,2.6691,2.6742,2.6911,2.6793,2.5964,2.3991,2.3752,2.3752,2.3752,2.3752,2.4561,2.6539,2.6691,2.6691,2.6691,2.6691,2.6759,2.6928,2.9702,3.119,3.119,2.8934,2.6356,2.3625,2.6168,2.749,2.7625,2.7625,2.7625,2.7625,2.7724,2.7745,2.7625,2.7775,2.7784,2.7784,2.7784,2.9325,3.1482,3.1482,2.9939,2.7754,0.0,0.0,0.0,0.0,0.0,0.0,0.0,0.0,0.0,0.0,0.0,0.0,0.0,1.0094,1.1479,1.4901,1.5283,1.5355,1.5391,1.5314,1.5304,1.539,1.5391,1.5391,1.5391,1.5268,1.5189,1.5189,1.8619,1.8561,1.5189,1.5189,1.7057,2.0405,2.0536,2.0605,2.0605,2.0605,2.048,2.0323,2.0523,2.0477,2.0312,2.0312,2.0312,2.0312,2.0312,1.9877,1.9305,1.9305,1.958,1.9931,1.9931,1.9931,1.9931,1.9931,1.9931,1.9855,1.9419,1.9305,1.9209,1.8842,1.9574,2.0212,1.957,1.9418,1.9418,1.9418,1.9418,2.001,2.1955,2.4712,2.6691,2.6691,2.5566,2.4721,2.4721,2.4721,2.4415,2.3681,2.3595,2.3595,2.3595,2.3595,2.3906,2.4641,2.4721,2.5303,2.6624,2.6691,2.6691,2.6691,2.774,2.8298,2.8298,2.7438,2.5876,2.361,2.5932,2.8046,2.9919,2.9919,2.9919,2.9919,2.9919,2.9919,2.9789,2.8255,2.7625,2.7625,2.7625,2.8158,2.8996,2.8996,2.8382,2.7625,0.0,0.0,0.0,0.0,0.0,0.0,0.0,0.0,0.0,1.1377,0.0,0.0,0.0,0.0,1.2772,1.5009,1.5287,1.5325,1.5325,1.5255,1.5252,1.539,1.5391,1.5391,1.5391,1.6385,1.6901,1.6901,1.9242,1.8639,1.5265,1.5265,1.6454,1.8645,1.9936,2.0533,2.0605,2.0605,2.048,2.0323,2.0523,2.0525,2.0399,2.0318,2.0334,2.0404,2.0404,2.0073,1.9632,1.9632,1.9931,2.026,2.005,2.0126,2.0312,2.0312,2.0312,2.0208,1.9755,1.9632,1.958,1.9365,1.9305,1.913,1.8455,1.8044,1.7811,1.7811,1.7811,1.842,2.0433,2.3224,2.5541,2.6539,2.4957,2.3595,2.3595,2.3595,2.3266,2.2398,2.2278,2.2278,2.2278,2.3071,2.3595,2.3595,2.3595,2.4536,2.6573,2.6691,2.6691,2.6691,2.6691,2.6691,2.6691,2.6691,2.5999,2.4641,2.6035,2.774,2.9685,2.9685,3.0243,3.119,3.119,3.074,2.9919,2.9164,2.8336,2.7625,2.7625,2.7625,2.7625,2.7625,2.7625,2.7625,0.0,0.0,0.0,0.0,0.0,0.0,0.0,0.0,1.1016,1.4724,0.0,0.0,0.0,0.0,0.0,1.5218,1.5189,1.5189,1.5189,1.5189,1.5252,1.539,1.5391,1.5391,1.5391,1.863,2.0308,2.0308,2.0397,1.8711,1.5391,1.5391,1.5323,1.5361,1.8773,2.04,2.0605,2.0605,2.0483,2.0318,2.0525,2.0605,2.0563,2.0365,2.0415,2.0586,2.0586,2.0464,2.0312,2.0312,2.0312,2.0199,1.9526,1.9786,2.0312,2.0312,2.0312,2.0304,0.0,0.0,0.0,1.9462,1.9305,1.9305,1.9305,1.8513,1.7811,1.7811,1.7811,1.7811,1.7811,2.0196,2.3139,2.6082,2.4869,2.3561,2.3475,2.3475,2.2532,1.9989,1.969,1.969,1.969,2.1994,2.3475,2.3475,2.355,2.4496,2.6505,2.6657,2.6691,2.6691,2.6691,2.6691,2.6691,2.6691,2.6691,2.6691,2.6691,2.6691,2.6691,2.6691,2.8349,3.119,3.105,2.9659,2.7689,3.0159,2.9832,2.771,2.7625,2.7625,2.7625,2.7625,2.7625,2.7625,0.0,0.0,0.0,0.0,0.0,0.0,0.9119,0.9447,1.1016,0.0,0.0,0.0,1.0269,1.3214,1.5241,1.5201,1.5189,1.5189,1.5189,1.5189,1.5252,1.539,1.5391,1.5391,1.5391,1.8758,2.0523,2.0523,1.8044,1.6348,1.5391,1.5391,1.5388,1.5485,1.8827,2.04,2.0605,2.0605,2.0562,2.0525,2.0584,2.0501,2.0371,2.0311,2.0339,2.0383,2.0383,2.034,2.0312,2.0312,2.0312,2.0269,2.0079,2.0153,2.0312,2.0312,2.0312,2.018,1.9707,0.0,0.0,0.0,0.0,0.0,1.9305,1.8513,1.7811,1.7811,1.7811,1.7811,1.7811,1.8488,2.0044,2.3038,2.3036,2.2226,2.0941,2.0767,2.0498,1.9779,1.969,1.969,1.969,2.0333,2.0767,2.0767,2.2532,2.3864,2.4415,2.5875,2.6691,2.6691,2.6691,2.6691,2.6691,2.6691,2.6691,2.6691,2.6691,2.6691,2.6691,2.6691,2.8349,3.0977,2.7297,2.5305,2.5047,2.9403,3.0797,3.0021,2.8304,2.7625,2.7625,2.7625,2.7625,2.7625,0.0,0.0,0.0,0.0,0.0,0.9228,0.9228,0.95,1.0959,0.0,0.0,0.0,1.1947,1.3701,1.4917,1.4917,1.4917,1.4996,1.5183,1.5189,1.5252,1.539,1.5391,1.6074,1.7539,1.9551,2.0605,2.0605,1.8555,1.7578,1.7539,1.6074,1.5391,1.5488,1.7336,1.9024,2.0471,2.0471,2.0525,2.0605,2.0605,2.0477,2.0312,2.0312,2.0312,2.0312,2.0312,2.0312,2.0312,2.0312,2.0312,2.0312,2.0312,2.0312,2.0312,2.0312,2.0098,1.9809,1.9405,1.9305,1.9305,1.9305,0.0,0.0,1.9305,1.8513,1.7811,1.7811,1.7811,1.7811,1.7811,1.7811,1.8386,2.0145,2.0407,2.05,2.0735,1.9206,1.8077,1.8077,1.8077,1.8077,1.8077,1.9046,1.969,1.969,2.1096,2.2818,2.4776,2.486,2.4528,2.3793,2.4495,2.4864,2.4864,2.4864,2.5473,2.6691,2.6691,2.6691,2.6691,2.6691,2.7178,2.7867,2.4875,2.3595,2.3915,2.7756,2.9313,2.9185,2.7782,2.667,2.6048,2.7205,2.7625,2.7625,0.0,0.0,1.343,1.3511,1.1629,1.002,0.9746,0.9992,1.1251,0.0,1.4488,1.4464,1.4393,1.4453,1.4488,1.4488,1.4488,1.4698,1.5171,1.5189,1.5252,1.539,1.5762,1.7422,2.0527,2.0215,2.0215,2.0605,2.0605,2.0605,2.0527,1.7422,1.5976,1.593,1.582,1.7439,2.0312,2.0312,2.039,2.0563,2.0586,2.0486,2.0332,2.0332,2.033,2.0312,2.0312,2.0312,2.0312,2.0312,2.0312,2.0312,2.0312,2.0312,2.0296,2.0216,1.9767,1.9305,1.9305,1.9305,1.9305,1.9305,1.9305,0.0,1.9305,1.8607,1.7975,1.7975,1.7883,1.7811,1.7811,1.7811,1.7811,1.7811,1.7811,1.8741,2.1431,1.8467,1.6024,1.6024,1.6024,1.6024,1.6024,1.7994,1.9346,1.947,1.9813,2.179,2.5999,2.3547,2.1291,1.9747,2.1197,2.2106,2.231,2.231,2.3782,2.6691,2.6691,2.6691,2.6691,2.6691,2.5677,2.3948,2.3724,2.3709,2.4101,2.5947,2.6691,2.6691,2.6691,2.5566,2.4268,2.699,2.7845,2.7625,0.0,0.0,1.3592,1.418,1.3398,1.2008,1.001,1.1893,1.3802,1.4414,1.4488,1.4275,1.3684,1.4141,1.4488,1.4488,1.4488,1.4698,1.5171,1.5189,1.5252,1.539,1.8086,1.9902,2.0586,1.7852,1.7793,2.0605,2.0605,2.0605,2.0586,1.9902,1.9504,1.933,1.9314,1.9677,2.0312,2.0312,2.0318,2.0365,2.0533,2.0584,2.0534,2.0534,2.0437,2.0312,2.0312,2.0312,2.0312,2.0312,2.0312,2.0312,2.0312,2.0312,2.018,1.9645,1.9405,1.9305,1.9305,1.9305,1.9305,1.9305,1.9305,0.0,1.9305,1.9146,1.9013,1.9013,1.8358,1.7811,1.7811,1.7811,1.7811,1.7811,1.7811,1.8014,1.8606,1.7957,1.7408,1.7408,1.7408,1.7408,1.7408,1.6889,1.7018,1.8086,2.0411,2.2195,2.311,2.1295,2.005,1.9726,2.0015,2.0862,2.2282,2.231,2.3782,2.6691,2.6691,2.6691,2.6691,2.6691,2.6488,2.5999,2.4333,2.4561,2.6106,2.6539,2.6691,2.6691,2.6691,2.6454,2.6471,2.9423,2.9255,2.7625,0.0,1.3396,1.3511,1.3891,1.3949,1.3525,1.2284,1.3471,1.4488,1.4488,1.4488,1.435,1.3991,1.4288,1.4592,1.4821,1.4839,1.4957,1.5183,1.5189,1.5236,1.531,1.8704,2.0605,2.0605,1.8887,1.8848,2.0605,2.0605,2.0605,2.0605,2.0605,2.0557,2.0441,2.0334,2.0312,2.0312,2.0312,2.0312,2.0308,2.042,2.0519,2.0605,2.0605,2.0533,2.0433,2.0339,2.0312,2.0312,2.0312,2.0312,2.0312,2.0312,2.0312,2.0162,1.9504,1.9305,1.9305,1.9305,1.9305,1.9305,1.9305,1.9305,0.0,0.0,1.9305,1.9305,1.9305,1.8494,1.7954,1.8455,1.8149,1.7954,1.8475,1.8551,1.8551,1.8551,1.8128,1.7811,1.7811,1.7811,1.7811,1.7811,1.7199,1.7704,1.9875,2.1465,2.1915,2.1055,2.0174,1.969,1.969,1.969,2.0548,2.2282,2.231,2.3782,2.6691,2.6691,2.6691,2.6691,2.6691,2.6691,2.6657,2.5603,2.573,2.6691,2.6691,2.6071,2.5265,2.6298,2.6691,2.6877,2.8399,2.9161,2.939,1.3396,1.3396,1.3446,1.3592,1.3991,1.4338,1.4476,1.4488,1.4488,1.4488,1.4488,1.4488,1.4488,1.4488,1.4688,1.5165,1.5189,1.5218,1.5231,1.5204,1.5497,1.6151,1.9015,2.0605,2.0605,1.9919,1.9875,2.0536,2.0585,2.0605,2.0605,2.0605,2.0605,2.0586,2.0424,2.0339,2.0292,2.0334,2.0339,2.0292,2.0334,2.0453,2.0605,2.0605,2.0605,2.0564,2.0365,2.0312,2.0277,2.0153,2.0098,2.0135,2.026,2.0312,2.0162,1.9504,1.939,1.9462,1.9335,1.9305,1.9305,1.9305,1.9162,1.9013,0.0,0.0,0.0,1.9013,1.8375,1.8044,1.8859,1.8356,1.8128,1.9146,1.9305,1.9305,1.9305,1.8607,1.8086,1.8086,1.8086,1.8018,1.7833,1.7811,1.8826,2.1262,2.1989,2.1444,1.9454,1.9582,1.969,1.969,1.969,2.0379,2.1781,2.2135,2.3782,2.6691,2.6691,2.6691,2.6691,2.6691,2.6691,2.6691,2.6691,2.6454,2.6142,2.6539,2.5713,2.4374,2.6035,2.6691,2.6691,2.6691,2.8602,3.119,1.3396,1.3396,1.3624,1.4263,1.3906,1.3761,1.4405,1.4488,1.4488,1.4488,1.4488,1.4488,1.4488,1.4488,1.4688,1.5165,1.5189,1.5259,1.5366,1.5265,1.6554,1.96,2.0294,2.0605,2.0605,1.7469,1.7296,2.0339,2.0501,2.0605,2.0605,2.0605,2.0605,2.0605,2.0584,2.0464,2.0315,2.0486,2.046,2.0323,2.0489,2.0585,2.0605,2.0605,2.0605,2.0564,2.0365,2.0312,2.0208,1.9606,1.9405,1.9532,2.0107,2.0312,2.0162,1.9504,1.9719,2.006,1.9462,1.9305,1.9305,1.9305,1.8626,1.7975,1.7975,0.0,1.7975,1.7975,0.0,1.7816,1.7954,0.0,0.0,1.9146,1.9305,1.9305,1.9305,1.9193,1.913,1.913,1.913,1.8771,1.7883,1.7811,1.7946,1.8302,2.0805,2.1063,1.8159,1.9076,1.969,1.969,1.969,1.9782,1.998,2.1524,2.3782,2.6691,2.6691,2.6691,2.6691,2.6691,2.6691,2.6691,2.6691,2.564,2.4101,2.5947,2.6573,2.6385,2.6607,2.6691,2.6691,2.6691,2.8602,3.119,1.3396,1.3396,0.0,1.4362,1.4232,1.4141,1.4453,1.4488,1.4488,1.4488,1.4488,1.4488,1.4488,1.4817,1.5093,1.5304,1.7059,1.7342,1.541,1.5229,1.5878,1.7381,1.9484,2.0605,2.0605,1.7054,1.6881,2.0312,2.0383,2.048,2.0605,2.0605,2.0605,2.0605,2.0605,2.0558,2.0477,2.0561,2.0558,2.0467,2.0438,2.0419,2.0419,2.0419,2.0419,2.0366,1.9895,1.9719,1.96,1.8735,1.8417,1.8589,1.9443,1.9719,1.9657,1.9376,1.9504,1.9657,1.9394,1.9305,1.9305,1.9305,1.8551,1.7811,1.7811,1.7811,1.7811,1.7811,0.0,0.0,0.0,0.0,0.0,0.0,1.8417,1.8626,1.9227,1.9305,1.9305,1.9305,2.0978,2.1005,1.8097,1.7811,1.8538,2.0297,1.9976,1.9147,1.7879,1.9979,2.0731,1.9726,1.8242,1.8182,1.9675,2.0447,2.2769,2.6691,2.6691,2.6691,2.6691,2.6691,2.6691,2.6691,2.6691,2.6177,2.5454,2.635,2.6691,2.6691,2.6691,2.6691,2.6691,2.6691,2.8602,3.119,1.37,0.0,0.0,1.4362,1.4488,1.4488,1.4488,1.4488,1.4829,1.571,1.5821,1.5888,1.6063,1.6525,1.6836,1.6836,1.8105,1.7854,1.5355,1.5087,1.5111,1.535,1.8494,1.988,1.9145,1.7462,1.7804,2.0312,2.0312,2.039,2.0605,2.0605,2.0605,2.0605,2.0605,2.0605,2.0605,2.0605,2.0562,2.0516,2.036,2.0199,2.0021,2.0021,2.0021,1.9931,1.9151,1.8876,1.8771,1.8061,1.7811,1.7927,1.8663,1.8876,1.8876,1.8876,1.8876,1.8876,1.8876,1.9079,1.9429,1.9993,1.9169,1.8149,1.7861,1.7811,1.7811,1.7811,1.7811,0.0,0.0,0.0,1.7811,1.7811,0.0,1.8044,1.8789,1.8876,1.8876,1.8876,2.2027,2.2623,1.8592,1.8214,1.9338,2.2101,1.9519,1.7811,1.7811,1.9891,2.0299,1.8665,1.7492,1.7792,1.966,2.0393,2.2739,2.6691,2.6691,2.6691,2.6691,2.6691,2.6691,2.6691,2.6691,2.6691,2.6691,2.6691,2.6691,2.6691,2.6691,2.6691,2.6691,2.6691,2.8078,2.9973,1.4464,1.3891,0.0,1.4362,1.4488,1.4488,1.4488,1.4488,1.5619,1.8739,1.9158,1.9391,2.0035,2.0318,2.043,2.043,1.7322,1.5326,1.521,1.4766,1.4738,1.5195,1.7865,1.8104,1.5432,1.8504,2.0196,2.0312,2.0312,2.039,2.0605,2.0605,2.0605,2.0605,2.0605,2.0605,2.0605,2.0605,2.0483,2.0308,2.0292,1.9909,1.9335,1.9335,1.9335,1.9209,1.8214,1.7839,1.7839,1.7811,1.7811,1.7811,1.7856,1.7839,1.7839,1.7839,1.7839,1.7839,1.7839,1.8551,1.9756,2.1721,2.0714,1.8996,1.8018,1.7811,1.7811,1.7811,1.7811,1.7811,1.7811,1.7811,1.7811,1.7811,1.7811,0.0,0.0,1.7839,1.7839,1.7839,2.1601,2.2905,1.957,1.9259,2.0096,2.2156,1.9519,1.7811,1.7811,1.7896,1.7306,1.5976,1.8317,1.96,1.969,2.2203,2.4563,2.6691,2.6691,2.6691,2.6691,2.6691,2.6691,2.6691,2.6691,2.6691,2.6691,2.6691,2.6691,2.6691,2.6691,2.6691,2.6691,2.6691,2.6759,2.6826,0.0,0.0,0.0,1.4453,1.4488,1.4603,1.4925,1.6504,1.8233,1.9758,2.0072,2.0245,2.0467,2.056,2.0605,2.0605,1.9355,1.7486,1.4907,1.4581,1.572,1.847,1.6531,1.5882,1.6885,1.8038,1.8966,1.9632,2.0079,2.039,2.0605,2.0605,2.0605,2.0586,2.046,2.041,2.04,2.0536,2.048,2.0197,1.9081,1.8518,1.8316,1.8316,1.8316,1.8255,1.791,1.7811,1.7811,1.7811,1.7199,1.6485,1.6485,1.6485,1.6644,1.7526,1.7811,1.7811,1.7811,1.8044,1.8641,1.9978,1.9793,1.9209,1.8859,1.8789,1.8607,1.7949,1.7811,1.7811,1.7811,1.7811,1.7811,1.7811,1.7811,1.7811,0.0,1.7811,1.7811,1.7811,1.9664,2.0519,1.9415,1.8699,1.9428,2.2101,1.9519,1.7811,1.7811,1.7811,1.7572,1.715,1.9931,2.2361,2.4292,2.5203,2.5999,2.6691,2.6691,2.6691,2.6691,2.6691,2.6691,2.6691,2.6691,2.6691,2.6691,2.6691,2.6691,2.6691,2.6691,2.6691,2.6691,2.6691,2.6691,2.6979,1.4533,1.4488,1.4488,1.4488,1.4645,1.5283,1.6874,1.8571,1.9802,2.0233,2.0416,2.0486,2.0486,2.0486,2.0486,2.0486,2.0371,1.9235,1.6732,1.6336,1.7324,1.9844,1.6763,1.5849,1.7755,1.7811,1.8296,1.9305,1.9731,2.0166,2.0605,2.0527,2.0486,2.0483,2.036,2.0312,2.0315,2.0501,2.0344,1.9817,1.8385,1.7811,1.7811,1.7811,1.7811,1.7811,1.7811,1.7811,1.7811,1.7811,1.6926,1.5799,1.5799,1.5799,1.5983,1.685,1.7432,1.7916,1.8349,1.8923,1.9553,2.0194,2.0356,2.0091,1.9004,1.8771,1.8589,1.7932,1.7811,1.7811,1.7811,1.7811,1.7811,1.7811,1.7811,1.7811,0.0,1.7811,1.7811,1.7811,1.8358,1.8771,1.8771,1.8173,1.8623,2.0568,1.891,1.7811,1.7811,1.8826,1.9401,1.9401,2.1295,2.3224,2.5118,2.5135,2.5659,2.6691,2.6691,2.6691,2.6691,2.6691,2.6691,2.664,2.5592,2.5135,2.5135,2.5135,2.5135,2.5236,2.6285,2.6691,2.6691,2.6691,2.6691,2.7131,1.4549,1.4499,1.46,1.4747,1.5163,1.6609,2.0058,2.041,2.0352,2.0532,2.0396,2.0312,2.0312,2.0312,2.0312,2.0312,2.0312,2.0312,2.0312,1.967,1.932,1.935,1.8358,1.7811,1.7811,1.7743,1.8197,1.9243,1.9274,1.9744,2.0605,2.0399,2.0312,2.0312,2.0312,2.0312,2.0315,2.0501,2.0063,1.9146,1.8173,1.7766,1.7704,1.7766,1.7811,1.7811,1.7811,1.7811,1.7811,1.7811,1.6926,1.5799,1.5799,1.5856,1.5898,1.5898,1.6799,1.8087,1.9336,2.091,2.218,2.2282,2.231,2.1566,1.8691,1.7912,1.7811,1.7811,1.7929,1.798,1.7845,1.7929,1.798,1.7828,1.7811,1.7811,1.7811,1.7811,1.7811,1.7811,1.7811,1.7811,1.7811,1.7811,1.7811,1.7811,1.7811,1.7879,1.8014,2.0754,2.231,2.231,2.231,2.231,2.231,2.2446,2.3849,2.6471,2.6623,2.6623,2.6471,2.6471,2.6471,2.6319,2.3528,2.231,2.231,2.231,2.231,2.2598,2.5541,2.6657,2.6573,2.6657,2.6691,2.7131,1.3801,1.4408,1.5827,1.837,1.8904,1.9293,2.0249,2.0337,2.1184,2.3689,2.1849,2.0312,2.0312,2.0312,2.0312,2.0312,2.0312,2.0312,2.0312,1.967,1.9513,2.0021,1.8592,1.7811,1.7811,1.6825,1.6928,1.8191,1.8928,1.9744,2.0605,2.0399,2.0312,2.0312,2.0312,2.0312,2.0315,2.0501,1.9665,1.8153,1.7905,1.7199,1.6405,1.7432,1.7811,1.7811,1.7811,1.7811,1.7811,1.7811,1.6926,1.5799,1.5799,1.6485,1.7296,1.7296,1.7526,1.8087,1.9336,2.0015,2.0681,2.1991,2.231,2.2107,2.1329,1.9418,1.7811,1.7811,1.9587,2.0467,1.8217,1.9638,2.0416,1.8166,1.7811,1.7811,1.7811,1.7811,1.7811,1.7811,1.7811,1.7811,1.7811,1.7811,1.7811,1.7811,1.7811,1.8768,2.1042,2.1887,2.231,2.231,2.231,2.231,2.231,2.4475,2.4847,2.346,2.5642,2.5541,2.3444,2.3444,2.3444,2.3393,2.2649,2.231,2.231,2.231,2.231,2.2598,2.5541,2.5766,2.4561,2.6106,2.6691,2.7131,1.3718,1.5577,1.8042,1.9965,2.0365,2.0438,2.0425,2.0118,2.1216,2.4987,2.2199,2.0012,2.0386,2.0354,2.0312,2.0312,2.0312,2.0346,2.0439,1.9992,1.9909,2.0277,1.8697,1.7811,1.7811,1.6501,1.6668,1.8455,1.8589,1.9279,2.0471,2.0449,2.0383,2.0312,2.0312,2.0312,2.0299,2.0102,1.8823,1.6977,1.7549,1.7361,0.0,1.7502,1.7811,1.7811,1.7811,1.7811,1.7811,1.7811,1.7296,1.667,1.667,1.7199,1.7811,1.7811,1.8741,1.9906,2.0621,2.0845,2.1055,2.2049,2.231,2.231,2.231,2.0991,1.9773,1.9773,2.1126,2.153,1.9083,1.9099,1.9072,1.799,1.7811,1.7811,1.7811,1.7811,1.7811,1.7811,1.7811,1.7811,1.7811,1.7811,1.7811,1.7811,1.7811,1.913,2.2158,2.231,2.231,2.231,2.231,2.231,2.231,2.522,2.5862,2.4239,2.4611,2.3917,2.231,2.231,2.231,2.231,2.231,2.231,2.231,2.231,2.231,2.2495,2.4547,2.5189,2.5256,2.7768,2.867,2.8907,1.4658,1.751,2.0346,2.0346,2.048,2.0565,2.0453,1.9677,2.0527,2.4503,2.1754,1.9725,2.0488,2.0395,2.0312,2.0312,2.0312,2.0365,2.0557,2.0307,2.0162,2.0162,1.8268,1.7405,1.7772,1.6501,1.6699,1.8503,1.8165,1.855,1.9646,1.9834,1.9823,1.9658,2.01,2.0306,2.025,1.943,1.7817,1.5926,1.7248,1.7811,1.7811,1.7811,1.7811,1.7811,1.7811,1.7811,1.7811,1.7811,1.7811,1.7811,1.7811,1.7811,1.7896,1.8285,2.0264,2.231,2.231,2.231,2.231,2.231,2.231,2.231,2.231,2.231,2.231,2.231,2.231,2.1857,2.0311,1.7853,1.6432,1.7612,1.7811,1.7811,1.7811,1.7811,1.7811,1.7811,1.7811,0.0,1.7811,1.7811,1.7811,1.7811,1.791,1.941,2.2699,2.2513,2.231,2.231,2.231,2.2496,2.2885,2.5033,2.6116,2.6082,2.3528,2.231,2.231,2.231,2.231,2.231,2.231,2.231,2.2282,2.2049,2.2178,2.2531,2.3317,2.4879,2.7063,3.0091,3.119,3.119,1.8207,1.9492,2.0557,2.0557,2.0584,2.0369,1.9643,1.8681,1.8879,2.1195,2.0695,2.0178,2.034,2.0311,2.0312,2.0312,2.0312,2.0323,2.0347,1.9798,1.9476,1.9476,1.6074,1.5308,1.776,1.6501,1.5301,1.4266,1.7467,1.8029,1.6105,1.6245,1.6237,1.6208,1.9042,2.0305,2.0197,1.8708,1.7199,1.5926,1.7248,1.7811,1.7811,1.7811,1.7811,1.7811,1.7811,1.7811,1.7811,1.7811,1.7811,1.7811,1.7811,1.7811,1.8302,2.0788,2.1904,2.231,2.231,2.231,2.231,2.231,2.231,2.231,2.231,2.231,2.231,2.231,2.231,2.2209,2.1915,1.9448,1.7542,1.7766,1.7811,1.7811,1.7811,1.7811,1.7811,1.7811,1.7811,1.7811,1.7811,1.7811,1.7811,1.7811,1.857,2.105,2.569,2.363,2.231,2.231,2.231,2.3477,2.5913,2.4036,2.3071,2.3071,2.2564,2.231,2.231,2.231,2.231,2.231,2.231,2.231,2.218,2.0731,2.1421,2.3376,2.3528,2.4879,2.7063,3.0091,3.119,3.119,1.9738,2.0161,2.0339,1.9993,2.0216,2.0007,1.8734,1.8107,1.8317,1.9735,2.015,2.0312,2.0312,2.0312,1.96,1.7811,1.743,1.8,1.9665,1.949,1.9063,1.8551,1.6708,1.6027,1.6741,1.4133,1.2331,1.1482,1.5515,1.6589,1.4847,1.5221,1.6322,1.8061,1.9607,2.0109,1.9657,1.7628,1.6378,1.5926,1.7248,1.7811,1.7811,1.7811,1.7811,1.7811,1.7811,1.7811,1.7811,1.7811,1.7811,1.7811,1.7811,1.7811,1.8099,1.9529,2.1075,2.231,2.231,2.231,2.231,2.231,2.231,2.231,2.231,2.231,2.231,2.231,2.231,2.231,2.231,1.9816,1.8295,1.9891,2.0145,1.9604,1.8031,1.9164,2.0145,2.0145,1.8758,1.7811,1.7811,1.7811,1.7811,1.7811,1.8735,2.0354,2.2735,2.3147,2.3283,2.3283,2.2642,2.2987,2.4408,2.4526,2.4577,2.456,2.3038,2.231,2.231,2.231,2.231,2.231,2.231,2.231,2.2269,2.19,2.2458,2.3595,2.3595,2.4879,2.7063,3.0091,3.119,3.119,2.0321,2.0312,2.0145,1.9659,1.9688,1.9235,1.7609,1.7612,1.8153,1.9162,1.9755,2.0144,2.0277,2.0312,1.8927,1.5497,1.5403,1.6591,1.9124,1.9095,1.8626,1.7816,1.7202,1.6367,1.5303,1.1744,0.9905,0.9905,1.3501,1.4794,1.3953,1.5517,1.7769,2.0529,2.0229,1.9669,1.8858,1.6995,1.6052,1.5926,1.7248,1.7811,1.7811,1.7811,1.7811,1.7811,1.7811,1.7811,1.7811,1.7811,1.7811,1.7811,1.7811,1.7811,1.7811,1.7811,1.9942,2.231,2.231,2.231,2.231,2.231,2.231,2.231,2.231,2.231,2.231,2.231,2.231,2.231,2.231,2.0365,1.9536,2.1921,2.231,2.1481,1.9072,2.0805,2.231,2.231,2.0213,1.8775,1.8775,1.8183,1.7811,1.7811,1.8735,1.9305,1.9305,2.2409,2.419,2.419,2.3236,2.3014,2.3725,2.6048,2.6833,2.6148,2.3539,2.231,2.231,2.231,2.231,2.231,2.231,2.2665,2.3291,2.3992,2.3991,2.3638,2.4101,2.5635,2.7858,2.96,3.0649,3.119,2.0288,2.0312,2.0352,2.0468,1.912,1.758,1.6203,1.7027,1.8153,1.9162,1.9346,1.9619,2.0225,2.0312,1.8927,1.5497,1.7431,1.8977,1.9286,1.8436,1.7905,1.7811,1.524,1.375,1.3626,1.1187,0.9905,0.9905,1.2285,1.2955,1.2154,1.6767,1.942,2.0311,1.9676,1.8858,1.7927,1.7704,1.6926,1.5926,1.7248,1.7811,1.7811,1.7811,1.7811,1.7811,1.7811,1.7811,1.7811,1.7811,1.7811,1.7811,1.7811,1.7811,1.7811,1.7811,1.9942,2.231,2.231,2.231,2.231,2.231,2.231,2.231,2.231,2.231,2.231,2.231,2.231,2.231,2.231,2.209,2.1989,2.226,2.231,2.2209,2.1938,2.2124,2.231,2.231,2.2057,2.1887,2.1887,1.9418,1.7811,1.7811,1.8735,1.9305,1.9305,2.2409,2.419,2.419,2.4074,2.5421,2.8341,2.8646,2.7333,2.4431,2.298,2.231,2.231,2.231,2.231,2.231,2.231,2.3816,2.6302,2.6387,2.5303,2.3794,2.5677,2.8205,3.048,2.8027,2.8839,3.119,2.0316,1.9974,1.9535,1.9008,1.6288,1.4012,1.3473,1.5232,1.6735,1.7162,1.8428,1.9405,1.967,1.8239,1.6574,1.4916,1.7551,1.9305,1.9305,1.8911,1.7628,1.5261,1.4436,1.3848,1.3413,1.1849,1.0664,0.9905,1.0797,1.2234,1.4276,1.7697,1.9104,1.8799,1.8517,1.8191,1.7811,1.7811,1.7027,1.5856,1.6378,1.7076,1.7811,1.7811,1.7811,1.7811,1.7811,1.7811,1.7811,1.7811,1.7811,1.7811,1.7811,1.7811,1.7811,1.7811,1.8657,2.001,2.182,2.231,2.231,2.231,2.231,2.231,2.231,2.231,2.231,2.231,2.231,2.231,2.231,2.231,2.231,2.231,2.231,2.231,2.231,2.231,2.1634,1.9824,1.8882,1.8702,1.9529,2.0162,1.9756,1.7946,1.8173,1.9519,2.2098,2.3492,2.5089,2.7034,2.709,2.6778,2.6135,2.8022,2.7383,2.4207,2.4711,2.4932,2.4932,2.4932,2.4932,2.4932,2.4932,2.5609,2.6691,2.6691,2.6229,2.5529,2.6385,2.7435,2.8569,2.9178,3.0159,3.119,2.0068,1.9388,1.836,1.6789,1.3903,1.1805,1.1805,1.4648,1.6308,1.4811,1.635,1.7571,1.7571,1.6023,1.4856,1.4533,1.67,1.8048,1.789,1.7894,1.6635,1.3848,1.4219,1.4154,1.3413,1.2668,1.1687,1.047,1.0097,1.1912,1.5841,1.7893,1.8475,1.7811,1.7811,1.7811,1.7766,1.7384,1.667,1.5799,1.5799,1.6591,1.7811,1.7811,1.7811,1.7811,1.7811,1.7811,1.7811,1.7811,1.7811,1.7811,1.7811,1.7811,1.7811,1.7811,1.7811,1.8471,2.1498,2.231,2.231,2.231,2.231,2.231,2.231,2.231,2.231,2.231,2.231,2.231,2.231,2.231,2.231,2.231,2.231,2.231,2.231,2.231,2.1515,1.9384,1.7151,1.634,1.7658,1.9739,2.0086,1.7963,1.8623,2.005,2.219,2.3505,2.5236,2.753,2.8521,2.7457,2.4226,2.7402,2.7383,2.4207,2.5901,2.6691,2.6691,2.6691,2.6691,2.6691,2.6691,2.6691,2.6691,2.6691,2.6691,2.6691,2.6691,2.6691,2.7063,3.0091,3.119,3.119,1.9448,1.8513,1.6902,1.3955,1.253,1.1805,1.1805,1.6026,1.7468,1.2509,1.2792,1.3464,1.3464,1.4091,1.4517,1.4488,1.4971,1.5053,1.4589,1.4561,1.4543,1.4476,1.4506,1.4154,1.3413,1.3379,1.2836,1.1783,1.0519,1.1912,1.5827,1.7183,1.7811,1.7811,1.7811,1.7811,1.7704,1.6394,1.5799,1.5799,1.5799,1.6591,1.7811,1.7811,1.7811,1.7811,1.7811,1.7811,1.7811,1.7811,1.7811,1.7811,1.7811,1.7811,1.7811,1.7811,1.7811,1.8471,2.1498,2.231,2.231,2.231,2.231,2.231,2.231,2.231,2.231,2.231,2.231,2.231,2.231,2.231,2.231,2.231,2.231,2.231,2.231,2.231,2.2293,2.226,1.8426,1.634,1.7658,1.7845,1.7845,1.7811,2.0568,2.0974,1.8037,2.1896,2.4226,2.4263,2.7346,2.7457,2.4226,2.7402,2.7383,2.4207,2.5901,2.6691,2.6691,2.6691,2.6691,2.6691,2.6691,2.6691,2.6691,2.6691,2.6691,2.6691,2.6691,2.6691,2.7063,3.0091,3.119,3.119,1.9434,1.8494,1.7035,1.4585,1.386,1.3225,1.1993,1.315,1.387,1.3006,1.3191,1.3396,1.3396,1.406,1.4301,1.3789,1.4644,1.5146,1.4989,1.4678,1.4488,1.4488,1.4488,1.4387,1.4154,1.4141,1.3754,1.2889,1.3565,1.5031,1.715,1.667,1.691,1.7811,1.7811,1.7811,1.7704,1.6367,1.5104,1.4117,1.5329,1.6052,1.6538,1.7455,1.7811,1.7811,1.7811,1.7811,1.7811,1.7811,1.7811,1.7811,1.7811,1.7811,1.7811,1.7811,1.7811,1.8014,1.8954,1.9249,1.9249,1.9249,1.9249,1.9249,1.9249,2.0839,2.231,2.231,2.231,2.231,2.231,2.231,2.231,2.231,2.231,2.231,2.231,2.126,2.0959,2.2152,2.1071,1.9239,1.6674,1.6448,1.6448,1.6448,2.0069,2.1887,2.0923,2.216,2.2892,2.2892,2.4747,2.63,2.7475,2.848,2.848,2.7471,2.6951,2.6691,2.6691,2.6691,2.6691,2.6691,2.6691,2.6691,2.6691,2.6691,2.6691,2.6691,2.6691,2.796,2.9871,3.0852,3.119,3.119,1.9755,1.8974,1.745,1.4599,1.4087,1.3721,1.2578,1.205,1.203,1.2706,1.3139,1.2973,1.1838,1.2133,1.2203,1.1746,1.2575,1.3138,1.3138,1.416,1.4748,1.4748,1.4748,1.4748,1.4748,1.4592,1.4141,1.3396,1.5517,1.6977,1.7766,1.6448,1.6258,1.7076,1.7589,1.7811,1.7743,1.6901,1.5621,1.4278,1.5359,1.5799,1.587,1.6747,1.7361,1.7811,1.7811,1.7811,1.7811,1.7811,1.7811,1.7811,1.7811,1.7811,1.7811,1.7811,1.7811,1.7811,1.7811,1.7811,1.7811,1.7811,1.7811,1.7811,1.7811,1.9266,2.094,2.209,2.1414,2.0974,2.2107,2.231,2.231,2.231,2.231,2.231,2.231,1.9971,1.9263,2.1989,2.1312,1.9734,1.7484,1.6383,1.5799,1.5799,1.9845,2.2784,2.39,2.2902,2.2525,2.2993,2.3792,2.5162,2.7181,2.8411,2.8994,2.8994,2.7452,2.6691,2.6691,2.6691,2.6691,2.6691,2.6691,2.6691,2.6758,2.733,2.7224,2.681,2.7943,2.9533,3.119,3.119,3.119,3.119,2.0312,1.9755,1.8136,1.4449,1.3582,1.3396,1.3396,1.2553,1.1837,1.1635,1.247,1.1992,0.9138,0.8869,0.8891,0.8891,0.9394,0.9698,0.9698,1.2909,1.4928,1.5189,1.5189,1.5183,1.5159,1.4728,1.4141,1.3396,1.6256,1.7658,1.7635,1.6378,1.5799,1.5841,1.7101,1.7704,1.7811,1.7811,1.7076,1.5926,1.5827,1.5799,1.5799,1.5799,1.6565,1.7681,1.7766,1.7811,1.7811,1.7811,1.7811,1.7811,1.7811,1.7811,1.7811,1.7811,1.7811,1.7811,1.7811,1.7811,1.7811,1.7811,1.7811,1.7811,1.7811,1.7811,1.8606,2.1431,1.9756,1.8674,2.1481,2.2175,2.231,2.231,2.2124,2.2006,2.2006,1.8491,1.7459,2.1513,1.9519,1.8355,1.9756,1.7405,1.5873,1.6068,1.9735,2.3376,2.6522,2.39,2.2867,2.4151,2.419,2.43,2.452,2.7512,2.8952,2.8815,2.7391,2.6691,2.6691,2.6691,2.6691,2.6691,2.6808,2.6873,2.6987,2.8412,2.8139,2.718,3.0214,3.1291,3.119,3.119,3.119,3.119,2.0312,1.9755,1.8987,1.8066,1.5412,1.3396,1.3396,1.3174,1.219,0.9877,0.9814,0.9496,0.8265,0.8595,0.8891,0.8891,0.9394,0.9698,0.9698,1.0521,1.226,1.5087,1.5189,1.5026,1.4668,1.4567,1.4141,1.3396,1.5328,1.6285,1.6258,1.5955,1.5799,1.5799,1.6136,1.685,1.7811,1.7811,1.7612,1.7224,1.6203,1.5799,1.5799,1.5799,1.6011,1.6421,1.7432,1.7811,1.7811,1.7811,1.7811,1.7811,1.7811,1.7811,1.7811,1.7811,1.7811,1.7811,1.7811,1.7811,1.7811,1.7811,1.7811,1.7811,1.7811,1.7811,1.7991,1.8724,1.8318,1.8031,1.8741,2.0754,2.231,2.231,2.0382,1.8877,1.8877,1.7976,1.7721,1.8745,1.8234,1.8833,2.144,1.8118,1.6638,1.8646,1.882,2.116,2.642,2.39,2.2867,2.4151,2.419,2.5383,2.7842,2.8608,2.8412,2.7238,2.6873,2.6691,2.6691,2.6691,2.6691,2.6791,2.7946,2.8464,2.8489,2.8839,2.8773,2.8771,3.1949,3.2366,3.119,3.119,3.119,3.119,1.9552,1.954,1.8831,1.7362,1.5328,1.3906,1.3906,1.3606,1.2312,0.9298,0.8632,0.8158,0.7377,0.7621,0.8001,0.8409,0.8998,0.943,0.9691,0.9698,1.1246,1.4732,1.4873,1.4602,1.4019,1.4005,1.3553,1.2668,1.3536,1.4191,1.4627,1.5418,1.5799,1.5799,1.5799,1.6203,1.6926,1.7526,1.7033,1.5664,1.4459,1.4719,1.5799,1.5799,1.5799,1.5898,1.6617,1.7272,1.7811,1.7811,1.7811,1.7811,1.7811,1.7811,1.7811,1.7811,1.7811,1.7811,1.7811,1.7811,1.7811,1.7811,1.7811,1.7811,1.7811,1.7811,1.7811,1.7811,1.7811,1.7811,1.7811,1.9147,2.0247,2.0247,1.8877,1.7811,1.7811,1.7811,1.8295,1.9705,1.9875,2.0517,2.2158,2.0143,1.8802,1.8833,1.9475,2.1278,2.4526,2.3173,2.2867,2.4151,2.564,2.7236,2.8975,2.8994,2.8237,2.6691,2.6691,2.6691,2.6691,2.6691,2.6691,2.6791,2.8316,2.8994,2.9104,3.0595,3.1201,3.1384,3.3128,3.3207,3.2298,3.1487,3.119,3.119,1.8027,1.8574,1.7711,1.4976,1.4488,1.4488,1.4488,1.3877,1.2281,0.9162,0.8256,0.756,0.6689,0.6599,0.6845,0.7425,0.8138,0.8857,0.9534,0.9585,1.0795,1.3536,1.3569,1.3219,1.2573,1.2957,1.2706,1.1805,1.1615,1.1919,1.273,1.422,1.5017,1.5199,1.5199,1.5199,1.5267,1.6402,1.5462,1.3086,1.2174,1.3151,1.5199,1.5199,1.5199,1.5259,1.5649,1.6538,1.7526,1.7726,1.7811,1.7811,1.7811,1.7811,1.7811,1.7811,1.7811,1.7811,1.7811,1.7811,1.7766,1.7549,1.7658,1.7811,1.7811,1.7811,1.7811,1.7811,1.7811,1.7811,1.7811,1.816,1.8312,1.7879,1.7811,1.7963,1.8437,1.8488,1.9435,2.2006,2.231,2.231,2.231,2.231,2.1245,1.8674,2.0856,2.231,2.231,2.2733,2.3563,2.4866,2.7585,2.8994,2.8994,2.8994,2.8342,2.7034,2.6808,2.6928,2.7368,2.7368,2.7521,2.7816,2.8637,2.8994,2.9232,3.2467,3.3807,3.3807,3.3807,3.3807,3.3634,3.2144,3.1428,3.119,1.5012,1.5252,1.5086,1.4579,1.4488,1.4488,1.4488,1.3877,1.2106,0.852,0.7956,0.756,0.6689,0.6599,0.6313,0.5598,0.6409,0.7533,0.8923,0.9033,0.925,0.9749,0.9232,0.8883,0.8756,1.0921,1.1982,1.1805,1.0736,1.0277,1.042,1.0689,1.1396,1.2418,1.2418,1.2418,1.2426,1.2634,1.2476,1.203,1.1854,1.2044,1.2418,1.2418,1.2418,1.2718,1.4989,1.5926,1.6285,1.7432,1.7811,1.7811,1.7811,1.7811,1.7811,1.7811,1.7811,1.7811,1.7811,1.7811,1.7526,1.6378,1.6977,1.7811,1.7811,1.7811,1.7811,1.7811,1.7811,1.7811,1.7811,1.9891,2.0771,1.8217,1.7811,1.8691,2.1245,2.1617,2.1786,2.226,2.231,2.231,2.231,2.231,2.2124,2.1651,2.2057,2.231,2.231,2.4661,2.6678,2.8219,2.8737,2.8994,2.8994,2.8994,2.8881,2.8633,2.733,2.8027,3.0497,3.0497,3.1289,3.2566,3.0076,2.8994,2.9232,3.2467,3.3807,3.3807,3.3807,3.3807,3.3762,3.3504,3.2466,3.119,1.1359,1.1475,1.2002,1.362,1.3906,1.3906,1.3906,1.1925,0.9826,0.8122,0.7484,0.7042,0.6651,0.6117,0.5611,0.5146,0.5518,0.6089,0.6801,0.7804,0.8358,0.8358,0.8068,0.7679,0.7203,0.8378,0.9005,0.9005,0.8402,0.8738,0.9905,0.9905,1.021,1.0808,1.149,1.1805,1.1805,1.1805,1.1805,1.1805,1.1805,1.1805,1.1805,1.1805,1.1805,1.2149,1.4839,1.5799,1.5898,1.6512,1.7199,1.7811,1.7811,1.7811,1.7811,1.7811,1.7811,1.7811,1.7811,1.7811,1.7658,1.7027,1.7344,1.7811,1.7811,1.7811,1.7811,1.7811,1.7811,1.7811,1.7811,1.8944,1.9435,1.8031,1.914,2.072,2.2107,2.0906,2.0483,2.2124,2.231,2.231,2.231,2.231,2.231,2.231,2.231,2.231,2.231,2.5101,2.7391,2.8952,2.8994,2.8994,2.8994,2.8994,2.8994,2.8994,2.829,2.8681,3.0021,3.0021,3.0435,3.1237,3.1494,3.1604,3.1715,3.3183,3.3807,3.3807,3.3807,3.3807,3.3707,3.2759,3.1878,3.119,0.8518,0.8667,0.9391,1.1725,1.2123,1.2123,1.2123,1.0224,0.8702,0.8405,0.7339,0.6599,0.6599,0.5704,0.5108,0.5108,0.5108,0.5108,0.5108,0.6452,0.7349,0.7575,0.7605,0.7282,0.6616,0.6599,0.6599,0.6599,0.6599,0.7463,0.914,0.914,0.9416,0.9944,1.1227,1.1805,1.1805,1.1805,1.1805,1.1805,1.1805,1.1805,1.1805,1.1805,1.1805,1.2149,1.4839,1.5799,1.5856,1.6163,1.6952,1.7811,1.7811,1.7811,1.7811,1.7811,1.7811,1.7811,1.7811,1.7811,1.7811,1.7811,1.7811,1.7811,1.7811,1.7811,1.7811,1.7811,1.7811,1.7811,1.7811,1.8386,1.8623,1.7907,2.0331,2.231,2.231,2.0314,1.9722,2.204,2.2919,2.3054,2.2378,2.231,2.231,2.231,2.2953,2.3021,2.2344,2.5101,2.7391,2.8952,2.8994,2.8994,2.8994,2.8994,2.8994,2.8994,2.9745,3.0136,3.0136,3.0136,2.9714,2.9177,3.2412,3.3385,3.2742,3.3495,3.3807,3.3807,3.3807,3.3532,3.3009,3.1677,3.119,3.119,0.7797,0.797,0.803,0.8257,0.8302,0.8302,0.8302,1.0124,1.1089,0.9915,0.7925,0.6599,0.6599,0.5704,0.5108,0.5108,0.5108,0.5108,0.5108,0.5233,0.5731,0.6655,0.6689,0.6668,0.6599,0.6599,0.6599,0.6599,0.6599,0.6687,0.6837,0.6837,0.7926,0.9944,1.1227,1.1805,1.1805,1.1805,1.1805,1.1805,1.1805,1.1805,1.1805,1.1805,1.1805,1.2149,1.4839,1.5799,1.5983,1.7224,1.7704,1.7811,1.7811,1.7811,1.7811,1.7811,1.7811,1.7811,1.7811,1.7811,1.7811,1.7811,1.7811,1.7811,1.7811,1.7811,1.7811,1.7811,1.7811,1.7811,1.7811,2.0094,2.1059,1.8268,2.0331,2.231,2.231,2.2124,2.2057,2.2276,2.4712,2.5304,2.2581,2.231,2.231,2.231,2.4831,2.5186,2.2462,2.5101,2.7391,2.8952,2.8994,2.8994,2.8994,2.8994,2.8994,2.903,3.2027,3.344,3.344,3.344,3.1825,2.9177,3.2412,3.2118,2.9562,3.2577,3.3807,3.3807,3.3807,3.2822,3.1389,3.1269,3.119,3.119,0.7026,0.7091,0.7266,0.7797,0.7899,0.7899,0.7899,0.8754,0.9788,1.0937,0.8945,0.7203,0.6668,0.626,0.5778,0.5146,0.5108,0.5108,0.5108,0.5108,0.5555,0.6564,0.6599,0.6599,0.6599,0.6599,0.6599,0.6599,0.6599,0.6599,0.6624,0.7989,0.8374,0.7942,0.9807,1.1066,1.1805,1.1805,1.1805,1.1805,1.1805,1.1805,1.1805,1.1805,1.1805,1.1925,1.2942,1.4405,1.5996,1.7361,1.7811,1.7811,1.7811,1.7811,1.7811,1.7811,1.7811,1.7949,1.857,1.8275,1.7811,1.7811,1.7811,1.7811,1.7811,1.7811,1.7811,1.7811,1.7811,1.8386,2.0264,2.1532,2.1938,2.0788,2.1566,2.231,2.231,2.3883,2.5033,2.5033,2.6015,2.5541,2.2598,2.3951,2.5033,2.5033,2.4374,2.3494,2.2361,2.5101,2.6954,2.7572,2.7572,2.7572,2.7572,2.8515,2.8994,2.903,3.2265,3.3807,3.3733,3.1733,3.0173,2.9177,3.2412,3.3109,3.2082,3.3293,3.3807,3.3807,3.3807,3.2727,3.141,3.3254,3.278,3.119,0.6599,0.6599,0.6791,0.7392,0.7484,0.7484,0.7484,0.7724,0.8844,1.1461,1.0234,0.8587,0.7155,0.6757,0.6313,0.563,0.5574,0.5574,0.5574,0.5574,0.587,0.6564,0.6599,0.6599,0.6599,0.6599,0.6599,0.6599,0.6599,0.6599,0.6637,0.816,0.806,0.6699,0.8914,1.0616,1.1805,1.1805,1.1805,1.1805,1.1805,1.1805,1.1805,1.1805,1.1805,1.1805,1.1805,1.351,1.5996,1.7361,1.7811,1.7811,1.7811,1.7811,1.7861,1.8173,1.8275,1.8417,1.9095,1.8789,1.8211,1.7883,1.804,1.8173,1.7861,1.7811,1.7811,1.7811,1.7811,1.8847,2.226,2.2579,2.231,2.231,2.231,2.231,2.231,2.4052,2.5659,2.659,2.5879,2.4898,2.3799,2.5507,2.6691,2.6691,2.4831,2.3881,2.4392,2.5843,2.6691,2.6691,2.6691,2.6691,2.6691,2.7747,2.8515,2.9012,3.1237,3.2816,3.3733,3.1513,3.0522,3.0632,3.2834,3.3807,3.3807,3.3807,3.3807,3.3734,3.3207,3.2827,3.2713,3.3812,3.2949,3.119,0.6599,0.6599,0.6599,0.6599,0.6599,0.6599,0.6599,0.7345,0.8844,1.1431,1.1775,1.0772,0.8184,0.7123,0.6599,0.6599,0.6599,0.6599,0.6599,0.6599,0.6599,0.6599,0.6599,0.6599,0.6599,0.6599,0.6599,0.6599,0.6599,0.6599,0.6599,0.6611,0.6624,0.6724,0.8926,1.0616,1.1805,1.1805,1.1805,1.1805,1.1805,1.1805,1.1805,1.1805,1.1805,1.1805,1.1805,1.352,1.5966,1.7287,1.7772,1.7811,1.7811,1.7811,1.7997,1.8996,1.9289,1.9305,1.9305,1.9305,1.9063,1.8065,1.857,1.903,1.804,1.7811,1.7811,1.7811,1.7811,1.9104,2.3412,2.3164,2.231,2.231,2.231,2.231,2.231,2.2327,2.3427,2.6336,2.4103,2.346,2.6404,2.6691,2.6674,2.6657,2.6674,2.7361,2.8929,2.7542,2.6691,2.6691,2.6691,2.6691,2.6691,2.6691,2.7482,2.8994,2.9012,3.0699,3.3762,3.3788,3.3807,3.3807,3.3807,3.3807,3.3807,3.3807,3.3807,3.3634,3.1913,3.3034,3.5267,3.2307,3.1224,3.1224,0.6599,0.6599,0.6599,0.6599,0.6599,0.6599,0.6599,0.7345,0.8184,0.8963,0.9068,0.8769,0.7989,0.7665,0.7266,0.6651,0.6599,0.6599,0.6599,0.6599,0.6599,0.6599,0.6599,0.6599,0.6599,0.6599,0.6599,0.6599,0.6599,0.6599,0.6637,0.8198,0.8926,0.8998,1.0524,1.1445,1.1805,1.1805,1.1805,1.1805,1.1805,1.1805,1.1805,1.1805,1.1805,1.1805,1.1805,1.2299,1.3043,1.347,1.5468,1.7811,1.7811,1.7811,1.7861,1.817,1.8753,1.9305,1.9305,1.9305,1.9243,1.8929,1.9079,1.9209,1.8911,1.8842,1.8663,1.7949,1.7811,1.9104,2.3412,2.3894,2.3624,2.3624,2.3624,2.333,2.2432,2.4086,2.571,2.659,2.4103,2.346,2.6404,2.6691,2.5828,2.3765,2.5524,2.7361,2.8929,2.7542,2.6691,2.6691,2.6691,2.6691,2.6691,2.6691,2.6922,2.7409,2.9535,3.1046,3.2021,3.3237,3.3807,3.3807,3.3807,3.3807,3.3807,3.3807,3.3807,3.3826,3.4142,3.4844,3.5504,3.4624,3.4303,3.4303,0.653,0.6599,0.6599,0.6599,0.6599,0.6599,0.6599,0.7042,0.7499,0.7856,0.7899,0.7899,0.7899,0.7899,0.7694,0.7155,0.6807,0.6599,0.6599,0.6599,0.6599,0.6599,0.6224,0.6189,0.6599,0.6599,0.6599,0.6599,0.6599,0.6599,0.6624,0.7985,0.86,0.8682,1.0828,1.1805,1.1805,1.1805,1.1805,1.1805,1.1805,1.1805,1.1805,1.1805,1.1805,1.1805,1.1805,1.1805,1.1805,1.1805,1.4469,1.7811,1.7811,1.7811,1.7811,1.7811,1.8235,1.8789,1.9193,1.9013,1.8717,1.8717,1.9013,1.9305,1.9305,1.8996,1.8532,1.7927,1.7811,1.9104,2.3412,2.419,2.419,2.419,2.419,2.3935,2.3164,2.4133,2.5389,2.6556,2.5135,2.4746,2.6522,2.6105,2.5505,2.498,2.6606,2.8029,2.8952,2.7542,2.6691,2.6691,2.6691,2.6691,2.6691,2.6691,2.6691,2.6708,2.8552,3.004,3.1269,3.3027,3.3807,3.3807,3.3807,3.3807,3.3807,3.3807,3.3807,3.3789,3.3831,3.3863,3.4015,3.5182,3.5622,3.5622,0.6278,0.6547,0.6599,0.6599,0.6599,0.6599,0.6599,0.6599,0.6891,0.7679,0.7856,0.787,0.7783,0.7783,0.7827,0.7899,0.7107,0.6599,0.6599,0.6599,0.6599,0.6599,0.5723,0.5667,0.6582,0.6599,0.6599,0.6599,0.6599,0.6599,0.6599,0.6599,0.6599,0.6739,1.0134,1.1681,1.1805,1.1805,1.1805,1.1805,1.1805,1.1805,1.1805,1.1805,1.1805,1.1805,1.1805,1.1805,1.1835,1.2074,1.4677,1.7811,1.7811,1.7811,1.7811,1.7811,1.7811,1.7997,1.8929,1.8494,1.7811,1.7811,1.8494,1.9162,1.9162,1.8455,1.7811,1.7811,1.7861,1.9234,2.3432,2.419,2.419,2.419,2.419,2.419,2.419,2.3212,2.3579,2.6548,2.6774,2.6758,2.6889,2.5515,2.5841,2.8773,2.8994,2.8994,2.8994,2.7689,2.6841,2.6691,2.6691,2.6691,2.6691,2.6962,2.6962,2.6691,2.6691,2.8353,3.1487,3.3087,3.3807,3.3807,3.3807,3.3807,3.3807,3.3807,3.3807,3.3634,3.2039,3.1619,3.2161,3.4694,3.5622,3.5622,0.5385,0.6052,0.6599,0.6599,0.6599,0.6599,0.6599,0.6599,0.6668,0.6858,0.7469,0.765,0.6944,0.6891,0.7155,0.7841,0.7107,0.6599,0.6599,0.6599,0.6599,0.6599,0.6395,0.6378,0.6599,0.6599,0.6599,0.6599,0.6599,0.6599,0.6599,0.6599,0.6599,0.6717,0.9198,1.0879,1.1805,1.1805,1.1805,1.1805,1.1805,1.1805,1.1805,1.1805,1.1805,1.1805,1.1805,1.1805,1.2119,1.4225,1.6212,1.7811,1.7811,1.7811,1.7811,1.7811,1.7811,1.7856,1.8065,1.7975,1.7811,1.7811,1.7954,1.8128,1.8128,1.7954,1.7811,1.7811,1.8417,2.0045,2.3546,2.419,2.419,2.419,2.419,2.419,2.419,2.3955,2.4968,2.8128,2.7422,2.7161,2.8368,2.8177,2.8242,2.8938,2.8994,2.8994,2.8994,2.87,2.7946,2.6758,2.6691,2.6691,2.6691,2.9025,2.9025,2.6691,2.6691,2.8992,3.3255,3.3634,3.3807,3.3807,3.3807,3.3807,3.3807,3.3807,3.3807,3.3762,3.3372,3.4793,3.6958,3.5949,3.5622,3.5622,0.5108,0.5518,0.6034,0.653,0.6599,0.6599,0.6599,0.6599,0.6599,0.6599,0.6993,0.7107,0.6651,0.6599,0.6791,0.7235,0.7251,0.7219,0.7219,0.7219,0.7026,0.6616,0.6599,0.6599,0.6599,0.6599,0.6599,0.6599,0.6599,0.6599,0.6599,0.6599,0.6599,0.6699,0.8914,1.0285,1.0926,1.1534,1.1805,1.1805,1.1805,1.1805,1.1805,1.1805,1.1805,1.1805,1.1805,1.1805,1.2209,1.4899,1.6696,1.7811,1.7811,1.7811,1.7811,1.7811,1.7811,1.7811,1.7811,1.7811,1.7811,1.7811,1.7811,1.7811,1.7811,1.7811,1.7949,1.8417,1.8928,1.9822,2.1547,2.3144,2.419,2.419,2.419,2.419,2.419,2.419,2.4814,2.6521,2.5996,2.6417,2.8782,2.7622,2.7365,2.8865,2.8994,2.8994,2.8994,2.8994,2.8633,2.7833,2.7066,2.7385,2.8822,3.0395,3.0395,2.8822,2.8119,2.9897,3.3807,3.3807,3.3807,3.3807,3.3807,3.3807,3.3807,3.3807,3.3807,3.3807,3.3807,3.5807,3.8564,3.747,3.6464,3.5622,0.5108,0.4874,0.4933,0.5768,0.5924,0.6064,0.6519,0.6273,0.6035,0.6035,0.6361,0.6599,0.6599,0.6599,0.6599,0.6599,0.7392,0.7899,0.7899,0.7899,0.7575,0.6858,0.6824,0.6757,0.6599,0.6599,0.6599,0.6599,0.6599,0.6599,0.6599,0.6599,0.6599,0.6699,0.8914,0.9905,0.997,1.1043,1.1601,1.1805,1.1805,1.1805,1.1805,1.1805,1.1805,1.1805,1.1805,1.1805,1.2134,1.4375,1.5855,1.6859,1.7313,1.7612,1.7811,1.7811,1.7811,1.7811,1.7811,1.7811,1.7811,1.7811,1.7811,1.7811,1.7811,1.7932,1.8296,1.913,1.9764,2.0134,2.0134,2.2354,2.419,2.419,2.419,2.419,2.419,2.419,2.419,2.419,2.4685,2.608,2.8737,2.6594,2.6135,2.8792,2.8994,2.8994,2.8994,2.8994,2.8994,2.8994,2.7776,2.8425,3.1157,3.1487,3.1487,3.1196,3.027,3.1237,3.3807,3.3807,3.3807,3.3807,3.3807,3.3807,3.3807,3.3807,3.3807,3.3862,3.4412,3.6303,3.8707,3.8707,3.7632,3.6122,0.5108,0.393,0.2984,0.3126,0.3148,0.392,0.6245,0.4972,0.3738,0.3738,0.5411,0.6599,0.6599,0.6599,0.6599,0.6599,0.7392,0.7899,0.7899,0.7899,0.7856,0.7724,0.7724,0.7376,0.6616,0.6599,0.6599,0.6599,0.6599,0.6599,0.6599,0.6599,0.6599,0.6699,0.8914,0.9905,0.9905,1.0097,1.0784,1.1805,1.1805,1.1805,1.1805,1.1805,1.1805,1.1805,1.1805,1.1805,1.185,1.2224,1.2448,1.3015,1.5346,1.6876,1.7811,1.7811,1.7811,1.7811,1.7811,1.7811,1.7811,1.7811,1.7811,1.7811,1.7811,1.8475,1.9146,1.9274,2.1547,2.3529,2.3529,2.3896,2.419,2.419,2.419,2.419,2.419,2.419,2.419,2.419,2.6667,2.8517,2.8957,2.859,2.8517,2.8957,2.8994,2.8994,2.8994,2.8994,2.8994,2.8994,2.8791,2.9485,3.1157,3.2695,3.2695,3.123,3.2534,3.3385,3.3807,3.3807,3.3807,3.3807,3.3807,3.3807,3.3807,3.3807,3.3807,3.4082,3.6927,3.8322,3.8707,3.8707,3.8515,3.8285,0.5108,0.3746,0.2598,0.2598,0.2598,0.2991,0.4187,0.3752,0.3306,0.3306,0.5235,0.6599,0.6599,0.6599,0.6599,0.6599,0.6944,0.7376,0.787,0.7899,0.7899,0.7899,0.7899,0.7724,0.7329,0.7329,0.7329,0.7329,0.7329,0.7075,0.6599,0.6599,0.725,0.8499,0.9466,0.9905,0.9905,0.9905,1.064,1.1805,1.1805,1.1805,1.1805,1.1805,1.1805,1.1805,1.1805,1.1805,1.1805,1.1805,1.1805,1.2269,1.4959,1.6219,1.6825,1.7589,1.7811,1.7811,1.7811,1.7811,1.7932,1.8494,1.8644,1.8644,1.8644,1.898,1.9822,2.1657,2.318,2.419,2.419,2.419,2.419,2.419,2.419,2.419,2.419,2.419,2.419,2.419,2.5456,2.6319,2.6319,2.7952,2.8994,2.8994,2.8994,2.8994,2.8994,2.8994,2.8994,2.8994,3.0742,3.1983,3.2645,3.3419,3.34,3.2663,3.3447,3.3807,3.3807,3.3807,3.3807,3.3807,3.3807,3.3807,3.3807,3.3807,3.3807,3.3935,3.5404,3.7092,3.8707,3.8707,3.7551,3.6229]}]]